Black River (Missouri), Poplar Bluff (07063000)

StateMissouriLatestGood (978 cfs)
RiverBlack RiverRatingObservedEstimated
Updated2021-01-20 0:15 (33 minutes ago)Flood - The river is flooding. Obstacles can be treacherous or deadly. The river should be avoided at this stage for casual trips and definitely for the inexperienced. Trips should be attempted only with protective gear and equipment.Flood(none)4097
Discharge978 cfs (median: 1050 cfs)High - The river is high and potentially dangerous, especially for the young and / or inexperienced. Normal stream obstacles are sometimes difficult to navigate. Extended distances can be attempted, but canoe travel may not be advisable.High(none)1935
Height1.88 feetGood - Conditions are ideal for a canoe or kayak. Boats typically will drag on fewer than one-quarter of riffles, if at all, and portages are unnecessary or rare. Normal float lengths can be attempted without a problem.Good(none)978
TrendSteady (falling over 24 hours)Low - River is low but can still be floated. Some riffles are okay but most come with significant dragging and might need a portage. Float lengths should be reduced to accommodate low flow, dragging, and portages.Low(none)643
USGSExternal icon USGS Site (External icon Google Maps)Poor - River is too low to float comfortably. Most or all riffles will drag or must be portaged and some obstacles (such as slick shelf rock) cause undue problems. Avoid the river at this stage for casual paddling trips.Poor(none)338

Trending Data

Plot Image

Trips for Black River (Missouri), Poplar Bluff (07063000)

DateStartEndDistanceConditionDischargeHeightFishingDetails

A total of 0 rows are displayed.

Condition Descriptions

Fishing Conditions

Fish Species

Notes

Classic Trip List

The classic River Trips application is still available for use. It is updated with the new system using a data retrofit. It is no longer maintained. The original River Trips application is no longer updated (as of 1 Dec 2016) but can be checked for errors or for the condition of the data before it was converted to the new system.

Gauge Data Table

ObservationHeightDischargeMaximum
Discharge
Minimum
Discharge
Mean
Discharge
P05P10P20P25P50
(Median)
P75P80P90P95
2021-01-20 00:15 1.88 978 5040 (1949) 304 (1956) 1720 407 485 581 642 1050 2540 3450 4080 4410
2021-01-19 23:15 1.88 978 4420 (1949) 306 (1956) 1640 378 494 592 652 1040 2600 3200 4000 4100
2021-01-19 22:15 1.88 978 4420 (1949) 306 (1956) 1640 378 494 592 652 1040 2600 3200 4000 4100
2021-01-19 21:15 1.90 985 4420 (1949) 306 (1956) 1640 378 494 592 652 1040 2600 3200 4000 4100
2021-01-19 20:15 1.89 982 4420 (1949) 306 (1956) 1640 378 494 592 652 1040 2600 3200 4000 4100
2021-01-19 19:15 1.90 985 4420 (1949) 306 (1956) 1640 378 494 592 652 1040 2600 3200 4000 4100
2021-01-19 18:15 1.90 985 4420 (1949) 306 (1956) 1640 378 494 592 652 1040 2600 3200 4000 4100
2021-01-19 17:15 1.91 989 4420 (1949) 306 (1956) 1640 378 494 592 652 1040 2600 3200 4000 4100
2021-01-19 16:15 1.90 985 4420 (1949) 306 (1956) 1640 378 494 592 652 1040 2600 3200 4000 4100
2021-01-19 15:15 1.91 989 4420 (1949) 306 (1956) 1640 378 494 592 652 1040 2600 3200 4000 4100
2021-01-19 14:15 1.91 989 4420 (1949) 306 (1956) 1640 378 494 592 652 1040 2600 3200 4000 4100
2021-01-19 13:15 1.92 992 4420 (1949) 306 (1956) 1640 378 494 592 652 1040 2600 3200 4000 4100
2021-01-19 12:15 1.92 992 4420 (1949) 306 (1956) 1640 378 494 592 652 1040 2600 3200 4000 4100
2021-01-19 11:15 1.92 992 4420 (1949) 306 (1956) 1640 378 494 592 652 1040 2600 3200 4000 4100
2021-01-19 10:15 1.91 989 4420 (1949) 306 (1956) 1640 378 494 592 652 1040 2600 3200 4000 4100
2021-01-19 09:15 1.93 996 4420 (1949) 306 (1956) 1640 378 494 592 652 1040 2600 3200 4000 4100
2021-01-19 08:15 1.92 992 4420 (1949) 306 (1956) 1640 378 494 592 652 1040 2600 3200 4000 4100
2021-01-19 07:15 1.94 999 4420 (1949) 306 (1956) 1640 378 494 592 652 1040 2600 3200 4000 4100
2021-01-19 06:15 1.92 992 4420 (1949) 306 (1956) 1640 378 494 592 652 1040 2600 3200 4000 4100
2021-01-19 05:15 1.93 996 4420 (1949) 306 (1956) 1640 378 494 592 652 1040 2600 3200 4000 4100
2021-01-19 04:15 1.93 996 4420 (1949) 306 (1956) 1640 378 494 592 652 1040 2600 3200 4000 4100
2021-01-19 03:15 1.94 999 4420 (1949) 306 (1956) 1640 378 494 592 652 1040 2600 3200 4000 4100
2021-01-19 02:15 1.94 999 4420 (1949) 306 (1956) 1640 378 494 592 652 1040 2600 3200 4000 4100
2021-01-19 01:15 1.95 1000 4420 (1949) 306 (1956) 1640 378 494 592 652 1040 2600 3200 4000 4100
2021-01-19 00:15 1.96 1010 4420 (1949) 306 (1956) 1640 378 494 592 652 1040 2600 3200 4000 4100
2021-01-18 23:15 1.95 1000 4140 (1985) 299 (1956) 1580 380 498 567 639 1040 2120 3100 3780 4060
2021-01-18 22:15 1.95 1000 4140 (1985) 299 (1956) 1580 380 498 567 639 1040 2120 3100 3780 4060
2021-01-18 21:15 1.95 1000 4140 (1985) 299 (1956) 1580 380 498 567 639 1040 2120 3100 3780 4060
2021-01-18 20:15 1.95 1000 4140 (1985) 299 (1956) 1580 380 498 567 639 1040 2120 3100 3780 4060
2021-01-18 19:15 1.95 1000 4140 (1985) 299 (1956) 1580 380 498 567 639 1040 2120 3100 3780 4060
2021-01-18 18:15 1.96 1010 4140 (1985) 299 (1956) 1580 380 498 567 639 1040 2120 3100 3780 4060
2021-01-18 17:15 1.95 1000 4140 (1985) 299 (1956) 1580 380 498 567 639 1040 2120 3100 3780 4060
2021-01-18 16:15 1.96 1010 4140 (1985) 299 (1956) 1580 380 498 567 639 1040 2120 3100 3780 4060
2021-01-18 15:15 1.97 1010 4140 (1985) 299 (1956) 1580 380 498 567 639 1040 2120 3100 3780 4060
2021-01-18 14:15 1.97 1010 4140 (1985) 299 (1956) 1580 380 498 567 639 1040 2120 3100 3780 4060
2021-01-18 13:15 1.96 1010 4140 (1985) 299 (1956) 1580 380 498 567 639 1040 2120 3100 3780 4060
2021-01-18 12:15 1.98 1010 4140 (1985) 299 (1956) 1580 380 498 567 639 1040 2120 3100 3780 4060
2021-01-18 11:15 1.99 1020 4140 (1985) 299 (1956) 1580 380 498 567 639 1040 2120 3100 3780 4060
2021-01-18 10:15 1.98 1010 4140 (1985) 299 (1956) 1580 380 498 567 639 1040 2120 3100 3780 4060
2021-01-18 09:15 1.98 1010 4140 (1985) 299 (1956) 1580 380 498 567 639 1040 2120 3100 3780 4060
2021-01-18 08:15 1.98 1010 4140 (1985) 299 (1956) 1580 380 498 567 639 1040 2120 3100 3780 4060
2021-01-18 07:15 1.98 1010 4140 (1985) 299 (1956) 1580 380 498 567 639 1040 2120 3100 3780 4060
2021-01-18 06:15 2.00 1020 4140 (1985) 299 (1956) 1580 380 498 567 639 1040 2120 3100 3780 4060
2021-01-18 05:15 2.00 1020 4140 (1985) 299 (1956) 1580 380 498 567 639 1040 2120 3100 3780 4060
2021-01-18 04:15 2.01 1020 4140 (1985) 299 (1956) 1580 380 498 567 639 1040 2120 3100 3780 4060
2021-01-18 03:15 2.00 1020 4140 (1985) 299 (1956) 1580 380 498 567 639 1040 2120 3100 3780 4060
2021-01-18 02:15 2.02 1030 4140 (1985) 299 (1956) 1580 380 498 567 639 1040 2120 3100 3780 4060
2021-01-18 01:15 2.01 1020 4140 (1985) 299 (1956) 1580 380 498 567 639 1040 2120 3100 3780 4060
2021-01-18 00:15 2.03 1030 4140 (1985) 299 (1956) 1580 380 498 567 639 1040 2120 3100 3780 4060
2021-01-17 23:15 2.02 1030 4170 (2016) 297 (1956) 1540 391 461 571 623 1020 2390 2810 3730 4050
2021-01-17 22:15 2.02 1030 4170 (2016) 297 (1956) 1540 391 461 571 623 1020 2390 2810 3730 4050
2021-01-17 21:15 2.03 1030 4170 (2016) 297 (1956) 1540 391 461 571 623 1020 2390 2810 3730 4050
2021-01-17 20:15 2.03 1030 4170 (2016) 297 (1956) 1540 391 461 571 623 1020 2390 2810 3730 4050
2021-01-17 19:15 2.04 1030 4170 (2016) 297 (1956) 1540 391 461 571 623 1020 2390 2810 3730 4050
2021-01-17 18:15 2.04 1030 4170 (2016) 297 (1956) 1540 391 461 571 623 1020 2390 2810 3730 4050
2021-01-17 17:15 2.04 1030 4170 (2016) 297 (1956) 1540 391 461 571 623 1020 2390 2810 3730 4050
2021-01-17 16:15 2.04 1030 4170 (2016) 297 (1956) 1540 391 461 571 623 1020 2390 2810 3730 4050
2021-01-17 15:15 2.05 1040 4170 (2016) 297 (1956) 1540 391 461 571 623 1020 2390 2810 3730 4050
2021-01-17 14:15 2.05 1040 4170 (2016) 297 (1956) 1540 391 461 571 623 1020 2390 2810 3730 4050
2021-01-17 13:15 2.05 1040 4170 (2016) 297 (1956) 1540 391 461 571 623 1020 2390 2810 3730 4050
2021-01-17 12:15 2.06 1040 4170 (2016) 297 (1956) 1540 391 461 571 623 1020 2390 2810 3730 4050
2021-01-17 11:15 2.05 1040 4170 (2016) 297 (1956) 1540 391 461 571 623 1020 2390 2810 3730 4050
2021-01-17 10:15 2.06 1040 4170 (2016) 297 (1956) 1540 391 461 571 623 1020 2390 2810 3730 4050
2021-01-17 09:15 2.05 1040 4170 (2016) 297 (1956) 1540 391 461 571 623 1020 2390 2810 3730 4050
2021-01-17 08:15 2.07 1050 4170 (2016) 297 (1956) 1540 391 461 571 623 1020 2390 2810 3730 4050
2021-01-17 07:15 2.07 1050 4170 (2016) 297 (1956) 1540 391 461 571 623 1020 2390 2810 3730 4050
2021-01-17 06:15 2.08 1050 4170 (2016) 297 (1956) 1540 391 461 571 623 1020 2390 2810 3730 4050
2021-01-17 05:15 2.08 1050 4170 (2016) 297 (1956) 1540 391 461 571 623 1020 2390 2810 3730 4050
2021-01-17 04:15 2.09 1050 4170 (2016) 297 (1956) 1540 391 461 571 623 1020 2390 2810 3730 4050
2021-01-17 03:15 2.10 1060 4170 (2016) 297 (1956) 1540 391 461 571 623 1020 2390 2810 3730 4050
2021-01-17 02:15 2.10 1060 4170 (2016) 297 (1956) 1540 391 461 571 623 1020 2390 2810 3730 4050
2021-01-17 01:15 2.11 1060 4170 (2016) 297 (1956) 1540 391 461 571 623 1020 2390 2810 3730 4050
2021-01-16 22:15 2.13 1070 4980 (2007) 299 (1956) 1600 392 448 577 627 978 2630 3110 3900 4150
2021-01-16 21:15 2.15 1070 4980 (2007) 299 (1956) 1600 392 448 577 627 978 2630 3110 3900 4150
2021-01-16 20:15 2.17 1080 4980 (2007) 299 (1956) 1600 392 448 577 627 978 2630 3110 3900 4150
2021-01-16 19:15 2.17 1080 4980 (2007) 299 (1956) 1600 392 448 577 627 978 2630 3110 3900 4150
2021-01-16 18:15 2.18 1090 4980 (2007) 299 (1956) 1600 392 448 577 627 978 2630 3110 3900 4150
2021-01-16 17:15 2.19 1090 4980 (2007) 299 (1956) 1600 392 448 577 627 978 2630 3110 3900 4150
2021-01-16 16:15 2.21 1100 4980 (2007) 299 (1956) 1600 392 448 577 627 978 2630 3110 3900 4150
2021-01-16 15:15 2.22 1100 4980 (2007) 299 (1956) 1600 392 448 577 627 978 2630 3110 3900 4150
2021-01-16 14:15 2.23 1100 4980 (2007) 299 (1956) 1600 392 448 577 627 978 2630 3110 3900 4150
2021-01-16 13:15 2.23 1100 4980 (2007) 299 (1956) 1600 392 448 577 627 978 2630 3110 3900 4150
2021-01-16 12:15 2.23 1100 4980 (2007) 299 (1956) 1600 392 448 577 627 978 2630 3110 3900 4150
2021-01-16 11:15 2.25 1110 4980 (2007) 299 (1956) 1600 392 448 577 627 978 2630 3110 3900 4150
2021-01-16 10:15 2.25 1110 4980 (2007) 299 (1956) 1600 392 448 577 627 978 2630 3110 3900 4150
2021-01-16 09:15 2.25 1110 4980 (2007) 299 (1956) 1600 392 448 577 627 978 2630 3110 3900 4150
2021-01-16 08:15 2.26 1120 4980 (2007) 299 (1956) 1600 392 448 577 627 978 2630 3110 3900 4150
2021-01-16 07:15 2.26 1120 4980 (2007) 299 (1956) 1600 392 448 577 627 978 2630 3110 3900 4150
2021-01-16 06:15 2.26 1120 4980 (2007) 299 (1956) 1600 392 448 577 627 978 2630 3110 3900 4150
2021-01-16 05:15 2.26 1120 4980 (2007) 299 (1956) 1600 392 448 577 627 978 2630 3110 3900 4150
2021-01-16 04:15 2.27 1120 4980 (2007) 299 (1956) 1600 392 448 577 627 978 2630 3110 3900 4150
2021-01-16 03:15 2.27 1120 4980 (2007) 299 (1956) 1600 392 448 577 627 978 2630 3110 3900 4150
2021-01-16 02:15 2.27 1120 4980 (2007) 299 (1956) 1600 392 448 577 627 978 2630 3110 3900 4150
2021-01-16 01:15 2.28 1120 4980 (2007) 299 (1956) 1600 392 448 577 627 978 2630 3110 3900 4150
2021-01-16 00:15 2.28 1120 4980 (2007) 299 (1956) 1600 392 448 577 627 978 2630 3110 3900 4150
2021-01-15 23:15 2.28 1120 5460 (2007) 299 (1956) 1640 393 450 591 652 1010 2710 3350 3810 4130
2021-01-15 22:15 2.29 1130 5460 (2007) 299 (1956) 1640 393 450 591 652 1010 2710 3350 3810 4130
2021-01-15 21:15 2.29 1130 5460 (2007) 299 (1956) 1640 393 450 591 652 1010 2710 3350 3810 4130
2021-01-15 20:15 2.30 1130 5460 (2007) 299 (1956) 1640 393 450 591 652 1010 2710 3350 3810 4130
2021-01-15 19:15 2.30 1130 5460 (2007) 299 (1956) 1640 393 450 591 652 1010 2710 3350 3810 4130
2021-01-15 18:15 2.29 1130 5460 (2007) 299 (1956) 1640 393 450 591 652 1010 2710 3350 3810 4130
2021-01-15 17:15 2.31 1130 5460 (2007) 299 (1956) 1640 393 450 591 652 1010 2710 3350 3810 4130
2021-01-15 16:15 2.32 1140 5460 (2007) 299 (1956) 1640 393 450 591 652 1010 2710 3350 3810 4130
2021-01-15 15:15 2.31 1130 5460 (2007) 299 (1956) 1640 393 450 591 652 1010 2710 3350 3810 4130
2021-01-15 14:15 2.32 1140 5460 (2007) 299 (1956) 1640 393 450 591 652 1010 2710 3350 3810 4130
2021-01-15 13:15 2.32 1140 5460 (2007) 299 (1956) 1640 393 450 591 652 1010 2710 3350 3810 4130
2021-01-15 12:15 2.33 1140 5460 (2007) 299 (1956) 1640 393 450 591 652 1010 2710 3350 3810 4130
2021-01-15 11:15 2.33 1140 5460 (2007) 299 (1956) 1640 393 450 591 652 1010 2710 3350 3810 4130
2021-01-15 10:15 2.33 1140 5460 (2007) 299 (1956) 1640 393 450 591 652 1010 2710 3350 3810 4130
2021-01-15 09:15 2.33 1140 5460 (2007) 299 (1956) 1640 393 450 591 652 1010 2710 3350 3810 4130
2021-01-15 08:15 2.34 1150 5460 (2007) 299 (1956) 1640 393 450 591 652 1010 2710 3350 3810 4130
2021-01-15 07:15 2.34 1150 5460 (2007) 299 (1956) 1640 393 450 591 652 1010 2710 3350 3810 4130
2021-01-15 06:15 2.34 1150 5460 (2007) 299 (1956) 1640 393 450 591 652 1010 2710 3350 3810 4130
2021-01-15 05:15 2.34 1150 5460 (2007) 299 (1956) 1640 393 450 591 652 1010 2710 3350 3810 4130
2021-01-15 04:15 2.35 1150 5460 (2007) 299 (1956) 1640 393 450 591 652 1010 2710 3350 3810 4130
2021-01-15 03:15 2.36 1150 5460 (2007) 299 (1956) 1640 393 450 591 652 1010 2710 3350 3810 4130
2021-01-15 02:15 2.36 1150 5460 (2007) 299 (1956) 1640 393 450 591 652 1010 2710 3350 3810 4130
2021-01-15 01:15 2.37 1160 5460 (2007) 299 (1956) 1640 393 450 591 652 1010 2710 3350 3810 4130
2021-01-15 00:15 2.38 1160 5460 (2007) 299 (1956) 1640 393 450 591 652 1010 2710 3350 3810 4130
2021-01-14 23:15 2.38 1160 5580 (2013) 297 (1956) 1670 392 422 619 664 998 3040 3610 3970 4240
2021-01-14 22:15 2.39 1160 5580 (2013) 297 (1956) 1670 392 422 619 664 998 3040 3610 3970 4240
2021-01-14 21:15 2.40 1170 5580 (2013) 297 (1956) 1670 392 422 619 664 998 3040 3610 3970 4240
2021-01-14 20:15 2.41 1170 5580 (2013) 297 (1956) 1670 392 422 619 664 998 3040 3610 3970 4240
2021-01-14 19:15 2.41 1170 5580 (2013) 297 (1956) 1670 392 422 619 664 998 3040 3610 3970 4240
2021-01-14 18:15 2.43 1180 5580 (2013) 297 (1956) 1670 392 422 619 664 998 3040 3610 3970 4240
2021-01-14 17:15 2.44 1180 5580 (2013) 297 (1956) 1670 392 422 619 664 998 3040 3610 3970 4240
2021-01-14 16:15 2.44 1180 5580 (2013) 297 (1956) 1670 392 422 619 664 998 3040 3610 3970 4240
2021-01-14 15:15 2.46 1190 5580 (2013) 297 (1956) 1670 392 422 619 664 998 3040 3610 3970 4240
2021-01-14 14:15 2.47 1190 5580 (2013) 297 (1956) 1670 392 422 619 664 998 3040 3610 3970 4240
2021-01-14 13:15 2.48 1200 5580 (2013) 297 (1956) 1670 392 422 619 664 998 3040 3610 3970 4240
2021-01-14 12:15 2.49 1200 5580 (2013) 297 (1956) 1670 392 422 619 664 998 3040 3610 3970 4240
2021-01-14 11:15 2.50 1200 5580 (2013) 297 (1956) 1670 392 422 619 664 998 3040 3610 3970 4240
2021-01-14 10:15 2.52 1210 5580 (2013) 297 (1956) 1670 392 422 619 664 998 3040 3610 3970 4240
2021-01-14 09:15 2.52 1200 5580 (2013) 297 (1956) 1670 392 422 619 664 998 3040 3610 3970 4240
2021-01-14 08:15 2.54 1200 5580 (2013) 297 (1956) 1670 392 422 619 664 998 3040 3610 3970 4240
2021-01-14 07:15 2.55 1210 5580 (2013) 297 (1956) 1670 392 422 619 664 998 3040 3610 3970 4240
2021-01-14 06:15 2.56 1210 5580 (2013) 297 (1956) 1670 392 422 619 664 998 3040 3610 3970 4240
2021-01-14 05:15 2.58 1220 5580 (2013) 297 (1956) 1670 392 422 619 664 998 3040 3610 3970 4240
2021-01-14 04:15 2.59 1220 5580 (2013) 297 (1956) 1670 392 422 619 664 998 3040 3610 3970 4240
2021-01-14 03:15 2.60 1220 5580 (2013) 297 (1956) 1670 392 422 619 664 998 3040 3610 3970 4240
2021-01-14 02:15 2.59 1220 5580 (2013) 297 (1956) 1670 392 422 619 664 998 3040 3610 3970 4240
2021-01-14 01:15 2.61 1230 5580 (2013) 297 (1956) 1670 392 422 619 664 998 3040 3610 3970 4240
2021-01-14 00:15 2.60 1220 5580 (2013) 297 (1956) 1670 392 422 619 664 998 3040 3610 3970 4240
2021-01-13 23:15 2.62 1230 7130 (2020) 297 (1956) 1620 387 439 618 661 1030 1950 3330 3990 4470
2021-01-13 22:15 2.61 1230 7130 (2020) 297 (1956) 1620 387 439 618 661 1030 1950 3330 3990 4470
2021-01-13 21:15 2.61 1230 7130 (2020) 297 (1956) 1620 387 439 618 661 1030 1950 3330 3990 4470
2021-01-13 20:15 2.63 1230 7130 (2020) 297 (1956) 1620 387 439 618 661 1030 1950 3330 3990 4470
2021-01-13 19:15 2.63 1230 7130 (2020) 297 (1956) 1620 387 439 618 661 1030 1950 3330 3990 4470
2021-01-13 18:15 2.63 1230 7130 (2020) 297 (1956) 1620 387 439 618 661 1030 1950 3330 3990 4470
2021-01-13 17:15 2.64 1240 7130 (2020) 297 (1956) 1620 387 439 618 661 1030 1950 3330 3990 4470
2021-01-13 16:15 2.64 1240 7130 (2020) 297 (1956) 1620 387 439 618 661 1030 1950 3330 3990 4470
2021-01-13 15:15 2.64 1240 7130 (2020) 297 (1956) 1620 387 439 618 661 1030 1950 3330 3990 4470
2021-01-13 14:15 2.64 1240 7130 (2020) 297 (1956) 1620 387 439 618 661 1030 1950 3330 3990 4470
2021-01-13 13:15 2.65 1240 7130 (2020) 297 (1956) 1620 387 439 618 661 1030 1950 3330 3990 4470
2021-01-13 12:15 2.65 1240 7130 (2020) 297 (1956) 1620 387 439 618 661 1030 1950 3330 3990 4470
2021-01-13 11:15 2.66 1250 7130 (2020) 297 (1956) 1620 387 439 618 661 1030 1950 3330 3990 4470
2021-01-13 10:15 2.66 1250 7130 (2020) 297 (1956) 1620 387 439 618 661 1030 1950 3330 3990 4470
2021-01-13 09:15 2.67 1250 7130 (2020) 297 (1956) 1620 387 439 618 661 1030 1950 3330 3990 4470
2021-01-13 08:15 2.67 1250 7130 (2020) 297 (1956) 1620 387 439 618 661 1030 1950 3330 3990 4470
2021-01-13 07:15 2.68 1250 7130 (2020) 297 (1956) 1620 387 439 618 661 1030 1950 3330 3990 4470
2021-01-13 06:15 2.69 1260 7130 (2020) 297 (1956) 1620 387 439 618 661 1030 1950 3330 3990 4470
2021-01-13 05:15 2.70 1260 7130 (2020) 297 (1956) 1620 387 439 618 661 1030 1950 3330 3990 4470
2021-01-13 04:15 2.70 1260 7130 (2020) 297 (1956) 1620 387 439 618 661 1030 1950 3330 3990 4470
2021-01-13 03:15 2.70 1260 7130 (2020) 297 (1956) 1620 387 439 618 661 1030 1950 3330 3990 4470
2021-01-13 02:15 2.72 1270 7130 (2020) 297 (1956) 1620 387 439 618 661 1030 1950 3330 3990 4470
2021-01-13 01:15 2.72 1270 7130 (2020) 297 (1956) 1620 387 439 618 661 1030 1950 3330 3990 4470
2021-01-13 00:15 2.72 1270 7130 (2020) 297 (1956) 1620 387 439 618 661 1030 1950 3330 3990 4470
2021-01-12 23:15 2.73 1270 12100 (2020) 297 (1956) 1640 394 435 643 666 1010 2030 2980 3810 4350
2021-01-12 22:15 2.74 1270 12100 (2020) 297 (1956) 1640 394 435 643 666 1010 2030 2980 3810 4350
2021-01-12 21:15 2.75 1280 12100 (2020) 297 (1956) 1640 394 435 643 666 1010 2030 2980 3810 4350
2021-01-12 20:15 2.76 1280 12100 (2020) 297 (1956) 1640 394 435 643 666 1010 2030 2980 3810 4350
2021-01-12 19:15 2.77 1280 12100 (2020) 297 (1956) 1640 394 435 643 666 1010 2030 2980 3810 4350
2021-01-12 18:15 2.80 1290 12100 (2020) 297 (1956) 1640 394 435 643 666 1010 2030 2980 3810 4350
2021-01-12 17:15 2.81 1300 12100 (2020) 297 (1956) 1640 394 435 643 666 1010 2030 2980 3810 4350
2021-01-12 16:15 2.82 1300 12100 (2020) 297 (1956) 1640 394 435 643 666 1010 2030 2980 3810 4350
2021-01-12 15:15 2.84 1310 12100 (2020) 297 (1956) 1640 394 435 643 666 1010 2030 2980 3810 4350
2021-01-12 14:15 2.85 1310 12100 (2020) 297 (1956) 1640 394 435 643 666 1010 2030 2980 3810 4350
2021-01-12 13:15 2.88 1320 12100 (2020) 297 (1956) 1640 394 435 643 666 1010 2030 2980 3810 4350
2021-01-12 12:15 2.90 1330 12100 (2020) 297 (1956) 1640 394 435 643 666 1010 2030 2980 3810 4350
2021-01-12 11:15 2.92 1330 12100 (2020) 297 (1956) 1640 394 435 643 666 1010 2030 2980 3810 4350
2021-01-12 10:15 2.94 1340 12100 (2020) 297 (1956) 1640 394 435 643 666 1010 2030 2980 3810 4350
2021-01-12 09:15 2.98 1360 12100 (2020) 297 (1956) 1640 394 435 643 666 1010 2030 2980 3810 4350
2021-01-12 08:15 3.02 1370 12100 (2020) 297 (1956) 1640 394 435 643 666 1010 2030 2980 3810 4350
2021-01-12 07:15 3.03 1370 12100 (2020) 297 (1956) 1640 394 435 643 666 1010 2030 2980 3810 4350
2021-01-12 06:15 3.06 1380 12100 (2020) 297 (1956) 1640 394 435 643 666 1010 2030 2980 3810 4350
2021-01-12 05:15 3.08 1390 12100 (2020) 297 (1956) 1640 394 435 643 666 1010 2030 2980 3810 4350
2021-01-12 04:15 3.11 1400 12100 (2020) 297 (1956) 1640 394 435 643 666 1010 2030 2980 3810 4350
2021-01-12 03:15 3.13 1410 12100 (2020) 297 (1956) 1640 394 435 643 666 1010 2030 2980 3810 4350
2021-01-12 02:15 3.15 1410 12100 (2020) 297 (1956) 1640 394 435 643 666 1010 2030 2980 3810 4350
2021-01-12 01:15 3.16 1420 12100 (2020) 297 (1956) 1640 394 435 643 666 1010 2030 2980 3810 4350
2021-01-12 00:15 3.18 1420 12100 (2020) 297 (1956) 1640 394 435 643 666 1010 2030 2980 3810 4350
2021-01-11 23:15 3.19 1430 6370 (2020) 299 (1956) 1650 393 439 648 685 1040 2290 3360 3840 4460
2021-01-11 22:15 3.18 1420 6370 (2020) 299 (1956) 1650 393 439 648 685 1040 2290 3360 3840 4460
2021-01-11 21:15 3.19 1430 6370 (2020) 299 (1956) 1650 393 439 648 685 1040 2290 3360 3840 4460
2021-01-11 20:15 3.20 1430 6370 (2020) 299 (1956) 1650 393 439 648 685 1040 2290 3360 3840 4460
2021-01-11 19:15 3.21 1440 6370 (2020) 299 (1956) 1650 393 439 648 685 1040 2290 3360 3840 4460
2021-01-11 18:15 3.23 1440 6370 (2020) 299 (1956) 1650 393 439 648 685 1040 2290 3360 3840 4460
2021-01-11 17:15 3.21 1440 6370 (2020) 299 (1956) 1650 393 439 648 685 1040 2290 3360 3840 4460
2021-01-11 16:15 3.22 1440 6370 (2020) 299 (1956) 1650 393 439 648 685 1040 2290 3360 3840 4460
2021-01-11 15:15 3.22 1440 6370 (2020) 299 (1956) 1650 393 439 648 685 1040 2290 3360 3840 4460
2021-01-11 14:15 3.23 1440 6370 (2020) 299 (1956) 1650 393 439 648 685 1040 2290 3360 3840 4460
2021-01-11 13:15 3.23 1440 6370 (2020) 299 (1956) 1650 393 439 648 685 1040 2290 3360 3840 4460
2021-01-11 12:15 3.23 1440 6370 (2020) 299 (1956) 1650 393 439 648 685 1040 2290 3360 3840 4460
2021-01-11 11:15 3.25 1450 6370 (2020) 299 (1956) 1650 393 439 648 685 1040 2290 3360 3840 4460
2021-01-11 10:15 3.25 1450 6370 (2020) 299 (1956) 1650 393 439 648 685 1040 2290 3360 3840 4460
2021-01-11 09:15 3.26 1450 6370 (2020) 299 (1956) 1650 393 439 648 685 1040 2290 3360 3840 4460
2021-01-11 08:15 3.26 1450 6370 (2020) 299 (1956) 1650 393 439 648 685 1040 2290 3360 3840 4460
2021-01-11 07:15 3.28 1460 6370 (2020) 299 (1956) 1650 393 439 648 685 1040 2290 3360 3840 4460
2021-01-11 06:15 3.27 1460 6370 (2020) 299 (1956) 1650 393 439 648 685 1040 2290 3360 3840 4460
2021-01-11 05:15 3.28 1460 6370 (2020) 299 (1956) 1650 393 439 648 685 1040 2290 3360 3840 4460
2021-01-11 04:15 3.29 1460 6370 (2020) 299 (1956) 1650 393 439 648 685 1040 2290 3360 3840 4460
2021-01-11 03:15 3.30 1470 6370 (2020) 299 (1956) 1650 393 439 648 685 1040 2290 3360 3840 4460
2021-01-11 02:15 3.30 1470 6370 (2020) 299 (1956) 1650 393 439 648 685 1040 2290 3360 3840 4460
2021-01-11 01:15 3.32 1470 6370 (2020) 299 (1956) 1650 393 439 648 685 1040 2290 3360 3840 4460
2021-01-11 00:15 3.32 1470 6370 (2020) 299 (1956) 1650 393 439 648 685 1040 2290 3360 3840 4460
2021-01-10 23:15 3.33 1480 4610 (2016) 301 (1956) 1560 387 446 638 694 1080 2100 2620 3790 3990
2021-01-10 22:15 3.34 1480 4610 (2016) 301 (1956) 1560 387 446 638 694 1080 2100 2620 3790 3990
2021-01-10 21:15 3.34 1480 4610 (2016) 301 (1956) 1560 387 446 638 694 1080 2100 2620 3790 3990
2021-01-10 20:15 3.34 1480 4610 (2016) 301 (1956) 1560 387 446 638 694 1080 2100 2620 3790 3990
2021-01-10 19:15 3.37 1490 4610 (2016) 301 (1956) 1560 387 446 638 694 1080 2100 2620 3790 3990
2021-01-10 18:15 3.37 1490 4610 (2016) 301 (1956) 1560 387 446 638 694 1080 2100 2620 3790 3990
2021-01-10 17:15 3.38 1490 4610 (2016) 301 (1956) 1560 387 446 638 694 1080 2100 2620 3790 3990
2021-01-10 16:15 3.39 1500 4610 (2016) 301 (1956) 1560 387 446 638 694 1080 2100 2620 3790 3990
2021-01-10 15:15 3.40 1500 4610 (2016) 301 (1956) 1560 387 446 638 694 1080 2100 2620 3790 3990
2021-01-10 14:15 3.42 1510 4610 (2016) 301 (1956) 1560 387 446 638 694 1080 2100 2620 3790 3990
2021-01-10 13:15 3.42 1510 4610 (2016) 301 (1956) 1560 387 446 638 694 1080 2100 2620 3790 3990
2021-01-10 12:15 3.43 1510 4610 (2016) 301 (1956) 1560 387 446 638 694 1080 2100 2620 3790 3990
2021-01-10 11:15 3.45 1520 4610 (2016) 301 (1956) 1560 387 446 638 694 1080 2100 2620 3790 3990
2021-01-10 10:15 3.46 1520 4610 (2016) 301 (1956) 1560 387 446 638 694 1080 2100 2620 3790 3990
2021-01-10 09:15 3.47 1530 4610 (2016) 301 (1956) 1560 387 446 638 694 1080 2100 2620 3790 3990
2021-01-10 08:15 3.49 1530 4610 (2016) 301 (1956) 1560 387 446 638 694 1080 2100 2620 3790 3990
2021-01-10 07:15 3.50 1540 4610 (2016) 301 (1956) 1560 387 446 638 694 1080 2100 2620 3790 3990
2021-01-10 06:15 3.52 1540 4610 (2016) 301 (1956) 1560 387 446 638 694 1080 2100 2620 3790 3990
2021-01-10 05:15 3.54 1550 4610 (2016) 301 (1956) 1560 387 446 638 694 1080 2100 2620 3790 3990
2021-01-10 04:15 3.57 1560 4610 (2016) 301 (1956) 1560 387 446 638 694 1080 2100 2620 3790 3990
2021-01-10 03:15 3.59 1570 4610 (2016) 301 (1956) 1560 387 446 638 694 1080 2100 2620 3790 3990
2021-01-10 02:15 3.62 1580 4610 (2016) 301 (1956) 1560 387 446 638 694 1080 2100 2620 3790 3990
2021-01-10 01:15 3.63 1580 4610 (2016) 301 (1956) 1560 387 446 638 694 1080 2100 2620 3790 3990
2021-01-10 00:15 3.66 1590 4610 (2016) 301 (1956) 1560 387 446 638 694 1080 2100 2620 3790 3990
2021-01-09 23:15 3.68 1600 4460 (2016) 306 (1956) 1540 369 442 618 700 1140 2210 2700 3640 3820
2021-01-09 20:15 3.79 1640 4460 (2016) 306 (1956) 1540 369 442 618 700 1140 2210 2700 3640 3820
2021-01-09 19:15 3.82 1650 4460 (2016) 306 (1956) 1540 369 442 618 700 1140 2210 2700 3640 3820
2021-01-09 18:15 3.87 1670 4460 (2016) 306 (1956) 1540 369 442 618 700 1140 2210 2700 3640 3820
2021-01-09 17:15 3.92 1680 4460 (2016) 306 (1956) 1540 369 442 618 700 1140 2210 2700 3640 3820
2021-01-09 16:15 3.98 1700 4460 (2016) 306 (1956) 1540 369 442 618 700 1140 2210 2700 3640 3820
2021-01-09 15:15 4.03 1720 4460 (2016) 306 (1956) 1540 369 442 618 700 1140 2210 2700 3640 3820
2021-01-09 14:15 4.10 1750 4460 (2016) 306 (1956) 1540 369 442 618 700 1140 2210 2700 3640 3820
2021-01-09 13:15 4.17 1770 4460 (2016) 306 (1956) 1540 369 442 618 700 1140 2210 2700 3640 3820
2021-01-09 12:15 4.25 1800 4460 (2016) 306 (1956) 1540 369 442 618 700 1140 2210 2700 3640 3820
2021-01-09 11:15 4.32 1820 4460 (2016) 306 (1956) 1540 369 442 618 700 1140 2210 2700 3640 3820
2021-01-09 10:15 4.42 1860 4460 (2016) 306 (1956) 1540 369 442 618 700 1140 2210 2700 3640 3820
2021-01-09 09:15 4.52 1900 4460 (2016) 306 (1956) 1540 369 442 618 700 1140 2210 2700 3640 3820
2021-01-09 08:15 4.61 1930 4460 (2016) 306 (1956) 1540 369 442 618 700 1140 2210 2700 3640 3820
2021-01-09 07:15 4.72 1970 4460 (2016) 306 (1956) 1540 369 442 618 700 1140 2210 2700 3640 3820
2021-01-09 06:15 4.82 2000 4460 (2016) 306 (1956) 1540 369 442 618 700 1140 2210 2700 3640 3820
2021-01-09 05:15 4.92 2040 4460 (2016) 306 (1956) 1540 369 442 618 700 1140 2210 2700 3640 3820
2021-01-09 04:15 5.02 2070 4460 (2016) 306 (1956) 1540 369 442 618 700 1140 2210 2700 3640 3820
2021-01-09 03:15 5.11 2100 4460 (2016) 306 (1956) 1540 369 442 618 700 1140 2210 2700 3640 3820
2021-01-09 02:15 5.19 2130 4460 (2016) 306 (1956) 1540 369 442 618 700 1140 2210 2700 3640 3820
2021-01-09 01:15 5.27 2160 4460 (2016) 306 (1956) 1540 369 442 618 700 1140 2210 2700 3640 3820
2021-01-09 00:15 5.31 2180 4460 (2016) 306 (1956) 1540 369 442 618 700 1140 2210 2700 3640 3820
2021-01-08 23:15 5.36 2190 4340 (2016) 318 (1956) 1580 354 445 580 704 1150 2480 2760 3480 3820
2021-01-08 22:15 5.39 2210 4340 (2016) 318 (1956) 1580 354 445 580 704 1150 2480 2760 3480 3820
2021-01-08 21:15 5.41 2210 4340 (2016) 318 (1956) 1580 354 445 580 704 1150 2480 2760 3480 3820
2021-01-08 20:15 5.43 2220 4340 (2016) 318 (1956) 1580 354 445 580 704 1150 2480 2760 3480 3820
2021-01-08 19:15 5.45 2230 4340 (2016) 318 (1956) 1580 354 445 580 704 1150 2480 2760 3480 3820
2021-01-08 18:15 5.47 2230 4340 (2016) 318 (1956) 1580 354 445 580 704 1150 2480 2760 3480 3820
2021-01-08 17:15 5.49 2240 4340 (2016) 318 (1956) 1580 354 445 580 704 1150 2480 2760 3480 3820
2021-01-08 16:15 5.52 2250 4340 (2016) 318 (1956) 1580 354 445 580 704 1150 2480 2760 3480 3820
2021-01-08 15:15 5.55 2260 4340 (2016) 318 (1956) 1580 354 445 580 704 1150 2480 2760 3480 3820
2021-01-08 14:15 5.59 2280 4340 (2016) 318 (1956) 1580 354 445 580 704 1150 2480 2760 3480 3820
2021-01-08 13:15 5.59 2280 4340 (2016) 318 (1956) 1580 354 445 580 704 1150 2480 2760 3480 3820
2021-01-08 12:15 5.63 2290 4340 (2016) 318 (1956) 1580 354 445 580 704 1150 2480 2760 3480 3820
2021-01-08 11:15 5.65 2300 4340 (2016) 318 (1956) 1580 354 445 580 704 1150 2480 2760 3480 3820
2021-01-08 10:15 5.68 2310 4340 (2016) 318 (1956) 1580 354 445 580 704 1150 2480 2760 3480 3820
2021-01-08 09:15 5.73 2330 4340 (2016) 318 (1956) 1580 354 445 580 704 1150 2480 2760 3480 3820
2021-01-08 08:15 5.76 2340 4340 (2016) 318 (1956) 1580 354 445 580 704 1150 2480 2760 3480 3820
2021-01-08 07:15 5.79 2350 4340 (2016) 318 (1956) 1580 354 445 580 704 1150 2480 2760 3480 3820
2021-01-08 06:15 5.83 2360 4340 (2016) 318 (1956) 1580 354 445 580 704 1150 2480 2760 3480 3820
2021-01-08 05:15 5.87 2380 4340 (2016) 318 (1956) 1580 354 445 580 704 1150 2480 2760 3480 3820
2021-01-08 04:15 5.90 2390 4340 (2016) 318 (1956) 1580 354 445 580 704 1150 2480 2760 3480 3820
2021-01-08 03:15 5.93 2400 4340 (2016) 318 (1956) 1580 354 445 580 704 1150 2480 2760 3480 3820
2021-01-08 02:15 5.95 2410 4340 (2016) 318 (1956) 1580 354 445 580 704 1150 2480 2760 3480 3820
2021-01-08 01:15 5.97 2410 4340 (2016) 318 (1956) 1580 354 445 580 704 1150 2480 2760 3480 3820
2021-01-08 00:15 5.98 2420 4340 (2016) 318 (1956) 1580 354 445 580 704 1150 2480 2760 3480 3820
2021-01-07 23:15 5.98 2420 4380 (1991) 321 (1956) 1650 362 448 578 788 1280 2560 2790 3610 3860
2021-01-07 22:15 5.99 2420 4380 (1991) 321 (1956) 1650 362 448 578 788 1280 2560 2790 3610 3860
2021-01-07 21:15 5.99 2420 4380 (1991) 321 (1956) 1650 362 448 578 788 1280 2560 2790 3610 3860
2021-01-07 20:15 5.99 2420 4380 (1991) 321 (1956) 1650 362 448 578 788 1280 2560 2790 3610 3860
2021-01-07 19:15 5.98 2420 4380 (1991) 321 (1956) 1650 362 448 578 788 1280 2560 2790 3610 3860
2021-01-07 18:15 5.97 2410 4380 (1991) 321 (1956) 1650 362 448 578 788 1280 2560 2790 3610 3860
2021-01-07 17:15 5.97 2410 4380 (1991) 321 (1956) 1650 362 448 578 788 1280 2560 2790 3610 3860
2021-01-07 16:15 5.97 2410 4380 (1991) 321 (1956) 1650 362 448 578 788 1280 2560 2790 3610 3860
2021-01-07 15:15 5.96 2410 4380 (1991) 321 (1956) 1650 362 448 578 788 1280 2560 2790 3610 3860
2021-01-07 14:15 5.95 2410 4380 (1991) 321 (1956) 1650 362 448 578 788 1280 2560 2790 3610 3860
2021-01-07 13:15 5.94 2400 4380 (1991) 321 (1956) 1650 362 448 578 788 1280 2560 2790 3610 3860
2021-01-07 12:15 5.95 2410 4380 (1991) 321 (1956) 1650 362 448 578 788 1280 2560 2790 3610 3860
2021-01-07 11:15 5.93 2400 4380 (1991) 321 (1956) 1650 362 448 578 788 1280 2560 2790 3610 3860
2021-01-07 10:15 5.92 2400 4380 (1991) 321 (1956) 1650 362 448 578 788 1280 2560 2790 3610 3860
2021-01-07 09:15 5.92 2400 4380 (1991) 321 (1956) 1650 362 448 578 788 1280 2560 2790 3610 3860
2021-01-07 08:15 5.92 2400 4380 (1991) 321 (1956) 1650 362 448 578 788 1280 2560 2790 3610 3860
2021-01-07 07:15 5.91 2390 4380 (1991) 321 (1956) 1650 362 448 578 788 1280 2560 2790 3610 3860
2021-01-07 06:15 5.92 2400 4380 (1991) 321 (1956) 1650 362 448 578 788 1280 2560 2790 3610 3860
2021-01-07 05:15 5.91 2390 4380 (1991) 321 (1956) 1650 362 448 578 788 1280 2560 2790 3610 3860
2021-01-07 04:15 5.91 2390 4380 (1991) 321 (1956) 1650 362 448 578 788 1280 2560 2790 3610 3860
2021-01-07 03:15 5.91 2390 4380 (1991) 321 (1956) 1650 362 448 578 788 1280 2560 2790 3610 3860
2021-01-07 02:15 5.90 2390 4380 (1991) 321 (1956) 1650 362 448 578 788 1280 2560 2790 3610 3860
2021-01-07 01:15 5.90 2390 4380 (1991) 321 (1956) 1650 362 448 578 788 1280 2560 2790 3610 3860
2021-01-07 00:15 5.88 2380 4380 (1991) 321 (1956) 1650 362 448 578 788 1280 2560 2790 3610 3860
2021-01-06 23:15 5.89 2380 7160 (1993) 314 (1956) 1800 387 450 589 794 1350 2650 2990 3680 4380
2021-01-06 22:15 5.91 2390 7160 (1993) 314 (1956) 1800 387 450 589 794 1350 2650 2990 3680 4380
2021-01-06 21:15 5.88 2380 7160 (1993) 314 (1956) 1800 387 450 589 794 1350 2650 2990 3680 4380
2021-01-06 20:15 5.88 2380 7160 (1993) 314 (1956) 1800 387 450 589 794 1350 2650 2990 3680 4380
2021-01-06 19:15 5.87 2380 7160 (1993) 314 (1956) 1800 387 450 589 794 1350 2650 2990 3680 4380
2021-01-06 18:15 5.86 2370 7160 (1993) 314 (1956) 1800 387 450 589 794 1350 2650 2990 3680 4380
2021-01-06 17:15 5.86 2370 7160 (1993) 314 (1956) 1800 387 450 589 794 1350 2650 2990 3680 4380
2021-01-06 16:15 5.85 2370 7160 (1993) 314 (1956) 1800 387 450 589 794 1350 2650 2990 3680 4380
2021-01-06 15:15 5.85 2370 7160 (1993) 314 (1956) 1800 387 450 589 794 1350 2650 2990 3680 4380
2021-01-06 14:15 5.84 2370 7160 (1993) 314 (1956) 1800 387 450 589 794 1350 2650 2990 3680 4380
2021-01-06 13:15 5.85 2370 7160 (1993) 314 (1956) 1800 387 450 589 794 1350 2650 2990 3680 4380
2021-01-06 12:15 5.82 2360 7160 (1993) 314 (1956) 1800 387 450 589 794 1350 2650 2990 3680 4380
2021-01-06 11:15 5.81 2360 7160 (1993) 314 (1956) 1800 387 450 589 794 1350 2650 2990 3680 4380
2021-01-06 10:15 5.79 2350 7160 (1993) 314 (1956) 1800 387 450 589 794 1350 2650 2990 3680 4380
2021-01-06 09:15 5.79 2350 7160 (1993) 314 (1956) 1800 387 450 589 794 1350 2650 2990 3680 4380
2021-01-06 08:15 5.76 2340 7160 (1993) 314 (1956) 1800 387 450 589 794 1350 2650 2990 3680 4380
2021-01-06 07:15 5.73 2330 7160 (1993) 314 (1956) 1800 387 450 589 794 1350 2650 2990 3680 4380
2021-01-06 06:15 5.72 2320 7160 (1993) 314 (1956) 1800 387 450 589 794 1350 2650 2990 3680 4380
2021-01-06 05:15 5.68 2310 7160 (1993) 314 (1956) 1800 387 450 589 794 1350 2650 2990 3680 4380
2021-01-06 04:15 5.66 2300 7160 (1993) 314 (1956) 1800 387 450 589 794 1350 2650 2990 3680 4380
2021-01-06 03:15 5.63 2290 7160 (1993) 314 (1956) 1800 387 450 589 794 1350 2650 2990 3680 4380
2021-01-06 02:15 5.59 2280 7160 (1993) 314 (1956) 1800 387 450 589 794 1350 2650 2990 3680 4380
2021-01-06 01:15 5.55 2260 7160 (1993) 314 (1956) 1800 387 450 589 794 1350 2650 2990 3680 4380
2021-01-06 00:15 5.50 2240 7160 (1993) 314 (1956) 1800 387 450 589 794 1350 2650 2990 3680 4380
2021-01-05 23:15 5.46 2230 9670 (1950) 294 (1956) 1900 370 464 604 711 1280 2880 3350 3740 4460
2021-01-05 22:15 5.39 2210 9670 (1950) 294 (1956) 1900 370 464 604 711 1280 2880 3350 3740 4460
2021-01-05 21:15 5.32 2180 9670 (1950) 294 (1956) 1900 370 464 604 711 1280 2880 3350 3740 4460
2021-01-05 20:15 5.24 2150 9670 (1950) 294 (1956) 1900 370 464 604 711 1280 2880 3350 3740 4460
2021-01-05 19:15 5.17 2130 9670 (1950) 294 (1956) 1900 370 464 604 711 1280 2880 3350 3740 4460
2021-01-05 18:15 5.06 2090 9670 (1950) 294 (1956) 1900 370 464 604 711 1280 2880 3350 3740 4460
2021-01-05 17:15 4.98 2060 9670 (1950) 294 (1956) 1900 370 464 604 711 1280 2880 3350 3740 4460
2021-01-05 16:15 4.87 2020 9670 (1950) 294 (1956) 1900 370 464 604 711 1280 2880 3350 3740 4460
2021-01-05 15:15 4.74 1970 9670 (1950) 294 (1956) 1900 370 464 604 711 1280 2880 3350 3740 4460
2021-01-05 14:15 4.61 1930 9670 (1950) 294 (1956) 1900 370 464 604 711 1280 2880 3350 3740 4460
2021-01-05 13:15 4.48 1880 9670 (1950) 294 (1956) 1900 370 464 604 711 1280 2880 3350 3740 4460
2021-01-05 12:15 4.34 1830 9670 (1950) 294 (1956) 1900 370 464 604 711 1280 2880 3350 3740 4460
2021-01-05 11:15 4.19 1780 9670 (1950) 294 (1956) 1900 370 464 604 711 1280 2880 3350 3740 4460
2021-01-05 10:15 4.06 1730 9670 (1950) 294 (1956) 1900 370 464 604 711 1280 2880 3350 3740 4460
2021-01-05 09:15 3.93 1690 9670 (1950) 294 (1956) 1900 370 464 604 711 1280 2880 3350 3740 4460
2021-01-05 08:15 3.79 1640 9670 (1950) 294 (1956) 1900 370 464 604 711 1280 2880 3350 3740 4460
2021-01-05 07:15 3.66 1590 9670 (1950) 294 (1956) 1900 370 464 604 711 1280 2880 3350 3740 4460
2021-01-05 06:15 3.55 1550 9670 (1950) 294 (1956) 1900 370 464 604 711 1280 2880 3350 3740 4460
2021-01-05 05:15 3.45 1520 9670 (1950) 294 (1956) 1900 370 464 604 711 1280 2880 3350 3740 4460
2021-01-05 04:15 3.36 1490 9670 (1950) 294 (1956) 1900 370 464 604 711 1280 2880 3350 3740 4460
2021-01-05 03:15 3.30 1470 9670 (1950) 294 (1956) 1900 370 464 604 711 1280 2880 3350 3740 4460
2021-01-05 02:15 3.25 1450 9670 (1950) 294 (1956) 1900 370 464 604 711 1280 2880 3350 3740 4460
2021-01-05 01:15 3.22 1440 9670 (1950) 294 (1956) 1900 370 464 604 711 1280 2880 3350 3740 4460
2021-01-05 00:15 3.21 1440 9670 (1950) 294 (1956) 1900 370 464 604 711 1280 2880 3350 3740 4460
2021-01-04 23:15 3.21 1440 6670 (1950) 287 (1956) 1840 375 461 608 690 1420 2940 3120 3640 3980
2021-01-04 22:15 3.22 1440 6670 (1950) 287 (1956) 1840 375 461 608 690 1420 2940 3120 3640 3980
2021-01-04 21:15 3.24 1450 6670 (1950) 287 (1956) 1840 375 461 608 690 1420 2940 3120 3640 3980
2021-01-04 20:15 3.24 1450 6670 (1950) 287 (1956) 1840 375 461 608 690 1420 2940 3120 3640 3980
2021-01-04 19:15 3.26 1450 6670 (1950) 287 (1956) 1840 375 461 608 690 1420 2940 3120 3640 3980
2021-01-04 18:15 3.28 1460 6670 (1950) 287 (1956) 1840 375 461 608 690 1420 2940 3120 3640 3980
2021-01-04 17:15 3.29 1460 6670 (1950) 287 (1956) 1840 375 461 608 690 1420 2940 3120 3640 3980
2021-01-04 16:15 3.31 1470 6670 (1950) 287 (1956) 1840 375 461 608 690 1420 2940 3120 3640 3980
2021-01-04 15:15 3.33 1480 6670 (1950) 287 (1956) 1840 375 461 608 690 1420 2940 3120 3640 3980
2021-01-04 14:15 3.34 1480 6670 (1950) 287 (1956) 1840 375 461 608 690 1420 2940 3120 3640 3980
2021-01-04 13:15 3.35 1480 6670 (1950) 287 (1956) 1840 375 461 608 690 1420 2940 3120 3640 3980
2021-01-04 12:15 3.37 1490 6670 (1950) 287 (1956) 1840 375 461 608 690 1420 2940 3120 3640 3980
2021-01-04 11:15 3.40 1500 6670 (1950) 287 (1956) 1840 375 461 608 690 1420 2940 3120 3640 3980
2021-01-04 10:15 3.41 1500 6670 (1950) 287 (1956) 1840 375 461 608 690 1420 2940 3120 3640 3980
2021-01-04 09:15 3.43 1510 6670 (1950) 287 (1956) 1840 375 461 608 690 1420 2940 3120 3640 3980
2021-01-04 08:15 3.45 1520 6670 (1950) 287 (1956) 1840 375 461 608 690 1420 2940 3120 3640 3980
2021-01-04 07:15 3.47 1530 6670 (1950) 287 (1956) 1840 375 461 608 690 1420 2940 3120 3640 3980
2021-01-04 06:15 3.49 1530 6670 (1950) 287 (1956) 1840 375 461 608 690 1420 2940 3120 3640 3980
2021-01-04 05:15 3.51 1540 6670 (1950) 287 (1956) 1840 375 461 608 690 1420 2940 3120 3640 3980
2021-01-04 04:15 3.52 1540 6670 (1950) 287 (1956) 1840 375 461 608 690 1420 2940 3120 3640 3980
2021-01-04 03:15 3.55 1550 6670 (1950) 287 (1956) 1840 375 461 608 690 1420 2940 3120 3640 3980
2021-01-04 02:15 3.57 1560 6670 (1950) 287 (1956) 1840 375 461 608 690 1420 2940 3120 3640 3980
2021-01-04 01:15 3.59 1570 6670 (1950) 287 (1956) 1840 375 461 608 690 1420 2940 3120 3640 3980
2021-01-04 00:15 3.61 1570 6670 (1950) 287 (1956) 1840 375 461 608 690 1420 2940 3120 3640 3980
2021-01-03 23:15 3.64 1590 6060 (1966) 289 (1956) 1750 386 456 582 660 1310 2410 3310 3690 3810
2021-01-03 22:15 3.66 1590 6060 (1966) 289 (1956) 1750 386 456 582 660 1310 2410 3310 3690 3810
2021-01-03 21:15 3.68 1600 6060 (1966) 289 (1956) 1750 386 456 582 660 1310 2410 3310 3690 3810
2021-01-03 20:15 3.71 1610 6060 (1966) 289 (1956) 1750 386 456 582 660 1310 2410 3310 3690 3810
2021-01-03 19:15 3.73 1620 6060 (1966) 289 (1956) 1750 386 456 582 660 1310 2410 3310 3690 3810
2021-01-03 18:15 3.76 1630 6060 (1966) 289 (1956) 1750 386 456 582 660 1310 2410 3310 3690 3810
2021-01-03 17:15 3.79 1640 6060 (1966) 289 (1956) 1750 386 456 582 660 1310 2410 3310 3690 3810
2021-01-03 16:15 3.83 1650 6060 (1966) 289 (1956) 1750 386 456 582 660 1310 2410 3310 3690 3810
2021-01-03 15:15 3.85 1660 6060 (1966) 289 (1956) 1750 386 456 582 660 1310 2410 3310 3690 3810
2021-01-03 14:15 3.89 1670 6060 (1966) 289 (1956) 1750 386 456 582 660 1310 2410 3310 3690 3810
2021-01-03 13:15 3.91 1680 6060 (1966) 289 (1956) 1750 386 456 582 660 1310 2410 3310 3690 3810
2021-01-03 12:15 3.94 1690 6060 (1966) 289 (1956) 1750 386 456 582 660 1310 2410 3310 3690 3810
2021-01-03 11:15 3.98 1700 6060 (1966) 289 (1956) 1750 386 456 582 660 1310 2410 3310 3690 3810
2021-01-03 10:15 4.01 1710 6060 (1966) 289 (1956) 1750 386 456 582 660 1310 2410 3310 3690 3810
2021-01-03 09:15 4.04 1730 6060 (1966) 289 (1956) 1750 386 456 582 660 1310 2410 3310 3690 3810
2021-01-03 08:15 4.09 1740 6060 (1966) 289 (1956) 1750 386 456 582 660 1310 2410 3310 3690 3810
2021-01-03 07:15 4.11 1750 6060 (1966) 289 (1956) 1750 386 456 582 660 1310 2410 3310 3690 3810
2021-01-03 06:15 4.15 1760 6060 (1966) 289 (1956) 1750 386 456 582 660 1310 2410 3310 3690 3810
2021-01-03 05:15 4.19 1780 6060 (1966) 289 (1956) 1750 386 456 582 660 1310 2410 3310 3690 3810
2021-01-03 04:15 4.23 1790 6060 (1966) 289 (1956) 1750 386 456 582 660 1310 2410 3310 3690 3810
2021-01-03 03:15 4.27 1810 6060 (1966) 289 (1956) 1750 386 456 582 660 1310 2410 3310 3690 3810
2021-01-03 02:15 4.31 1820 6060 (1966) 289 (1956) 1750 386 456 582 660 1310 2410 3310 3690 3810
2021-01-03 01:15 4.35 1830 6060 (1966) 289 (1956) 1750 386 456 582 660 1310 2410 3310 3690 3810
2021-01-03 00:15 4.40 1850 6060 (1966) 289 (1956) 1750 386 456 582 660 1310 2410 3310 3690 3810
2021-01-02 23:15 4.43 1860 7590 (1966) 292 (1956) 1790 382 465 586 613 1280 2550 3230 3780 3910
2021-01-02 22:15 4.48 1880 7590 (1966) 292 (1956) 1790 382 465 586 613 1280 2550 3230 3780 3910
2021-01-02 21:15 4.53 1900 7590 (1966) 292 (1956) 1790 382 465 586 613 1280 2550 3230 3780 3910
2021-01-02 20:15 4.56 1910 7590 (1966) 292 (1956) 1790 382 465 586 613 1280 2550 3230 3780 3910
2021-01-02 19:15 4.62 1930 7590 (1966) 292 (1956) 1790 382 465 586 613 1280 2550 3230 3780 3910
2021-01-02 18:15 4.66 1940 7590 (1966) 292 (1956) 1790 382 465 586 613 1280 2550 3230 3780 3910
2021-01-02 17:15 4.70 1960 7590 (1966) 292 (1956) 1790 382 465 586 613 1280 2550 3230 3780 3910
2021-01-02 16:15 4.75 1980 7590 (1966) 292 (1956) 1790 382 465 586 613 1280 2550 3230 3780 3910
2021-01-02 15:15 4.79 1990 7590 (1966) 292 (1956) 1790 382 465 586 613 1280 2550 3230 3780 3910
2021-01-02 14:15 4.84 2010 7590 (1966) 292 (1956) 1790 382 465 586 613 1280 2550 3230 3780 3910
2021-01-02 13:15 4.90 2030 7590 (1966) 292 (1956) 1790 382 465 586 613 1280 2550 3230 3780 3910
2021-01-02 12:15 4.93 2040 7590 (1966) 292 (1956) 1790 382 465 586 613 1280 2550 3230 3780 3910
2021-01-02 11:15 5.00 2070 7590 (1966) 292 (1956) 1790 382 465 586 613 1280 2550 3230 3780 3910
2021-01-02 10:15 5.03 2080 7590 (1966) 292 (1956) 1790 382 465 586 613 1280 2550 3230 3780 3910
2021-01-02 09:15 5.09 2100 7590 (1966) 292 (1956) 1790 382 465 586 613 1280 2550 3230 3780 3910
2021-01-02 08:15 5.14 2120 7590 (1966) 292 (1956) 1790 382 465 586 613 1280 2550 3230 3780 3910
2021-01-02 07:15 5.19 2130 7590 (1966) 292 (1956) 1790 382 465 586 613 1280 2550 3230 3780 3910
2021-01-02 06:15 5.24 2150 7590 (1966) 292 (1956) 1790 382 465 586 613 1280 2550 3230 3780 3910
2021-01-02 05:15 5.27 2160 7590 (1966) 292 (1956) 1790 382 465 586 613 1280 2550 3230 3780 3910
2021-01-02 04:15 5.33 2180 7590 (1966) 292 (1956) 1790 382 465 586 613 1280 2550 3230 3780 3910
2021-01-02 03:15 5.36 2190 7590 (1966) 292 (1956) 1790 382 465 586 613 1280 2550 3230 3780 3910
2021-01-02 02:15 5.41 2210 7590 (1966) 292 (1956) 1790 382 465 586 613 1280 2550 3230 3780 3910
2021-01-02 01:15 5.44 2220 7590 (1966) 292 (1956) 1790 382 465 586 613 1280 2550 3230 3780 3910
2021-01-02 00:15 5.46 2230 7590 (1966) 292 (1956) 1790 382 465 586 613 1280 2550 3230 3780 3910
2021-01-01 23:15 5.48 2240 5470 (1985) 294 (1956) 1830 387 462 602 664 1320 3010 3590 3850 4320
2021-01-01 22:15 5.49 2240 5470 (1985) 294 (1956) 1830 387 462 602 664 1320 3010 3590 3850 4320
2021-01-01 21:15 5.49 2240 5470 (1985) 294 (1956) 1830 387 462 602 664 1320 3010 3590 3850 4320
2021-01-01 20:15 5.47 2230 5470 (1985) 294 (1956) 1830 387 462 602 664 1320 3010 3590 3850 4320
2021-01-01 19:15 5.43 2220 5470 (1985) 294 (1956) 1830 387 462 602 664 1320 3010 3590 3850 4320
2021-01-01 18:15 5.38 2200 5470 (1985) 294 (1956) 1830 387 462 602 664 1320 3010 3590 3850 4320
2021-01-01 17:15 5.30 2170 5470 (1985) 294 (1956) 1830 387 462 602 664 1320 3010 3590 3850 4320
2021-01-01 16:15 5.19 2130 5470 (1985) 294 (1956) 1830 387 462 602 664 1320 3010 3590 3850 4320
2021-01-01 15:15 5.05 2080 5470 (1985) 294 (1956) 1830 387 462 602 664 1320 3010 3590 3850 4320
2021-01-01 14:15 4.86 2020 5470 (1985) 294 (1956) 1830 387 462 602 664 1320 3010 3590 3850 4320
2021-01-01 13:15 4.63 1930 5470 (1985) 294 (1956) 1830 387 462 602 664 1320 3010 3590 3850 4320
2021-01-01 12:15 4.36 1840 5470 (1985) 294 (1956) 1830 387 462 602 664 1320 3010 3590 3850 4320
2021-01-01 11:15 4.04 1730 5470 (1985) 294 (1956) 1830 387 462 602 664 1320 3010 3590 3850 4320
2021-01-01 10:15 3.67 1600 5470 (1985) 294 (1956) 1830 387 462 602 664 1320 3010 3590 3850 4320
2021-01-01 09:15 3.34 1480 5470 (1985) 294 (1956) 1830 387 462 602 664 1320 3010 3590 3850 4320
2021-01-01 08:15 3.06 1380 5470 (1985) 294 (1956) 1830 387 462 602 664 1320 3010 3590 3850 4320
2021-01-01 07:15 2.87 1320 5470 (1985) 294 (1956) 1830 387 462 602 664 1320 3010 3590 3850 4320
2021-01-01 06:15 2.72 1270 5470 (1985) 294 (1956) 1830 387 462 602 664 1320 3010 3590 3850 4320
2021-01-01 05:15 2.65 1240 5470 (1985) 294 (1956) 1830 387 462 602 664 1320 3010 3590 3850 4320
2021-01-01 04:15 2.47 1180 5470 (1985) 294 (1956) 1830 387 462 602 664 1320 3010 3590 3850 4320
2021-01-01 03:15 2.41 1160 5470 (1985) 294 (1956) 1830 387 462 602 664 1320 3010 3590 3850 4320
2021-01-01 02:15 2.36 1140 5470 (1985) 294 (1956) 1830 387 462 602 664 1320 3010 3590 3850 4320
2021-01-01 01:15 2.36 1140 5470 (1985) 294 (1956) 1830 387 462 602 664 1320 3010 3590 3850 4320
2021-01-01 00:15 2.38 1150 5470 (1985) 294 (1956) 1830 387 462 602 664 1320 3010 3590 3850 4320
2020-12-31 23:15 2.38 1150 6510 (1991) 297 (1956) 1810 384 459 601 635 1320 2930 3460 3860 4300
2020-12-31 22:15 2.38 1150 6510 (1991) 297 (1956) 1810 384 459 601 635 1320 2930 3460 3860 4300
2020-12-31 21:15 2.41 1160 6510 (1991) 297 (1956) 1810 384 459 601 635 1320 2930 3460 3860 4300
2020-12-31 20:15 2.42 1160 6510 (1991) 297 (1956) 1810 384 459 601 635 1320 2930 3460 3860 4300
2020-12-31 19:15 2.43 1170 6510 (1991) 297 (1956) 1810 384 459 601 635 1320 2930 3460 3860 4300
2020-12-31 18:15 2.44 1170 6510 (1991) 297 (1956) 1810 384 459 601 635 1320 2930 3460 3860 4300
2020-12-31 17:15 2.46 1180 6510 (1991) 297 (1956) 1810 384 459 601 635 1320 2930 3460 3860 4300
2020-12-31 16:15 2.47 1180 6510 (1991) 297 (1956) 1810 384 459 601 635 1320 2930 3460 3860 4300
2020-12-31 15:15 2.48 1180 6510 (1991) 297 (1956) 1810 384 459 601 635 1320 2930 3460 3860 4300
2020-12-31 14:15 2.49 1190 6510 (1991) 297 (1956) 1810 384 459 601 635 1320 2930 3460 3860 4300
2020-12-31 13:15 2.49 1190 6510 (1991) 297 (1956) 1810 384 459 601 635 1320 2930 3460 3860 4300
2020-12-31 12:15 2.49 1190 6510 (1991) 297 (1956) 1810 384 459 601 635 1320 2930 3460 3860 4300
2020-12-31 11:15 2.50 1190 6510 (1991) 297 (1956) 1810 384 459 601 635 1320 2930 3460 3860 4300
2020-12-31 10:15 2.47 1180 6510 (1991) 297 (1956) 1810 384 459 601 635 1320 2930 3460 3860 4300
2020-12-31 09:15 2.46 1180 6510 (1991) 297 (1956) 1810 384 459 601 635 1320 2930 3460 3860 4300
2020-12-31 08:15 2.43 1170 6510 (1991) 297 (1956) 1810 384 459 601 635 1320 2930 3460 3860 4300
2020-12-31 07:15 2.41 1160 6510 (1991) 297 (1956) 1810 384 459 601 635 1320 2930 3460 3860 4300
2020-12-31 06:15 2.38 1150 6510 (1991) 297 (1956) 1810 384 459 601 635 1320 2930 3460 3860 4300
2020-12-31 05:15 2.35 1140 6510 (1991) 297 (1956) 1810 384 459 601 635 1320 2930 3460 3860 4300
2020-12-31 04:15 2.33 1130 6510 (1991) 297 (1956) 1810 384 459 601 635 1320 2930 3460 3860 4300
2020-12-31 03:15 2.30 1120 6510 (1991) 297 (1956) 1810 384 459 601 635 1320 2930 3460 3860 4300
2020-12-31 02:15 2.28 1110 6510 (1991) 297 (1956) 1810 384 459 601 635 1320 2930 3460 3860 4300
2020-12-31 01:15 2.27 1110 6510 (1991) 297 (1956) 1810 384 459 601 635 1320 2930 3460 3860 4300
2020-12-31 00:15 2.24 1100 6510 (1991) 297 (1956) 1810 384 459 601 635 1320 2930 3460 3860 4300
2020-12-30 23:15 2.22 1090 9600 (2016) 299 (1956) 1830 379 463 632 646 1220 2790 3080 3910 4110
2020-12-30 22:15 2.19 1080 9600 (2016) 299 (1956) 1830 379 463 632 646 1220 2790 3080 3910 4110
2020-12-30 21:15 2.15 1070 9600 (2016) 299 (1956) 1830 379 463 632 646 1220 2790 3080 3910 4110
2020-12-30 20:15 2.10 1050 9600 (2016) 299 (1956) 1830 379 463 632 646 1220 2790 3080 3910 4110
2020-12-30 19:15 2.04 1030 9600 (2016) 299 (1956) 1830 379 463 632 646 1220 2790 3080 3910 4110
2020-12-30 18:15 1.99 1020 9600 (2016) 299 (1956) 1830 379 463 632 646 1220 2790 3080 3910 4110
2020-12-30 17:15 1.95 1000 9600 (2016) 299 (1956) 1830 379 463 632 646 1220 2790 3080 3910 4110
2020-12-30 16:15 1.91 989 9600 (2016) 299 (1956) 1830 379 463 632 646 1220 2790 3080 3910 4110
2020-12-30 15:15 1.87 975 9600 (2016) 299 (1956) 1830 379 463 632 646 1220 2790 3080 3910 4110
2020-12-30 14:15 1.84 964 9600 (2016) 299 (1956) 1830 379 463 632 646 1220 2790 3080 3910 4110
2020-12-30 13:15 1.81 954 9600 (2016) 299 (1956) 1830 379 463 632 646 1220 2790 3080 3910 4110
2020-12-30 12:15 1.80 951 9600 (2016) 299 (1956) 1830 379 463 632 646 1220 2790 3080 3910 4110
2020-12-30 11:15 1.77 940 9600 (2016) 299 (1956) 1830 379 463 632 646 1220 2790 3080 3910 4110
2020-12-30 10:15 1.76 937 9600 (2016) 299 (1956) 1830 379 463 632 646 1220 2790 3080 3910 4110
2020-12-30 09:15 1.73 927 9600 (2016) 299 (1956) 1830 379 463 632 646 1220 2790 3080 3910 4110
2020-12-30 08:15 1.70 916 9600 (2016) 299 (1956) 1830 379 463 632 646 1220 2790 3080 3910 4110
2020-12-30 07:15 1.69 913 9600 (2016) 299 (1956) 1830 379 463 632 646 1220 2790 3080 3910 4110
2020-12-30 06:15 1.67 906 9600 (2016) 299 (1956) 1830 379 463 632 646 1220 2790 3080 3910 4110
2020-12-30 05:15 1.67 906 9600 (2016) 299 (1956) 1830 379 463 632 646 1220 2790 3080 3910 4110
2020-12-30 04:15 1.67 906 9600 (2016) 299 (1956) 1830 379 463 632 646 1220 2790 3080 3910 4110
2020-12-30 03:15 1.67 906 9600 (2016) 299 (1956) 1830 379 463 632 646 1220 2790 3080 3910 4110
2020-12-30 02:15 1.67 906 9600 (2016) 299 (1956) 1830 379 463 632 646 1220 2790 3080 3910 4110
2020-12-30 01:15 1.67 906 9600 (2016) 299 (1956) 1830 379 463 632 646 1220 2790 3080 3910 4110
2020-12-30 00:15 1.68 910 9600 (2016) 299 (1956) 1830 379 463 632 646 1220 2790 3080 3910 4110
2020-12-29 23:15 1.69 913 13100 (2016) 299 (1956) 1820 369 458 609 661 1220 2810 3150 3850 3970
2020-12-29 22:15 1.68 910 13100 (2016) 299 (1956) 1820 369 458 609 661 1220 2810 3150 3850 3970
2020-12-29 21:15 1.69 913 13100 (2016) 299 (1956) 1820 369 458 609 661 1220 2810 3150 3850 3970
2020-12-29 20:15 1.70 916 13100 (2016) 299 (1956) 1820 369 458 609 661 1220 2810 3150 3850 3970
2020-12-29 19:15 1.69 913 13100 (2016) 299 (1956) 1820 369 458 609 661 1220 2810 3150 3850 3970
2020-12-29 18:15 1.70 916 13100 (2016) 299 (1956) 1820 369 458 609 661 1220 2810 3150 3850 3970
2020-12-29 17:15 1.72 923 13100 (2016) 299 (1956) 1820 369 458 609 661 1220 2810 3150 3850 3970
2020-12-29 16:15 1.71 920 13100 (2016) 299 (1956) 1820 369 458 609 661 1220 2810 3150 3850 3970
2020-12-29 15:15 1.73 927 13100 (2016) 299 (1956) 1820 369 458 609 661 1220 2810 3150 3850 3970
2020-12-29 14:15 1.74 930 13100 (2016) 299 (1956) 1820 369 458 609 661 1220 2810 3150 3850 3970
2020-12-29 13:15 1.74 930 13100 (2016) 299 (1956) 1820 369 458 609 661 1220 2810 3150 3850 3970
2020-12-29 12:15 1.76 937 13100 (2016) 299 (1956) 1820 369 458 609 661 1220 2810 3150 3850 3970
2020-12-29 11:15 1.77 940 13100 (2016) 299 (1956) 1820 369 458 609 661 1220 2810 3150 3850 3970
2020-12-29 10:15 1.77 940 13100 (2016) 299 (1956) 1820 369 458 609 661 1220 2810 3150 3850 3970
2020-12-29 09:15 1.78 944 13100 (2016) 299 (1956) 1820 369 458 609 661 1220 2810 3150 3850 3970
2020-12-29 08:15 1.81 954 13100 (2016) 299 (1956) 1820 369 458 609 661 1220 2810 3150 3850 3970
2020-12-29 07:15 1.82 958 13100 (2016) 299 (1956) 1820 369 458 609 661 1220 2810 3150 3850 3970
2020-12-29 06:15 1.82 958 13100 (2016) 299 (1956) 1820 369 458 609 661 1220 2810 3150 3850 3970
2020-12-29 05:15 1.82 958 13100 (2016) 299 (1956) 1820 369 458 609 661 1220 2810 3150 3850 3970
2020-12-29 04:15 1.83 961 13100 (2016) 299 (1956) 1820 369 458 609 661 1220 2810 3150 3850 3970
2020-12-29 03:15 1.84 964 13100 (2016) 299 (1956) 1820 369 458 609 661 1220 2810 3150 3850 3970
2020-12-29 02:15 1.84 964 13100 (2016) 299 (1956) 1820 369 458 609 661 1220 2810 3150 3850 3970
2020-12-29 01:15 1.83 961 13100 (2016) 299 (1956) 1820 369 458 609 661 1220 2810 3150 3850 3970
2020-12-29 00:15 1.84 964 13100 (2016) 299 (1956) 1820 369 458 609 661 1220 2810 3150 3850 3970
2020-12-28 23:15 1.85 968 9740 (2016) 301 (1956) 1740 354 457 615 666 980 2840 3020 3850 4080
2020-12-28 22:15 1.84 964 9740 (2016) 301 (1956) 1740 354 457 615 666 980 2840 3020 3850 4080
2020-12-28 21:15 1.84 964 9740 (2016) 301 (1956) 1740 354 457 615 666 980 2840 3020 3850 4080
2020-12-28 20:15 1.84 964 9740 (2016) 301 (1956) 1740 354 457 615 666 980 2840 3020 3850 4080
2020-12-28 19:15 1.86 971 9740 (2016) 301 (1956) 1740 354 457 615 666 980 2840 3020 3850 4080
2020-12-28 18:15 1.85 968 9740 (2016) 301 (1956) 1740 354 457 615 666 980 2840 3020 3850 4080
2020-12-28 17:15 1.87 975 9740 (2016) 301 (1956) 1740 354 457 615 666 980 2840 3020 3850 4080
2020-12-28 16:15 1.86 971 9740 (2016) 301 (1956) 1740 354 457 615 666 980 2840 3020 3850 4080
2020-12-28 15:15 1.87 975 9740 (2016) 301 (1956) 1740 354 457 615 666 980 2840 3020 3850 4080
2020-12-28 14:15 1.87 975 9740 (2016) 301 (1956) 1740 354 457 615 666 980 2840 3020 3850 4080
2020-12-28 13:15 1.87 975 9740 (2016) 301 (1956) 1740 354 457 615 666 980 2840 3020 3850 4080
2020-12-28 12:15 1.87 975 9740 (2016) 301 (1956) 1740 354 457 615 666 980 2840 3020 3850 4080
2020-12-28 11:15 1.88 978 9740 (2016) 301 (1956) 1740 354 457 615 666 980 2840 3020 3850 4080
2020-12-28 10:15 1.88 978 9740 (2016) 301 (1956) 1740 354 457 615 666 980 2840 3020 3850 4080
2020-12-28 09:15 1.87 975 9740 (2016) 301 (1956) 1740 354 457 615 666 980 2840 3020 3850 4080
2020-12-28 08:15 1.88 978 9740 (2016) 301 (1956) 1740 354 457 615 666 980 2840 3020 3850 4080
2020-12-28 07:15 1.87 975 9740 (2016) 301 (1956) 1740 354 457 615 666 980 2840 3020 3850 4080
2020-12-28 06:15 1.87 975 9740 (2016) 301 (1956) 1740 354 457 615 666 980 2840 3020 3850 4080
2020-12-28 05:15 1.88 978 9740 (2016) 301 (1956) 1740 354 457 615 666 980 2840 3020 3850 4080
2020-12-28 04:15 1.89 982 9740 (2016) 301 (1956) 1740 354 457 615 666 980 2840 3020 3850 4080
2020-12-28 03:15 1.88 978 9740 (2016) 301 (1956) 1740 354 457 615 666 980 2840 3020 3850 4080
2020-12-28 02:15 1.88 978 9740 (2016) 301 (1956) 1740 354 457 615 666 980 2840 3020 3850 4080
2020-12-28 01:15 1.88 978 9740 (2016) 301 (1956) 1740 354 457 615 666 980 2840 3020 3850 4080
2020-12-28 00:15 1.90 985 9740 (2016) 301 (1956) 1740 354 457 615 666 980 2840 3020 3850 4080
2020-12-27 23:15 1.89 982 6640 (1988) 301 (1956) 1640 356 460 579 628 949 2730 2980 3740 4170
2020-12-27 22:15 1.89 982 6640 (1988) 301 (1956) 1640 356 460 579 628 949 2730 2980 3740 4170
2020-12-27 21:15 1.89 982 6640 (1988) 301 (1956) 1640 356 460 579 628 949 2730 2980 3740 4170
2020-12-27 20:15 1.90 985 6640 (1988) 301 (1956) 1640 356 460 579 628 949 2730 2980 3740 4170
2020-12-27 19:15 1.90 985 6640 (1988) 301 (1956) 1640 356 460 579 628 949 2730 2980 3740 4170
2020-12-27 18:15 1.90 985 6640 (1988) 301 (1956) 1640 356 460 579 628 949 2730 2980 3740 4170
2020-12-27 17:15 1.90 985 6640 (1988) 301 (1956) 1640 356 460 579 628 949 2730 2980 3740 4170
2020-12-27 16:15 1.90 985 6640 (1988) 301 (1956) 1640 356 460 579 628 949 2730 2980 3740 4170
2020-12-27 15:15 1.89 982 6640 (1988) 301 (1956) 1640 356 460 579 628 949 2730 2980 3740 4170
2020-12-27 14:15 1.89 982 6640 (1988) 301 (1956) 1640 356 460 579 628 949 2730 2980 3740 4170
2020-12-27 13:15 1.90 985 6640 (1988) 301 (1956) 1640 356 460 579 628 949 2730 2980 3740 4170
2020-12-27 12:15 1.90 985 6640 (1988) 301 (1956) 1640 356 460 579 628 949 2730 2980 3740 4170
2020-12-27 11:15 1.90 985 6640 (1988) 301 (1956) 1640 356 460 579 628 949 2730 2980 3740 4170
2020-12-27 10:15 1.90 985 6640 (1988) 301 (1956) 1640 356 460 579 628 949 2730 2980 3740 4170
2020-12-27 09:15 1.90 985 6640 (1988) 301 (1956) 1640 356 460 579 628 949 2730 2980 3740 4170
2020-12-27 08:15 1.89 982 6640 (1988) 301 (1956) 1640 356 460 579 628 949 2730 2980 3740 4170
2020-12-27 07:15 1.90 985 6640 (1988) 301 (1956) 1640 356 460 579 628 949 2730 2980 3740 4170
2020-12-27 06:15 1.91 989 6640 (1988) 301 (1956) 1640 356 460 579 628 949 2730 2980 3740 4170
2020-12-27 05:15 1.90 985 6640 (1988) 301 (1956) 1640 356 460 579 628 949 2730 2980 3740 4170
2020-12-27 04:15 1.90 985 6640 (1988) 301 (1956) 1640 356 460 579 628 949 2730 2980 3740 4170
2020-12-27 03:15 1.91 989 6640 (1988) 301 (1956) 1640 356 460 579 628 949 2730 2980 3740 4170
2020-12-27 02:15 1.90 985 6640 (1988) 301 (1956) 1640 356 460 579 628 949 2730 2980 3740 4170
2020-12-27 01:15 1.90 985 6640 (1988) 301 (1956) 1640 356 460 579 628 949 2730 2980 3740 4170
2020-12-27 00:15 1.90 985 6640 (1988) 301 (1956) 1640 356 460 579 628 949 2730 2980 3740 4170
2020-12-26 23:15 1.90 985 7420 (2010) 308 (1954) 1670 356 464 558 624 937 2740 3050 3710 4670
2020-12-26 22:15 1.91 989 7420 (2010) 308 (1954) 1670 356 464 558 624 937 2740 3050 3710 4670
2020-12-26 21:15 1.92 992 7420 (2010) 308 (1954) 1670 356 464 558 624 937 2740 3050 3710 4670
2020-12-26 20:15 1.91 989 7420 (2010) 308 (1954) 1670 356 464 558 624 937 2740 3050 3710 4670
2020-12-26 19:15 1.91 989 7420 (2010) 308 (1954) 1670 356 464 558 624 937 2740 3050 3710 4670
2020-12-26 18:15 1.91 989 7420 (2010) 308 (1954) 1670 356 464 558 624 937 2740 3050 3710 4670
2020-12-26 17:15 1.91 989 7420 (2010) 308 (1954) 1670 356 464 558 624 937 2740 3050 3710 4670
2020-12-26 16:15 1.91 989 7420 (2010) 308 (1954) 1670 356 464 558 624 937 2740 3050 3710 4670
2020-12-26 15:15 1.92 992 7420 (2010) 308 (1954) 1670 356 464 558 624 937 2740 3050 3710 4670
2020-12-26 14:15 1.92 992 7420 (2010) 308 (1954) 1670 356 464 558 624 937 2740 3050 3710 4670
2020-12-26 13:15 1.92 992 7420 (2010) 308 (1954) 1670 356 464 558 624 937 2740 3050 3710 4670
2020-12-26 12:15 1.91 989 7420 (2010) 308 (1954) 1670 356 464 558 624 937 2740 3050 3710 4670
2020-12-26 11:15 1.91 989 7420 (2010) 308 (1954) 1670 356 464 558 624 937 2740 3050 3710 4670
2020-12-26 10:15 1.92 992 7420 (2010) 308 (1954) 1670 356 464 558 624 937 2740 3050 3710 4670
2020-12-26 09:15 1.92 992 7420 (2010) 308 (1954) 1670 356 464 558 624 937 2740 3050 3710 4670
2020-12-26 08:15 1.92 992 7420 (2010) 308 (1954) 1670 356 464 558 624 937 2740 3050 3710 4670
2020-12-26 07:15 1.92 992 7420 (2010) 308 (1954) 1670 356 464 558 624 937 2740 3050 3710 4670
2020-12-26 06:15 1.92 992 7420 (2010) 308 (1954) 1670 356 464 558 624 937 2740 3050 3710 4670
2020-12-26 05:15 1.92 992 7420 (2010) 308 (1954) 1670 356 464 558 624 937 2740 3050 3710 4670
2020-12-26 04:15 1.92 992 7420 (2010) 308 (1954) 1670 356 464 558 624 937 2740 3050 3710 4670
2020-12-26 03:15 1.93 996 7420 (2010) 308 (1954) 1670 356 464 558 624 937 2740 3050 3710 4670
2020-12-26 02:15 1.92 992 7420 (2010) 308 (1954) 1670 356 464 558 624 937 2740 3050 3710 4670
2020-12-26 01:15 1.94 999 7420 (2010) 308 (1954) 1670 356 464 558 624 937 2740 3050 3710 4670
2020-12-26 00:15 1.94 999 7420 (2010) 308 (1954) 1670 356 464 558 624 937 2740 3050 3710 4670
2020-12-25 23:15 1.94 999 9000 (1983) 321 (1956) 1680 359 466 584 690 1010 2520 2750 3690 4440
2020-12-25 22:15 1.94 999 9000 (1983) 321 (1956) 1680 359 466 584 690 1010 2520 2750 3690 4440
2020-12-25 21:15 1.94 999 9000 (1983) 321 (1956) 1680 359 466 584 690 1010 2520 2750 3690 4440
2020-12-25 20:15 1.95 1000 9000 (1983) 321 (1956) 1680 359 466 584 690 1010 2520 2750 3690 4440
2020-12-25 19:15 1.94 999 9000 (1983) 321 (1956) 1680 359 466 584 690 1010 2520 2750 3690 4440
2020-12-25 18:15 1.94 999 9000 (1983) 321 (1956) 1680 359 466 584 690 1010 2520 2750 3690 4440
2020-12-25 17:15 1.95 1000 9000 (1983) 321 (1956) 1680 359 466 584 690 1010 2520 2750 3690 4440
2020-12-25 16:15 1.96 1010 9000 (1983) 321 (1956) 1680 359 466 584 690 1010 2520 2750 3690 4440
2020-12-25 15:15 1.96 1010 9000 (1983) 321 (1956) 1680 359 466 584 690 1010 2520 2750 3690 4440
2020-12-25 14:15 1.97 1010 9000 (1983) 321 (1956) 1680 359 466 584 690 1010 2520 2750 3690 4440
2020-12-25 13:15 1.96 1010 9000 (1983) 321 (1956) 1680 359 466 584 690 1010 2520 2750 3690 4440
2020-12-25 12:15 1.98 1010 9000 (1983) 321 (1956) 1680 359 466 584 690 1010 2520 2750 3690 4440
2020-12-25 11:15 1.98 1010 9000 (1983) 321 (1956) 1680 359 466 584 690 1010 2520 2750 3690 4440
2020-12-25 10:15 1.97 1010 9000 (1983) 321 (1956) 1680 359 466 584 690 1010 2520 2750 3690 4440
2020-12-25 09:15 1.98 1010 9000 (1983) 321 (1956) 1680 359 466 584 690 1010 2520 2750 3690 4440
2020-12-25 08:15 1.98 1010 9000 (1983) 321 (1956) 1680 359 466 584 690 1010 2520 2750 3690 4440
2020-12-25 07:15 1.99 1020 9000 (1983) 321 (1956) 1680 359 466 584 690 1010 2520 2750 3690 4440
2020-12-25 06:15 1.99 1020 9000 (1983) 321 (1956) 1680 359 466 584 690 1010 2520 2750 3690 4440
2020-12-25 05:15 1.98 1010 9000 (1983) 321 (1956) 1680 359 466 584 690 1010 2520 2750 3690 4440
2020-12-25 04:15 2.01 1020 9000 (1983) 321 (1956) 1680 359 466 584 690 1010 2520 2750 3690 4440
2020-12-25 03:15 2.00 1020 9000 (1983) 321 (1956) 1680 359 466 584 690 1010 2520 2750 3690 4440
2020-12-25 02:15 2.01 1020 9000 (1983) 321 (1956) 1680 359 466 584 690 1010 2520 2750 3690 4440
2020-12-25 01:15 2.01 1020 9000 (1983) 321 (1956) 1680 359 466 584 690 1010 2520 2750 3690 4440
2020-12-25 00:15 2.01 1020 9000 (1983) 321 (1956) 1680 359 466 584 690 1010 2520 2750 3690 4440
2020-12-24 23:15 2.02 1030 4530 (2014) 335 (1954) 1520 362 478 578 671 1020 2010 2710 3670 4010
2020-12-24 22:15 2.03 1030 4530 (2014) 335 (1954) 1520 362 478 578 671 1020 2010 2710 3670 4010
2020-12-24 21:15 2.04 1030 4530 (2014) 335 (1954) 1520 362 478 578 671 1020 2010 2710 3670 4010
2020-12-24 20:15 2.04 1030 4530 (2014) 335 (1954) 1520 362 478 578 671 1020 2010 2710 3670 4010
2020-12-24 19:15 2.04 1030 4530 (2014) 335 (1954) 1520 362 478 578 671 1020 2010 2710 3670 4010
2020-12-24 18:15 2.05 1040 4530 (2014) 335 (1954) 1520 362 478 578 671 1020 2010 2710 3670 4010
2020-12-24 17:15 2.04 1030 4530 (2014) 335 (1954) 1520 362 478 578 671 1020 2010 2710 3670 4010
2020-12-24 16:15 2.07 1040 4530 (2014) 335 (1954) 1520 362 478 578 671 1020 2010 2710 3670 4010
2020-12-24 15:15 2.07 1040 4530 (2014) 335 (1954) 1520 362 478 578 671 1020 2010 2710 3670 4010
2020-12-24 14:15 2.07 1040 4530 (2014) 335 (1954) 1520 362 478 578 671 1020 2010 2710 3670 4010
2020-12-24 13:15 2.08 1050 4530 (2014) 335 (1954) 1520 362 478 578 671 1020 2010 2710 3670 4010
2020-12-24 12:15 2.08 1050 4530 (2014) 335 (1954) 1520 362 478 578 671 1020 2010 2710 3670 4010
2020-12-24 11:15 2.07 1040 4530 (2014) 335 (1954) 1520 362 478 578 671 1020 2010 2710 3670 4010
2020-12-24 10:15 2.07 1040 4530 (2014) 335 (1954) 1520 362 478 578 671 1020 2010 2710 3670 4010
2020-12-24 09:15 2.07 1040 4530 (2014) 335 (1954) 1520 362 478 578 671 1020 2010 2710 3670 4010
2020-12-24 08:15 2.08 1050 4530 (2014) 335 (1954) 1520 362 478 578 671 1020 2010 2710 3670 4010
2020-12-24 07:15 2.08 1050 4530 (2014) 335 (1954) 1520 362 478 578 671 1020 2010 2710 3670 4010
2020-12-24 06:15 2.09 1050 4530 (2014) 335 (1954) 1520 362 478 578 671 1020 2010 2710 3670 4010
2020-12-24 05:15 2.08 1050 4530 (2014) 335 (1954) 1520 362 478 578 671 1020 2010 2710 3670 4010
2020-12-24 04:15 2.09 1050 4530 (2014) 335 (1954) 1520 362 478 578 671 1020 2010 2710 3670 4010
2020-12-24 03:15 2.09 1050 4530 (2014) 335 (1954) 1520 362 478 578 671 1020 2010 2710 3670 4010
2020-12-24 02:15 2.09 1050 4530 (2014) 335 (1954) 1520 362 478 578 671 1020 2010 2710 3670 4010
2020-12-24 01:15 2.11 1060 4530 (2014) 335 (1954) 1520 362 478 578 671 1020 2010 2710 3670 4010
2020-12-24 00:15 2.11 1060 4530 (2014) 335 (1954) 1520 362 478 578 671 1020 2010 2710 3670 4010
2020-12-23 23:15 2.10 1050 10000 (2014) 305 (1954) 1630 368 468 580 629 1020 1900 2490 3610 4350
2020-12-23 22:15 2.11 1060 10000 (2014) 305 (1954) 1630 368 468 580 629 1020 1900 2490 3610 4350
2020-12-23 21:15 2.12 1060 10000 (2014) 305 (1954) 1630 368 468 580 629 1020 1900 2490 3610 4350
2020-12-23 20:15 2.13 1060 10000 (2014) 305 (1954) 1630 368 468 580 629 1020 1900 2490 3610 4350
2020-12-23 19:15 2.13 1060 10000 (2014) 305 (1954) 1630 368 468 580 629 1020 1900 2490 3610 4350
2020-12-23 18:15 2.15 1070 10000 (2014) 305 (1954) 1630 368 468 580 629 1020 1900 2490 3610 4350
2020-12-23 17:15 2.13 1060 10000 (2014) 305 (1954) 1630 368 468 580 629 1020 1900 2490 3610 4350
2020-12-23 16:15 2.16 1070 10000 (2014) 305 (1954) 1630 368 468 580 629 1020 1900 2490 3610 4350
2020-12-23 15:15 2.16 1070 10000 (2014) 305 (1954) 1630 368 468 580 629 1020 1900 2490 3610 4350
2020-12-23 14:15 2.19 1080 10000 (2014) 305 (1954) 1630 368 468 580 629 1020 1900 2490 3610 4350
2020-12-23 13:15 2.20 1090 10000 (2014) 305 (1954) 1630 368 468 580 629 1020 1900 2490 3610 4350
2020-12-23 12:15 2.22 1090 10000 (2014) 305 (1954) 1630 368 468 580 629 1020 1900 2490 3610 4350
2020-12-23 11:15 2.25 1100 10000 (2014) 305 (1954) 1630 368 468 580 629 1020 1900 2490 3610 4350
2020-12-23 10:15 2.28 1110 10000 (2014) 305 (1954) 1630 368 468 580 629 1020 1900 2490 3610 4350
2020-12-23 09:15 2.30 1120 10000 (2014) 305 (1954) 1630 368 468 580 629 1020 1900 2490 3610 4350
2020-12-23 08:15 2.33 1130 10000 (2014) 305 (1954) 1630 368 468 580 629 1020 1900 2490 3610 4350
2020-12-23 07:15 2.34 1140 10000 (2014) 305 (1954) 1630 368 468 580 629 1020 1900 2490 3610 4350
2020-12-23 06:15 2.37 1150 10000 (2014) 305 (1954) 1630 368 468 580 629 1020 1900 2490 3610 4350
2020-12-23 05:15 2.39 1150 10000 (2014) 305 (1954) 1630 368 468 580 629 1020 1900 2490 3610 4350
2020-12-23 04:15 2.42 1160 10000 (2014) 305 (1954) 1630 368 468 580 629 1020 1900 2490 3610 4350
2020-12-23 03:15 2.42 1160 10000 (2014) 305 (1954) 1630 368 468 580 629 1020 1900 2490 3610 4350
2020-12-23 02:15 2.42 1160 10000 (2014) 305 (1954) 1630 368 468 580 629 1020 1900 2490 3610 4350
2020-12-23 01:15 2.42 1160 10000 (2014) 305 (1954) 1630 368 468 580 629 1020 1900 2490 3610 4350
2020-12-23 00:15 2.42 1160 10000 (2014) 305 (1954) 1630 368 468 580 629 1020 1900 2490 3610 4350
2020-12-22 23:15 2.41 1160 12900 (2014) 305 (1954) 1850 377 444 583 595 1040 2200 2710 3880 5730
2020-12-22 22:15 2.41 1160 12900 (2014) 305 (1954) 1850 377 444 583 595 1040 2200 2710 3880 5730
2020-12-22 21:15 2.40 1160 12900 (2014) 305 (1954) 1850 377 444 583 595 1040 2200 2710 3880 5730
2020-12-22 20:15 2.40 1160 12900 (2014) 305 (1954) 1850 377 444 583 595 1040 2200 2710 3880 5730
2020-12-22 19:15 2.40 1160 12900 (2014) 305 (1954) 1850 377 444 583 595 1040 2200 2710 3880 5730
2020-12-22 18:15 2.39 1150 12900 (2014) 305 (1954) 1850 377 444 583 595 1040 2200 2710 3880 5730
2020-12-22 17:15 2.38 1150 12900 (2014) 305 (1954) 1850 377 444 583 595 1040 2200 2710 3880 5730
2020-12-22 16:15 2.37 1150 12900 (2014) 305 (1954) 1850 377 444 583 595 1040 2200 2710 3880 5730
2020-12-22 15:15 2.36 1140 12900 (2014) 305 (1954) 1850 377 444 583 595 1040 2200 2710 3880 5730
2020-12-22 14:15 2.35 1140 12900 (2014) 305 (1954) 1850 377 444 583 595 1040 2200 2710 3880 5730
2020-12-22 13:15 2.33 1130 12900 (2014) 305 (1954) 1850 377 444 583 595 1040 2200 2710 3880 5730
2020-12-22 12:15 2.31 1130 12900 (2014) 305 (1954) 1850 377 444 583 595 1040 2200 2710 3880 5730
2020-12-22 11:15 2.30 1120 12900 (2014) 305 (1954) 1850 377 444 583 595 1040 2200 2710 3880 5730
2020-12-22 10:15 2.28 1110 12900 (2014) 305 (1954) 1850 377 444 583 595 1040 2200 2710 3880 5730
2020-12-22 09:15 2.27 1110 12900 (2014) 305 (1954) 1850 377 444 583 595 1040 2200 2710 3880 5730
2020-12-22 08:15 2.24 1100 12900 (2014) 305 (1954) 1850 377 444 583 595 1040 2200 2710 3880 5730
2020-12-22 07:15 2.22 1090 12900 (2014) 305 (1954) 1850 377 444 583 595 1040 2200 2710 3880 5730
2020-12-22 06:15 2.20 1090 12900 (2014) 305 (1954) 1850 377 444 583 595 1040 2200 2710 3880 5730
2020-12-22 05:15 2.19 1080 12900 (2014) 305 (1954) 1850 377 444 583 595 1040 2200 2710 3880 5730
2020-12-22 04:15 2.18 1080 12900 (2014) 305 (1954) 1850 377 444 583 595 1040 2200 2710 3880 5730
2020-12-22 03:15 2.18 1080 12900 (2014) 305 (1954) 1850 377 444 583 595 1040 2200 2710 3880 5730
2020-12-22 02:15 2.16 1070 12900 (2014) 305 (1954) 1850 377 444 583 595 1040 2200 2710 3880 5730
2020-12-22 01:15 2.16 1070 12900 (2014) 305 (1954) 1850 377 444 583 595 1040 2200 2710 3880 5730
2020-12-22 00:15 2.16 1070 12900 (2014) 305 (1954) 1850 377 444 583 595 1040 2200 2710 3880 5730
2020-12-21 23:15 2.16 1070 6680 (1985) 311 (1954) 1650 380 446 579 616 990 2580 2990 3960 4180
2020-12-21 22:15 2.17 1080 6680 (1985) 311 (1954) 1650 380 446 579 616 990 2580 2990 3960 4180
2020-12-21 21:15 2.16 1070 6680 (1985) 311 (1954) 1650 380 446 579 616 990 2580 2990 3960 4180
2020-12-21 20:15 2.17 1080 6680 (1985) 311 (1954) 1650 380 446 579 616 990 2580 2990 3960 4180
2020-12-21 19:15 2.18 1080 6680 (1985) 311 (1954) 1650 380 446 579 616 990 2580 2990 3960 4180
2020-12-21 18:15 2.18 1080 6680 (1985) 311 (1954) 1650 380 446 579 616 990 2580 2990 3960 4180
2020-12-21 17:15 2.18 1080 6680 (1985) 311 (1954) 1650 380 446 579 616 990 2580 2990 3960 4180
2020-12-21 16:15 2.18 1080 6680 (1985) 311 (1954) 1650 380 446 579 616 990 2580 2990 3960 4180
2020-12-21 15:15 2.18 1080 6680 (1985) 311 (1954) 1650 380 446 579 616 990 2580 2990 3960 4180
2020-12-21 14:15 2.18 1080 6680 (1985) 311 (1954) 1650 380 446 579 616 990 2580 2990 3960 4180
2020-12-21 13:15 2.18 1080 6680 (1985) 311 (1954) 1650 380 446 579 616 990 2580 2990 3960 4180
2020-12-21 12:15 2.19 1080 6680 (1985) 311 (1954) 1650 380 446 579 616 990 2580 2990 3960 4180
2020-12-21 11:15 2.19 1080 6680 (1985) 311 (1954) 1650 380 446 579 616 990 2580 2990 3960 4180
2020-12-21 10:15 2.19 1080 6680 (1985) 311 (1954) 1650 380 446 579 616 990 2580 2990 3960 4180
2020-12-21 09:15 2.18 1080 6680 (1985) 311 (1954) 1650 380 446 579 616 990 2580 2990 3960 4180
2020-12-21 08:15 2.19 1080 6680 (1985) 311 (1954) 1650 380 446 579 616 990 2580 2990 3960 4180
2020-12-21 07:15 2.19 1080 6680 (1985) 311 (1954) 1650 380 446 579 616 990 2580 2990 3960 4180
2020-12-21 06:15 2.20 1090 6680 (1985) 311 (1954) 1650 380 446 579 616 990 2580 2990 3960 4180
2020-12-21 05:15 2.20 1090 6680 (1985) 311 (1954) 1650 380 446 579 616 990 2580 2990 3960 4180
2020-12-21 04:15 2.20 1090 6680 (1985) 311 (1954) 1650 380 446 579 616 990 2580 2990 3960 4180
2020-12-21 03:15 2.21 1090 6680 (1985) 311 (1954) 1650 380 446 579 616 990 2580 2990 3960 4180
2020-12-21 02:15 2.21 1090 6680 (1985) 311 (1954) 1650 380 446 579 616 990 2580 2990 3960 4180
2020-12-21 01:15 2.21 1090 6680 (1985) 311 (1954) 1650 380 446 579 616 990 2580 2990 3960 4180
2020-12-21 00:15 2.21 1090 6680 (1985) 311 (1954) 1650 380 446 579 616 990 2580 2990 3960 4180
2020-12-20 23:15 2.21 1090 6270 (1958) 316 (1954) 1610 384 447 582 600 1020 2630 2860 3700 3990
2020-12-20 22:15 2.21 1090 6270 (1958) 316 (1954) 1610 384 447 582 600 1020 2630 2860 3700 3990
2020-12-20 21:15 2.22 1090 6270 (1958) 316 (1954) 1610 384 447 582 600 1020 2630 2860 3700 3990
2020-12-20 20:15 2.22 1090 6270 (1958) 316 (1954) 1610 384 447 582 600 1020 2630 2860 3700 3990
2020-12-20 19:15 2.23 1100 6270 (1958) 316 (1954) 1610 384 447 582 600 1020 2630 2860 3700 3990
2020-12-20 18:15 2.23 1100 6270 (1958) 316 (1954) 1610 384 447 582 600 1020 2630 2860 3700 3990
2020-12-20 17:15 2.23 1100 6270 (1958) 316 (1954) 1610 384 447 582 600 1020 2630 2860 3700 3990
2020-12-20 16:15 2.23 1100 6270 (1958) 316 (1954) 1610 384 447 582 600 1020 2630 2860 3700 3990
2020-12-20 15:15 2.25 1100 6270 (1958) 316 (1954) 1610 384 447 582 600 1020 2630 2860 3700 3990
2020-12-20 14:15 2.24 1100 6270 (1958) 316 (1954) 1610 384 447 582 600 1020 2630 2860 3700 3990
2020-12-20 13:15 2.25 1100 6270 (1958) 316 (1954) 1610 384 447 582 600 1020 2630 2860 3700 3990
2020-12-20 12:15 2.24 1100 6270 (1958) 316 (1954) 1610 384 447 582 600 1020 2630 2860 3700 3990
2020-12-20 11:15 2.25 1100 6270 (1958) 316 (1954) 1610 384 447 582 600 1020 2630 2860 3700 3990
2020-12-20 10:15 2.25 1100 6270 (1958) 316 (1954) 1610 384 447 582 600 1020 2630 2860 3700 3990
2020-12-20 09:15 2.26 1110 6270 (1958) 316 (1954) 1610 384 447 582 600 1020 2630 2860 3700 3990
2020-12-20 08:15 2.27 1110 6270 (1958) 316 (1954) 1610 384 447 582 600 1020 2630 2860 3700 3990
2020-12-20 07:15 2.27 1110 6270 (1958) 316 (1954) 1610 384 447 582 600 1020 2630 2860 3700 3990
2020-12-20 06:15 2.28 1110 6270 (1958) 316 (1954) 1610 384 447 582 600 1020 2630 2860 3700 3990
2020-12-20 05:15 2.28 1110 6270 (1958) 316 (1954) 1610 384 447 582 600 1020 2630 2860 3700 3990
2020-12-20 04:15 2.29 1120 6270 (1958) 316 (1954) 1610 384 447 582 600 1020 2630 2860 3700 3990
2020-12-20 03:15 2.29 1120 6270 (1958) 316 (1954) 1610 384 447 582 600 1020 2630 2860 3700 3990
2020-12-20 02:15 2.30 1120 6270 (1958) 316 (1954) 1610 384 447 582 600 1020 2630 2860 3700 3990
2020-12-20 01:15 2.31 1130 6270 (1958) 316 (1954) 1610 384 447 582 600 1020 2630 2860 3700 3990
2020-12-20 00:15 2.31 1130 6270 (1958) 316 (1954) 1610 384 447 582 600 1020 2630 2860 3700 3990
2020-12-19 23:15 2.31 1130 4180 (1985) 330 (1954) 1580 386 437 573 609 1080 2570 2810 3590 3930
2020-12-19 22:15 2.32 1130 4180 (1985) 330 (1954) 1580 386 437 573 609 1080 2570 2810 3590 3930
2020-12-19 21:15 2.34 1140 4180 (1985) 330 (1954) 1580 386 437 573 609 1080 2570 2810 3590 3930
2020-12-19 20:15 2.33 1130 4180 (1985) 330 (1954) 1580 386 437 573 609 1080 2570 2810 3590 3930
2020-12-19 19:15 2.34 1140 4180 (1985) 330 (1954) 1580 386 437 573 609 1080 2570 2810 3590 3930
2020-12-19 18:15 2.35 1140 4180 (1985) 330 (1954) 1580 386 437 573 609 1080 2570 2810 3590 3930
2020-12-19 17:15 2.36 1140 4180 (1985) 330 (1954) 1580 386 437 573 609 1080 2570 2810 3590 3930
2020-12-19 16:15 2.37 1150 4180 (1985) 330 (1954) 1580 386 437 573 609 1080 2570 2810 3590 3930
2020-12-19 15:15 2.39 1150 4180 (1985) 330 (1954) 1580 386 437 573 609 1080 2570 2810 3590 3930
2020-12-19 14:15 2.39 1150 4180 (1985) 330 (1954) 1580 386 437 573 609 1080 2570 2810 3590 3930
2020-12-19 13:15 2.41 1160 4180 (1985) 330 (1954) 1580 386 437 573 609 1080 2570 2810 3590 3930
2020-12-19 12:15 2.42 1160 4180 (1985) 330 (1954) 1580 386 437 573 609 1080 2570 2810 3590 3930
2020-12-19 11:15 2.45 1170 4180 (1985) 330 (1954) 1580 386 437 573 609 1080 2570 2810 3590 3930
2020-12-19 10:15 2.47 1180 4180 (1985) 330 (1954) 1580 386 437 573 609 1080 2570 2810 3590 3930
2020-12-19 09:15 2.48 1180 4180 (1985) 330 (1954) 1580 386 437 573 609 1080 2570 2810 3590 3930
2020-12-19 08:15 2.50 1190 4180 (1985) 330 (1954) 1580 386 437 573 609 1080 2570 2810 3590 3930
2020-12-19 07:15 2.52 1200 4180 (1985) 330 (1954) 1580 386 437 573 609 1080 2570 2810 3590 3930
2020-12-19 06:15 2.53 1200 4180 (1985) 330 (1954) 1580 386 437 573 609 1080 2570 2810 3590 3930
2020-12-19 05:15 2.54 1200 4180 (1985) 330 (1954) 1580 386 437 573 609 1080 2570 2810 3590 3930
2020-12-19 04:15 2.57 1210 4180 (1985) 330 (1954) 1580 386 437 573 609 1080 2570 2810 3590 3930
2020-12-19 03:15 2.57 1210 4180 (1985) 330 (1954) 1580 386 437 573 609 1080 2570 2810 3590 3930
2020-12-19 02:15 2.58 1220 4180 (1985) 330 (1954) 1580 386 437 573 609 1080 2570 2810 3590 3930
2020-12-19 01:15 2.59 1220 4180 (1985) 330 (1954) 1580 386 437 573 609 1080 2570 2810 3590 3930
2020-12-19 00:15 2.59 1220 4180 (1985) 330 (1954) 1580 386 437 573 609 1080 2570 2810 3590 3930
2020-12-18 23:15 2.60 1220 6110 (2002) 338 (1954) 1550 387 435 587 618 1170 2250 2470 3770 3990
2020-12-18 22:15 2.60 1220 6110 (2002) 338 (1954) 1550 387 435 587 618 1170 2250 2470 3770 3990
2020-12-18 21:15 2.61 1230 6110 (2002) 338 (1954) 1550 387 435 587 618 1170 2250 2470 3770 3990
2020-12-18 20:15 2.60 1220 6110 (2002) 338 (1954) 1550 387 435 587 618 1170 2250 2470 3770 3990
2020-12-18 19:15 2.61 1230 6110 (2002) 338 (1954) 1550 387 435 587 618 1170 2250 2470 3770 3990
2020-12-18 18:15 2.62 1230 6110 (2002) 338 (1954) 1550 387 435 587 618 1170 2250 2470 3770 3990
2020-12-18 17:15 2.62 1230 6110 (2002) 338 (1954) 1550 387 435 587 618 1170 2250 2470 3770 3990
2020-12-18 16:15 2.61 1230 6110 (2002) 338 (1954) 1550 387 435 587 618 1170 2250 2470 3770 3990
2020-12-18 15:15 2.61 1230 6110 (2002) 338 (1954) 1550 387 435 587 618 1170 2250 2470 3770 3990
2020-12-18 14:15 2.62 1230 6110 (2002) 338 (1954) 1550 387 435 587 618 1170 2250 2470 3770 3990
2020-12-18 13:15 2.62 1230 6110 (2002) 338 (1954) 1550 387 435 587 618 1170 2250 2470 3770 3990
2020-12-18 12:15 2.63 1230 6110 (2002) 338 (1954) 1550 387 435 587 618 1170 2250 2470 3770 3990
2020-12-18 11:15 2.64 1240 6110 (2002) 338 (1954) 1550 387 435 587 618 1170 2250 2470 3770 3990
2020-12-18 10:15 2.64 1240 6110 (2002) 338 (1954) 1550 387 435 587 618 1170 2250 2470 3770 3990
2020-12-18 09:15 2.64 1240 6110 (2002) 338 (1954) 1550 387 435 587 618 1170 2250 2470 3770 3990
2020-12-18 08:15 2.65 1240 6110 (2002) 338 (1954) 1550 387 435 587 618 1170 2250 2470 3770 3990
2020-12-18 07:15 2.66 1250 6110 (2002) 338 (1954) 1550 387 435 587 618 1170 2250 2470 3770 3990
2020-12-18 06:15 2.67 1250 6110 (2002) 338 (1954) 1550 387 435 587 618 1170 2250 2470 3770 3990
2020-12-18 05:15 2.68 1250 6110 (2002) 338 (1954) 1550 387 435 587 618 1170 2250 2470 3770 3990
2020-12-18 04:15 2.69 1260 6110 (2002) 338 (1954) 1550 387 435 587 618 1170 2250 2470 3770 3990
2020-12-18 03:15 2.69 1260 6110 (2002) 338 (1954) 1550 387 435 587 618 1170 2250 2470 3770 3990
2020-12-18 02:15 2.70 1260 6110 (2002) 338 (1954) 1550 387 435 587 618 1170 2250 2470 3770 3990
2020-12-18 01:15 2.70 1260 6110 (2002) 338 (1954) 1550 387 435 587 618 1170 2250 2470 3770 3990
2020-12-18 00:15 2.72 1270 6110 (2002) 338 (1954) 1550 387 435 587 618 1170 2250 2470 3770 3990
2020-12-17 23:15 2.72 1270 6150 (2002) 344 (1956) 1530 386 450 593 630 1060 1890 2300 3750 3990
2020-12-17 22:15 2.75 1280 6150 (2002) 344 (1956) 1530 386 450 593 630 1060 1890 2300 3750 3990
2020-12-17 21:15 2.76 1280 6150 (2002) 344 (1956) 1530 386 450 593 630 1060 1890 2300 3750 3990
2020-12-17 20:15 2.78 1290 6150 (2002) 344 (1956) 1530 386 450 593 630 1060 1890 2300 3750 3990
2020-12-17 19:15 2.79 1290 6150 (2002) 344 (1956) 1530 386 450 593 630 1060 1890 2300 3750 3990
2020-12-17 18:15 2.82 1300 6150 (2002) 344 (1956) 1530 386 450 593 630 1060 1890 2300 3750 3990
2020-12-17 17:15 2.82 1300 6150 (2002) 344 (1956) 1530 386 450 593 630 1060 1890 2300 3750 3990
2020-12-17 16:15 2.85 1310 6150 (2002) 344 (1956) 1530 386 450 593 630 1060 1890 2300 3750 3990
2020-12-17 15:15 2.88 1320 6150 (2002) 344 (1956) 1530 386 450 593 630 1060 1890 2300 3750 3990
2020-12-17 14:15 2.91 1330 6150 (2002) 344 (1956) 1530 386 450 593 630 1060 1890 2300 3750 3990
2020-12-17 13:15 2.93 1340 6150 (2002) 344 (1956) 1530 386 450 593 630 1060 1890 2300 3750 3990
2020-12-17 12:15 2.97 1350 6150 (2002) 344 (1956) 1530 386 450 593 630 1060 1890 2300 3750 3990
2020-12-17 11:15 3.01 1370 6150 (2002) 344 (1956) 1530 386 450 593 630 1060 1890 2300 3750 3990
2020-12-17 10:15 3.04 1380 6150 (2002) 344 (1956) 1530 386 450 593 630 1060 1890 2300 3750 3990
2020-12-17 09:15 3.10 1400 6150 (2002) 344 (1956) 1530 386 450 593 630 1060 1890 2300 3750 3990
2020-12-17 08:15 3.14 1410 6150 (2002) 344 (1956) 1530 386 450 593 630 1060 1890 2300 3750 3990
2020-12-17 07:15 3.17 1420 6150 (2002) 344 (1956) 1530 386 450 593 630 1060 1890 2300 3750 3990
2020-12-17 06:15 3.22 1440 6150 (2002) 344 (1956) 1530 386 450 593 630 1060 1890 2300 3750 3990
2020-12-17 05:15 3.26 1450 6150 (2002) 344 (1956) 1530 386 450 593 630 1060 1890 2300 3750 3990
2020-12-17 04:15 3.30 1470 6150 (2002) 344 (1956) 1530 386 450 593 630 1060 1890 2300 3750 3990
2020-12-17 03:15 3.33 1480 6150 (2002) 344 (1956) 1530 386 450 593 630 1060 1890 2300 3750 3990
2020-12-17 02:15 3.35 1480 6150 (2002) 344 (1956) 1530 386 450 593 630 1060 1890 2300 3750 3990
2020-12-17 01:15 3.37 1490 6150 (2002) 344 (1956) 1530 386 450 593 630 1060 1890 2300 3750 3990
2020-12-17 00:15 3.39 1500 6150 (2002) 344 (1956) 1530 386 450 593 630 1060 1890 2300 3750 3990
2020-12-16 23:15 3.39 1500 5000 (1983) 344 (1956) 1560 382 454 601 626 1050 2220 2310 3590 4000
2020-12-16 22:15 3.40 1500 5000 (1983) 344 (1956) 1560 382 454 601 626 1050 2220 2310 3590 4000
2020-12-16 21:15 3.39 1500 5000 (1983) 344 (1956) 1560 382 454 601 626 1050 2220 2310 3590 4000
2020-12-16 20:15 3.41 1500 5000 (1983) 344 (1956) 1560 382 454 601 626 1050 2220 2310 3590 4000
2020-12-16 19:15 3.40 1500 5000 (1983) 344 (1956) 1560 382 454 601 626 1050 2220 2310 3590 4000
2020-12-16 18:15 3.41 1500 5000 (1983) 344 (1956) 1560 382 454 601 626 1050 2220 2310 3590 4000
2020-12-16 17:15 3.40 1500 5000 (1983) 344 (1956) 1560 382 454 601 626 1050 2220 2310 3590 4000
2020-12-16 16:15 3.39 1500 5000 (1983) 344 (1956) 1560 382 454 601 626 1050 2220 2310 3590 4000
2020-12-16 15:15 3.40 1500 5000 (1983) 344 (1956) 1560 382 454 601 626 1050 2220 2310 3590 4000
2020-12-16 14:15 3.40 1500 5000 (1983) 344 (1956) 1560 382 454 601 626 1050 2220 2310 3590 4000
2020-12-16 13:15 3.40 1500 5000 (1983) 344 (1956) 1560 382 454 601 626 1050 2220 2310 3590 4000
2020-12-16 12:15 3.39 1500 5000 (1983) 344 (1956) 1560 382 454 601 626 1050 2220 2310 3590 4000
2020-12-16 11:15 3.38 1490 5000 (1983) 344 (1956) 1560 382 454 601 626 1050 2220 2310 3590 4000
2020-12-16 10:15 3.38 1490 5000 (1983) 344 (1956) 1560 382 454 601 626 1050 2220 2310 3590 4000
2020-12-16 09:15 3.38 1490 5000 (1983) 344 (1956) 1560 382 454 601 626 1050 2220 2310 3590 4000
2020-12-16 08:15 3.36 1490 5000 (1983) 344 (1956) 1560 382 454 601 626 1050 2220 2310 3590 4000
2020-12-16 07:15 3.36 1490 5000 (1983) 344 (1956) 1560 382 454 601 626 1050 2220 2310 3590 4000
2020-12-16 06:15 3.36 1490 5000 (1983) 344 (1956) 1560 382 454 601 626 1050 2220 2310 3590 4000
2020-12-16 05:15 3.35 1480 5000 (1983) 344 (1956) 1560 382 454 601 626 1050 2220 2310 3590 4000
2020-12-16 04:15 3.35 1480 5000 (1983) 344 (1956) 1560 382 454 601 626 1050 2220 2310 3590 4000
2020-12-16 03:15 3.34 1480 5000 (1983) 344 (1956) 1560 382 454 601 626 1050 2220 2310 3590 4000
2020-12-16 02:15 3.33 1480 5000 (1983) 344 (1956) 1560 382 454 601 626 1050 2220 2310 3590 4000
2020-12-16 01:15 3.32 1470 5000 (1983) 344 (1956) 1560 382 454 601 626 1050 2220 2310 3590 4000
2020-12-16 00:15 3.31 1470 5000 (1983) 344 (1956) 1560 382 454 601 626 1050 2220 2310 3590 4000
2020-12-15 23:15 3.28 1460 4500 (1983) 338 (1954) 1530 373 457 589 622 948 2270 2540 3660 4070
2020-12-15 22:15 3.28 1460 4500 (1983) 338 (1954) 1530 373 457 589 622 948 2270 2540 3660 4070
2020-12-15 21:15 3.25 1450 4500 (1983) 338 (1954) 1530 373 457 589 622 948 2270 2540 3660 4070
2020-12-15 20:15 3.23 1440 4500 (1983) 338 (1954) 1530 373 457 589 622 948 2270 2540 3660 4070
2020-12-15 19:15 3.21 1440 4500 (1983) 338 (1954) 1530 373 457 589 622 948 2270 2540 3660 4070
2020-12-15 18:15 3.18 1420 4500 (1983) 338 (1954) 1530 373 457 589 622 948 2270 2540 3660 4070
2020-12-15 17:15 3.15 1410 4500 (1983) 338 (1954) 1530 373 457 589 622 948 2270 2540 3660 4070
2020-12-15 16:15 3.13 1410 4500 (1983) 338 (1954) 1530 373 457 589 622 948 2270 2540 3660 4070
2020-12-15 15:15 3.07 1390 4500 (1983) 338 (1954) 1530 373 457 589 622 948 2270 2540 3660 4070
2020-12-15 14:15 3.04 1380 4500 (1983) 338 (1954) 1530 373 457 589 622 948 2270 2540 3660 4070
2020-12-15 13:15 3.00 1360 4500 (1983) 338 (1954) 1530 373 457 589 622 948 2270 2540 3660 4070
2020-12-15 12:15 2.94 1340 4500 (1983) 338 (1954) 1530 373 457 589 622 948 2270 2540 3660 4070
2020-12-15 11:15 2.89 1320 4500 (1983) 338 (1954) 1530 373 457 589 622 948 2270 2540 3660 4070
2020-12-15 10:15 2.83 1300 4500 (1983) 338 (1954) 1530 373 457 589 622 948 2270 2540 3660 4070
2020-12-15 09:15 2.77 1280 4500 (1983) 338 (1954) 1530 373 457 589 622 948 2270 2540 3660 4070
2020-12-15 08:15 2.70 1260 4500 (1983) 338 (1954) 1530 373 457 589 622 948 2270 2540 3660 4070
2020-12-15 07:15 2.63 1230 4500 (1983) 338 (1954) 1530 373 457 589 622 948 2270 2540 3660 4070
2020-12-15 06:15 2.59 1220 4500 (1983) 338 (1954) 1530 373 457 589 622 948 2270 2540 3660 4070
2020-12-15 05:15 2.53 1200 4500 (1983) 338 (1954) 1530 373 457 589 622 948 2270 2540 3660 4070
2020-12-15 04:15 2.49 1190 4500 (1983) 338 (1954) 1530 373 457 589 622 948 2270 2540 3660 4070
2020-12-15 03:15 2.47 1180 4500 (1983) 338 (1954) 1530 373 457 589 622 948 2270 2540 3660 4070
2020-12-15 02:15 2.47 1180 4500 (1983) 338 (1954) 1530 373 457 589 622 948 2270 2540 3660 4070
2020-12-15 01:15 2.46 1180 4500 (1983) 338 (1954) 1530 373 457 589 622 948 2270 2540 3660 4070
2020-12-15 00:15 2.47 1180 4500 (1983) 338 (1954) 1530 373 457 589 622 948 2270 2540 3660 4070
2020-12-14 23:15 2.49 1190 4000 (1983) 340 (1954) 1430 380 464 559 599 974 1830 2520 3490 3920
2020-12-14 22:15 2.48 1180 4000 (1983) 340 (1954) 1430 380 464 559 599 974 1830 2520 3490 3920
2020-12-14 21:15 2.48 1180 4000 (1983) 340 (1954) 1430 380 464 559 599 974 1830 2520 3490 3920
2020-12-14 20:15 2.51 1190 4000 (1983) 340 (1954) 1430 380 464 559 599 974 1830 2520 3490 3920
2020-12-14 19:15 2.51 1190 4000 (1983) 340 (1954) 1430 380 464 559 599 974 1830 2520 3490 3920
2020-12-14 18:15 2.54 1200 4000 (1983) 340 (1954) 1430 380 464 559 599 974 1830 2520 3490 3920
2020-12-14 17:15 2.54 1200 4000 (1983) 340 (1954) 1430 380 464 559 599 974 1830 2520 3490 3920
2020-12-14 16:15 2.56 1210 4000 (1983) 340 (1954) 1430 380 464 559 599 974 1830 2520 3490 3920
2020-12-14 15:15 2.57 1210 4000 (1983) 340 (1954) 1430 380 464 559 599 974 1830 2520 3490 3920
2020-12-14 14:15 2.58 1220 4000 (1983) 340 (1954) 1430 380 464 559 599 974 1830 2520 3490 3920
2020-12-14 13:15 2.59 1220 4000 (1983) 340 (1954) 1430 380 464 559 599 974 1830 2520 3490 3920
2020-12-14 12:15 2.59 1220 4000 (1983) 340 (1954) 1430 380 464 559 599 974 1830 2520 3490 3920
2020-12-14 11:15 2.59 1220 4000 (1983) 340 (1954) 1430 380 464 559 599 974 1830 2520 3490 3920
2020-12-14 10:15 2.59 1220 4000 (1983) 340 (1954) 1430 380 464 559 599 974 1830 2520 3490 3920
2020-12-14 09:15 2.58 1220 4000 (1983) 340 (1954) 1430 380 464 559 599 974 1830 2520 3490 3920
2020-12-14 08:15 2.57 1210 4000 (1983) 340 (1954) 1430 380 464 559 599 974 1830 2520 3490 3920
2020-12-14 07:15 2.56 1210 4000 (1983) 340 (1954) 1430 380 464 559 599 974 1830 2520 3490 3920
2020-12-14 06:15 2.54 1200 4000 (1983) 340 (1954) 1430 380 464 559 599 974 1830 2520 3490 3920
2020-12-14 05:15 2.52 1200 4000 (1983) 340 (1954) 1430 380 464 559 599 974 1830 2520 3490 3920
2020-12-14 04:15 2.49 1190 4000 (1983) 340 (1954) 1430 380 464 559 599 974 1830 2520 3490 3920
2020-12-14 03:15 2.45 1170 4000 (1983) 340 (1954) 1430 380 464 559 599 974 1830 2520 3490 3920
2020-12-14 02:15 2.43 1170 4000 (1983) 340 (1954) 1430 380 464 559 599 974 1830 2520 3490 3920
2020-12-14 01:15 2.41 1160 4000 (1983) 340 (1954) 1430 380 464 559 599 974 1830 2520 3490 3920
2020-12-14 00:15 2.37 1150 4000 (1983) 340 (1954) 1430 380 464 559 599 974 1830 2520 3490 3920
2020-12-13 23:15 2.34 1140 4150 (1985) 327 (1954) 1410 382 449 589 617 1000 1960 2240 3310 3930
2020-12-13 22:15 2.33 1130 4150 (1985) 327 (1954) 1410 382 449 589 617 1000 1960 2240 3310 3930
2020-12-13 21:15 2.30 1120 4150 (1985) 327 (1954) 1410 382 449 589 617 1000 1960 2240 3310 3930
2020-12-13 20:15 2.28 1110 4150 (1985) 327 (1954) 1410 382 449 589 617 1000 1960 2240 3310 3930
2020-12-13 19:15 2.27 1110 4150 (1985) 327 (1954) 1410 382 449 589 617 1000 1960 2240 3310 3930
2020-12-13 18:15 2.27 1110 4150 (1985) 327 (1954) 1410 382 449 589 617 1000 1960 2240 3310 3930
2020-12-13 17:15 2.27 1110 4150 (1985) 327 (1954) 1410 382 449 589 617 1000 1960 2240 3310 3930
2020-12-13 16:15 2.27 1110 4150 (1985) 327 (1954) 1410 382 449 589 617 1000 1960 2240 3310 3930
2020-12-13 15:15 2.25 1100 4150 (1985) 327 (1954) 1410 382 449 589 617 1000 1960 2240 3310 3930
2020-12-13 14:15 2.24 1100 4150 (1985) 327 (1954) 1410 382 449 589 617 1000 1960 2240 3310 3930
2020-12-13 13:15 2.23 1100 4150 (1985) 327 (1954) 1410 382 449 589 617 1000 1960 2240 3310 3930
2020-12-13 12:15 2.25 1100 4150 (1985) 327 (1954) 1410 382 449 589 617 1000 1960 2240 3310 3930
2020-12-13 11:15 2.25 1100 4150 (1985) 327 (1954) 1410 382 449 589 617 1000 1960 2240 3310 3930
2020-12-13 10:15 2.29 1120 4150 (1985) 327 (1954) 1410 382 449 589 617 1000 1960 2240 3310 3930
2020-12-13 09:15 2.28 1110 4150 (1985) 327 (1954) 1410 382 449 589 617 1000 1960 2240 3310 3930
2020-12-13 08:15 2.30 1120 4150 (1985) 327 (1954) 1410 382 449 589 617 1000 1960 2240 3310 3930
2020-12-13 07:15 2.31 1130 4150 (1985) 327 (1954) 1410 382 449 589 617 1000 1960 2240 3310 3930
2020-12-13 06:15 2.32 1130 4150 (1985) 327 (1954) 1410 382 449 589 617 1000 1960 2240 3310 3930
2020-12-13 05:15 2.33 1130 4150 (1985) 327 (1954) 1410 382 449 589 617 1000 1960 2240 3310 3930
2020-12-13 04:15 2.34 1140 4150 (1985) 327 (1954) 1410 382 449 589 617 1000 1960 2240 3310 3930
2020-12-13 03:15 2.35 1140 4150 (1985) 327 (1954) 1410 382 449 589 617 1000 1960 2240 3310 3930
2020-12-13 02:15 2.36 1140 4150 (1985) 327 (1954) 1410 382 449 589 617 1000 1960 2240 3310 3930
2020-12-13 01:15 2.36 1140 4150 (1985) 327 (1954) 1410 382 449 589 617 1000 1960 2240 3310 3930
2020-12-13 00:15 2.37 1150 4150 (1985) 327 (1954) 1410 382 449 589 617 1000 1960 2240 3310 3930
2020-12-12 23:15 2.37 1150 4110 (1985) 348 (1956) 1420 386 452 593 659 1000 2090 2220 2920 3940
2020-12-12 22:15 2.39 1150 4110 (1985) 348 (1956) 1420 386 452 593 659 1000 2090 2220 2920 3940
2020-12-12 21:15 2.39 1150 4110 (1985) 348 (1956) 1420 386 452 593 659 1000 2090 2220 2920 3940
2020-12-12 20:15 2.38 1150 4110 (1985) 348 (1956) 1420 386 452 593 659 1000 2090 2220 2920 3940
2020-12-12 19:15 2.38 1150 4110 (1985) 348 (1956) 1420 386 452 593 659 1000 2090 2220 2920 3940
2020-12-12 18:15 2.39 1150 4110 (1985) 348 (1956) 1420 386 452 593 659 1000 2090 2220 2920 3940
2020-12-12 17:15 2.39 1150 4110 (1985) 348 (1956) 1420 386 452 593 659 1000 2090 2220 2920 3940
2020-12-12 16:15 2.38 1150 4110 (1985) 348 (1956) 1420 386 452 593 659 1000 2090 2220 2920 3940
2020-12-12 15:15 2.38 1150 4110 (1985) 348 (1956) 1420 386 452 593 659 1000 2090 2220 2920 3940
2020-12-12 14:15 2.38 1150 4110 (1985) 348 (1956) 1420 386 452 593 659 1000 2090 2220 2920 3940
2020-12-12 13:15 2.37 1150 4110 (1985) 348 (1956) 1420 386 452 593 659 1000 2090 2220 2920 3940
2020-12-12 12:15 2.34 1140 4110 (1985) 348 (1956) 1420 386 452 593 659 1000 2090 2220 2920 3940
2020-12-12 11:15 2.34 1140 4110 (1985) 348 (1956) 1420 386 452 593 659 1000 2090 2220 2920 3940
2020-12-12 10:15 2.31 1130 4110 (1985) 348 (1956) 1420 386 452 593 659 1000 2090 2220 2920 3940
2020-12-12 09:15 2.30 1120 4110 (1985) 348 (1956) 1420 386 452 593 659 1000 2090 2220 2920 3940
2020-12-12 08:15 2.27 1110 4110 (1985) 348 (1956) 1420 386 452 593 659 1000 2090 2220 2920 3940
2020-12-12 07:15 2.24 1100 4110 (1985) 348 (1956) 1420 386 452 593 659 1000 2090 2220 2920 3940
2020-12-12 06:15 2.24 1100 4110 (1985) 348 (1956) 1420 386 452 593 659 1000 2090 2220 2920 3940
2020-12-12 05:15 2.21 1090 4110 (1985) 348 (1956) 1420 386 452 593 659 1000 2090 2220 2920 3940
2020-12-12 04:15 2.18 1080 4110 (1985) 348 (1956) 1420 386 452 593 659 1000 2090 2220 2920 3940
2020-12-12 03:15 2.15 1070 4110 (1985) 348 (1956) 1420 386 452 593 659 1000 2090 2220 2920 3940
2020-12-12 02:15 2.14 1070 4110 (1985) 348 (1956) 1420 386 452 593 659 1000 2090 2220 2920 3940
2020-12-12 01:15 2.12 1060 4110 (1985) 348 (1956) 1420 386 452 593 659 1000 2090 2220 2920 3940
2020-12-12 00:15 2.11 1060 4110 (1985) 348 (1956) 1420 386 452 593 659 1000 2090 2220 2920 3940
2020-12-11 23:15 2.11 1060 4030 (1986) 354 (1956) 1420 378 436 590 623 928 2030 2370 3010 3920
2020-12-11 22:15 2.11 1060 4030 (1986) 354 (1956) 1420 378 436 590 623 928 2030 2370 3010 3920
2020-12-11 21:15 2.11 1060 4030 (1986) 354 (1956) 1420 378 436 590 623 928 2030 2370 3010 3920
2020-12-11 20:15 2.10 1050 4030 (1986) 354 (1956) 1420 378 436 590 623 928 2030 2370 3010 3920
2020-12-11 19:15 2.10 1050 4030 (1986) 354 (1956) 1420 378 436 590 623 928 2030 2370 3010 3920
2020-12-11 18:15 2.11 1060 4030 (1986) 354 (1956) 1420 378 436 590 623 928 2030 2370 3010 3920
2020-12-11 17:15 2.10 1050 4030 (1986) 354 (1956) 1420 378 436 590 623 928 2030 2370 3010 3920
2020-12-11 16:15 2.12 1060 4030 (1986) 354 (1956) 1420 378 436 590 623 928 2030 2370 3010 3920
2020-12-11 15:15 2.13 1060 4030 (1986) 354 (1956) 1420 378 436 590 623 928 2030 2370 3010 3920
2020-12-11 14:15 2.15 1070 4030 (1986) 354 (1956) 1420 378 436 590 623 928 2030 2370 3010 3920
2020-12-11 13:15 2.17 1080 4030 (1986) 354 (1956) 1420 378 436 590 623 928 2030 2370 3010 3920
2020-12-11 12:15 2.19 1080 4030 (1986) 354 (1956) 1420 378 436 590 623 928 2030 2370 3010 3920
2020-12-11 11:15 2.22 1090 4030 (1986) 354 (1956) 1420 378 436 590 623 928 2030 2370 3010 3920
2020-12-11 10:15 2.23 1100 4030 (1986) 354 (1956) 1420 378 436 590 623 928 2030 2370 3010 3920
2020-12-11 09:15 2.26 1110 4030 (1986) 354 (1956) 1420 378 436 590 623 928 2030 2370 3010 3920
2020-12-11 08:15 2.29 1120 4030 (1986) 354 (1956) 1420 378 436 590 623 928 2030 2370 3010 3920
2020-12-11 07:15 2.33 1130 4030 (1986) 354 (1956) 1420 378 436 590 623 928 2030 2370 3010 3920
2020-12-11 06:15 2.34 1140 4030 (1986) 354 (1956) 1420 378 436 590 623 928 2030 2370 3010 3920
2020-12-11 05:15 2.35 1140 4030 (1986) 354 (1956) 1420 378 436 590 623 928 2030 2370 3010 3920
2020-12-11 04:15 2.37 1150 4030 (1986) 354 (1956) 1420 378 436 590 623 928 2030 2370 3010 3920
2020-12-11 03:15 2.38 1150 4030 (1986) 354 (1956) 1420 378 436 590 623 928 2030 2370 3010 3920
2020-12-11 02:15 2.39 1150 4030 (1986) 354 (1956) 1420 378 436 590 623 928 2030 2370 3010 3920
2020-12-11 01:15 2.40 1160 4030 (1986) 354 (1956) 1420 378 436 590 623 928 2030 2370 3010 3920
2020-12-11 00:15 2.41 1160 4030 (1986) 354 (1956) 1420 378 436 590 623 928 2030 2370 3010 3920
2020-12-10 23:15 2.42 1160 4000 (2007) 360 (1966) 1390 378 420 531 603 952 2070 2180 3020 3790
2020-12-10 22:15 2.41 1160 4000 (2007) 360 (1966) 1390 378 420 531 603 952 2070 2180 3020 3790
2020-12-10 21:15 2.43 1170 4000 (2007) 360 (1966) 1390 378 420 531 603 952 2070 2180 3020 3790
2020-12-10 20:15 2.44 1170 4000 (2007) 360 (1966) 1390 378 420 531 603 952 2070 2180 3020 3790
2020-12-10 19:15 2.44 1170 4000 (2007) 360 (1966) 1390 378 420 531 603 952 2070 2180 3020 3790
2020-12-10 18:15 2.45 1170 4000 (2007) 360 (1966) 1390 378 420 531 603 952 2070 2180 3020 3790
2020-12-10 17:15 2.46 1180 4000 (2007) 360 (1966) 1390 378 420 531 603 952 2070 2180 3020 3790
2020-12-10 16:15 2.46 1180 4000 (2007) 360 (1966) 1390 378 420 531 603 952 2070 2180 3020 3790
2020-12-10 15:15 2.47 1180 4000 (2007) 360 (1966) 1390 378 420 531 603 952 2070 2180 3020 3790
2020-12-10 14:15 2.49 1190 4000 (2007) 360 (1966) 1390 378 420 531 603 952 2070 2180 3020 3790
2020-12-10 13:15 2.50 1190 4000 (2007) 360 (1966) 1390 378 420 531 603 952 2070 2180 3020 3790
2020-12-10 12:15 2.50 1190 4000 (2007) 360 (1966) 1390 378 420 531 603 952 2070 2180 3020 3790
2020-12-10 11:15 2.53 1200 4000 (2007) 360 (1966) 1390 378 420 531 603 952 2070 2180 3020 3790
2020-12-10 10:15 2.52 1200 4000 (2007) 360 (1966) 1390 378 420 531 603 952 2070 2180 3020 3790
2020-12-10 09:15 2.56 1210 4000 (2007) 360 (1966) 1390 378 420 531 603 952 2070 2180 3020 3790
2020-12-10 08:15 2.56 1210 4000 (2007) 360 (1966) 1390 378 420 531 603 952 2070 2180 3020 3790
2020-12-10 07:15 2.59 1220 4000 (2007) 360 (1966) 1390 378 420 531 603 952 2070 2180 3020 3790
2020-12-10 06:15 2.58 1220 4000 (2007) 360 (1966) 1390 378 420 531 603 952 2070 2180 3020 3790
2020-12-10 05:15 2.59 1220 4000 (2007) 360 (1966) 1390 378 420 531 603 952 2070 2180 3020 3790
2020-12-10 04:15 2.60 1220 4000 (2007) 360 (1966) 1390 378 420 531 603 952 2070 2180 3020 3790
2020-12-10 03:15 2.61 1230 4000 (2007) 360 (1966) 1390 378 420 531 603 952 2070 2180 3020 3790
2020-12-10 02:15 2.63 1230 4000 (2007) 360 (1966) 1390 378 420 531 603 952 2070 2180 3020 3790
2020-12-10 01:15 2.64 1240 4000 (2007) 360 (1966) 1390 378 420 531 603 952 2070 2180 3020 3790
2020-12-10 00:15 2.63 1230 4000 (2007) 360 (1966) 1390 378 420 531 603 952 2070 2180 3020 3790
2020-12-09 23:15 2.63 1230 4500 (1973) 358 (1966) 1410 393 414 500 547 942 2060 2210 3580 4000
2020-12-09 22:15 2.64 1240 4500 (1973) 358 (1966) 1410 393 414 500 547 942 2060 2210 3580 4000
2020-12-09 21:15 2.64 1240 4500 (1973) 358 (1966) 1410 393 414 500 547 942 2060 2210 3580 4000
2020-12-09 20:15 2.64 1240 4500 (1973) 358 (1966) 1410 393 414 500 547 942 2060 2210 3580 4000
2020-12-09 19:15 2.65 1240 4500 (1973) 358 (1966) 1410 393 414 500 547 942 2060 2210 3580 4000
2020-12-09 18:15 2.64 1240 4500 (1973) 358 (1966) 1410 393 414 500 547 942 2060 2210 3580 4000
2020-12-09 17:15 2.65 1240 4500 (1973) 358 (1966) 1410 393 414 500 547 942 2060 2210 3580 4000
2020-12-09 16:15 2.64 1240 4500 (1973) 358 (1966) 1410 393 414 500 547 942 2060 2210 3580 4000
2020-12-09 15:15 2.64 1240 4500 (1973) 358 (1966) 1410 393 414 500 547 942 2060 2210 3580 4000
2020-12-09 14:15 2.65 1240 4500 (1973) 358 (1966) 1410 393 414 500 547 942 2060 2210 3580 4000
2020-12-09 13:15 2.64 1240 4500 (1973) 358 (1966) 1410 393 414 500 547 942 2060 2210 3580 4000
2020-12-09 12:15 2.65 1240 4500 (1973) 358 (1966) 1410 393 414 500 547 942 2060 2210 3580 4000
2020-12-09 11:15 2.65 1240 4500 (1973) 358 (1966) 1410 393 414 500 547 942 2060 2210 3580 4000
2020-12-09 10:15 2.66 1250 4500 (1973) 358 (1966) 1410 393 414 500 547 942 2060 2210 3580 4000
2020-12-09 09:15 2.66 1250 4500 (1973) 358 (1966) 1410 393 414 500 547 942 2060 2210 3580 4000
2020-12-09 08:15 2.65 1240 4500 (1973) 358 (1966) 1410 393 414 500 547 942 2060 2210 3580 4000
2020-12-09 07:15 2.64 1240 4500 (1973) 358 (1966) 1410 393 414 500 547 942 2060 2210 3580 4000
2020-12-09 06:15 2.66 1250 4500 (1973) 358 (1966) 1410 393 414 500 547 942 2060 2210 3580 4000
2020-12-09 05:15 2.65 1240 4500 (1973) 358 (1966) 1410 393 414 500 547 942 2060 2210 3580 4000
2020-12-09 04:15 2.64 1240 4500 (1973) 358 (1966) 1410 393 414 500 547 942 2060 2210 3580 4000
2020-12-09 03:15 2.64 1240 4500 (1973) 358 (1966) 1410 393 414 500 547 942 2060 2210 3580 4000
2020-12-09 02:15 2.66 1250 4500 (1973) 358 (1966) 1410 393 414 500 547 942 2060 2210 3580 4000
2020-12-09 01:15 2.65 1240 4500 (1973) 358 (1966) 1410 393 414 500 547 942 2060 2210 3580 4000
2020-12-09 00:15 2.65 1240 4500 (1973) 358 (1966) 1410 393 414 500 547 942 2060 2210 3580 4000
2020-12-08 23:15 2.64 1240 4130 (1952) 311 (1954) 1400 378 418 490 537 933 1910 2110 3480 4060
2020-12-08 22:15 2.65 1240 4130 (1952) 311 (1954) 1400 378 418 490 537 933 1910 2110 3480 4060
2020-12-08 21:15 2.65 1240 4130 (1952) 311 (1954) 1400 378 418 490 537 933 1910 2110 3480 4060
2020-12-08 20:15 2.64 1240 4130 (1952) 311 (1954) 1400 378 418 490 537 933 1910 2110 3480 4060
2020-12-08 19:15 2.64 1240 4130 (1952) 311 (1954) 1400 378 418 490 537 933 1910 2110 3480 4060
2020-12-08 18:15 2.63 1230 4130 (1952) 311 (1954) 1400 378 418 490 537 933 1910 2110 3480 4060
2020-12-08 17:15 2.63 1230 4130 (1952) 311 (1954) 1400 378 418 490 537 933 1910 2110 3480 4060
2020-12-08 16:15 2.62 1230 4130 (1952) 311 (1954) 1400 378 418 490 537 933 1910 2110 3480 4060
2020-12-08 15:15 2.61 1230 4130 (1952) 311 (1954) 1400 378 418 490 537 933 1910 2110 3480 4060
2020-12-08 14:15 2.60 1220 4130 (1952) 311 (1954) 1400 378 418 490 537 933 1910 2110 3480 4060
2020-12-08 13:15 2.59 1220 4130 (1952) 311 (1954) 1400 378 418 490 537 933 1910 2110 3480 4060
2020-12-08 12:15 2.59 1220 4130 (1952) 311 (1954) 1400 378 418 490 537 933 1910 2110 3480 4060
2020-12-08 11:15 2.58 1220 4130 (1952) 311 (1954) 1400 378 418 490 537 933 1910 2110 3480 4060
2020-12-08 10:15 2.56 1210 4130 (1952) 311 (1954) 1400 378 418 490 537 933 1910 2110 3480 4060
2020-12-08 09:15 2.53 1200 4130 (1952) 311 (1954) 1400 378 418 490 537 933 1910 2110 3480 4060
2020-12-08 08:15 2.53 1200 4130 (1952) 311 (1954) 1400 378 418 490 537 933 1910 2110 3480 4060
2020-12-08 07:15 2.51 1190 4130 (1952) 311 (1954) 1400 378 418 490 537 933 1910 2110 3480 4060
2020-12-08 06:15 2.50 1190 4130 (1952) 311 (1954) 1400 378 418 490 537 933 1910 2110 3480 4060
2020-12-08 05:15 2.49 1190 4130 (1952) 311 (1954) 1400 378 418 490 537 933 1910 2110 3480 4060
2020-12-08 04:15 2.48 1180 4130 (1952) 311 (1954) 1400 378 418 490 537 933 1910 2110 3480 4060
2020-12-08 03:15 2.47 1180 4130 (1952) 311 (1954) 1400 378 418 490 537 933 1910 2110 3480 4060
2020-12-08 02:15 2.46 1180 4130 (1952) 311 (1954) 1400 378 418 490 537 933 1910 2110 3480 4060
2020-12-08 01:15 2.47 1180 4130 (1952) 311 (1954) 1400 378 418 490 537 933 1910 2110 3480 4060
2020-12-08 00:15 2.47 1180 4130 (1952) 311 (1954) 1400 378 418 490 537 933 1910 2110 3480 4060
2020-12-07 23:15 2.48 1180 4150 (2007) 330 (1954) 1430 378 416 499 535 1010 2050 2290 3520 4090
2020-12-07 22:15 2.47 1180 4150 (2007) 330 (1954) 1430 378 416 499 535 1010 2050 2290 3520 4090
2020-12-07 21:15 2.48 1180 4150 (2007) 330 (1954) 1430 378 416 499 535 1010 2050 2290 3520 4090
2020-12-07 20:15 2.48 1180 4150 (2007) 330 (1954) 1430 378 416 499 535 1010 2050 2290 3520 4090
2020-12-07 19:15 2.49 1190 4150 (2007) 330 (1954) 1430 378 416 499 535 1010 2050 2290 3520 4090
2020-12-07 18:15 2.49 1190 4150 (2007) 330 (1954) 1430 378 416 499 535 1010 2050 2290 3520 4090
2020-12-07 17:15 2.50 1190 4150 (2007) 330 (1954) 1430 378 416 499 535 1010 2050 2290 3520 4090
2020-12-07 16:15 2.50 1190 4150 (2007) 330 (1954) 1430 378 416 499 535 1010 2050 2290 3520 4090
2020-12-07 15:15 2.50 1190 4150 (2007) 330 (1954) 1430 378 416 499 535 1010 2050 2290 3520 4090
2020-12-07 14:15 2.52 1200 4150 (2007) 330 (1954) 1430 378 416 499 535 1010 2050 2290 3520 4090
2020-12-07 13:15 2.52 1200 4150 (2007) 330 (1954) 1430 378 416 499 535 1010 2050 2290 3520 4090
2020-12-07 12:15 2.51 1190 4150 (2007) 330 (1954) 1430 378 416 499 535 1010 2050 2290 3520 4090
2020-12-07 11:15 2.52 1200 4150 (2007) 330 (1954) 1430 378 416 499 535 1010 2050 2290 3520 4090
2020-12-07 10:15 2.53 1200 4150 (2007) 330 (1954) 1430 378 416 499 535 1010 2050 2290 3520 4090
2020-12-07 09:15 2.53 1200 4150 (2007) 330 (1954) 1430 378 416 499 535 1010 2050 2290 3520 4090
2020-12-07 08:15 2.54 1200 4150 (2007) 330 (1954) 1430 378 416 499 535 1010 2050 2290 3520 4090
2020-12-07 07:15 2.54 1200 4150 (2007) 330 (1954) 1430 378 416 499 535 1010 2050 2290 3520 4090
2020-12-07 06:15 2.54 1200 4150 (2007) 330 (1954) 1430 378 416 499 535 1010 2050 2290 3520 4090
2020-12-07 05:15 2.55 1210 4150 (2007) 330 (1954) 1430 378 416 499 535 1010 2050 2290 3520 4090
2020-12-07 04:15 2.55 1210 4150 (2007) 330 (1954) 1430 378 416 499 535 1010 2050 2290 3520 4090
2020-12-07 03:15 2.56 1210 4150 (2007) 330 (1954) 1430 378 416 499 535 1010 2050 2290 3520 4090
2020-12-07 02:15 2.56 1210 4150 (2007) 330 (1954) 1430 378 416 499 535 1010 2050 2290 3520 4090
2020-12-07 01:15 2.57 1210 4150 (2007) 330 (1954) 1430 378 416 499 535 1010 2050 2290 3520 4090
2020-12-07 00:15 2.57 1210 4150 (2007) 330 (1954) 1430 378 416 499 535 1010 2050 2290 3520 4090
2020-12-06 23:15 2.57 1210 5890 (1983) 354 (1956) 1550 376 410 494 548 1010 2220 2760 3880 4200
2020-12-06 22:15 2.58 1220 5890 (1983) 354 (1956) 1550 376 410 494 548 1010 2220 2760 3880 4200
2020-12-06 21:15 2.58 1220 5890 (1983) 354 (1956) 1550 376 410 494 548 1010 2220 2760 3880 4200
2020-12-06 20:15 2.60 1220 5890 (1983) 354 (1956) 1550 376 410 494 548 1010 2220 2760 3880 4200
2020-12-06 19:15 2.61 1230 5890 (1983) 354 (1956) 1550 376 410 494 548 1010 2220 2760 3880 4200
2020-12-06 18:15 2.61 1230 5890 (1983) 354 (1956) 1550 376 410 494 548 1010 2220 2760 3880 4200
2020-12-06 17:15 2.61 1230 5890 (1983) 354 (1956) 1550 376 410 494 548 1010 2220 2760 3880 4200
2020-12-06 16:15 2.62 1230 5890 (1983) 354 (1956) 1550 376 410 494 548 1010 2220 2760 3880 4200
2020-12-06 15:15 2.63 1230 5890 (1983) 354 (1956) 1550 376 410 494 548 1010 2220 2760 3880 4200
2020-12-06 14:15 2.65 1240 5890 (1983) 354 (1956) 1550 376 410 494 548 1010 2220 2760 3880 4200
2020-12-06 13:15 2.65 1240 5890 (1983) 354 (1956) 1550 376 410 494 548 1010 2220 2760 3880 4200
2020-12-06 12:15 2.65 1240 5890 (1983) 354 (1956) 1550 376 410 494 548 1010 2220 2760 3880 4200
2020-12-06 11:15 2.66 1250 5890 (1983) 354 (1956) 1550 376 410 494 548 1010 2220 2760 3880 4200
2020-12-06 10:15 2.67 1250 5890 (1983) 354 (1956) 1550 376 410 494 548 1010 2220 2760 3880 4200
2020-12-06 09:15 2.68 1250 5890 (1983) 354 (1956) 1550 376 410 494 548 1010 2220 2760 3880 4200
2020-12-06 08:15 2.68 1250 5890 (1983) 354 (1956) 1550 376 410 494 548 1010 2220 2760 3880 4200
2020-12-06 07:15 2.69 1260 5890 (1983) 354 (1956) 1550 376 410 494 548 1010 2220 2760 3880 4200
2020-12-06 06:15 2.71 1260 5890 (1983) 354 (1956) 1550 376 410 494 548 1010 2220 2760 3880 4200
2020-12-06 05:15 2.71 1260 5890 (1983) 354 (1956) 1550 376 410 494 548 1010 2220 2760 3880 4200
2020-12-06 04:15 2.72 1270 5890 (1983) 354 (1956) 1550 376 410 494 548 1010 2220 2760 3880 4200
2020-12-06 03:15 2.74 1270 5890 (1983) 354 (1956) 1550 376 410 494 548 1010 2220 2760 3880 4200
2020-12-06 02:15 2.75 1280 5890 (1983) 354 (1956) 1550 376 410 494 548 1010 2220 2760 3880 4200
2020-12-06 01:15 2.76 1280 5890 (1983) 354 (1956) 1550 376 410 494 548 1010 2220 2760 3880 4200
2020-12-06 00:15 2.76 1280 5890 (1983) 354 (1956) 1550 376 410 494 548 1010 2220 2760 3880 4200
2020-12-05 23:15 2.78 1290 17700 (1983) 365 (1954) 1730 377 413 493 522 948 2080 3050 3870 4300
2020-12-05 22:15 2.80 1290 17700 (1983) 365 (1954) 1730 377 413 493 522 948 2080 3050 3870 4300
2020-12-05 21:15 2.81 1300 17700 (1983) 365 (1954) 1730 377 413 493 522 948 2080 3050 3870 4300
2020-12-05 20:15 2.83 1300 17700 (1983) 365 (1954) 1730 377 413 493 522 948 2080 3050 3870 4300
2020-12-05 19:15 2.84 1310 17700 (1983) 365 (1954) 1730 377 413 493 522 948 2080 3050 3870 4300
2020-12-05 18:15 2.87 1320 17700 (1983) 365 (1954) 1730 377 413 493 522 948 2080 3050 3870 4300
2020-12-05 17:15 2.89 1320 17700 (1983) 365 (1954) 1730 377 413 493 522 948 2080 3050 3870 4300
2020-12-05 16:15 2.93 1340 17700 (1983) 365 (1954) 1730 377 413 493 522 948 2080 3050 3870 4300
2020-12-05 15:15 2.94 1340 17700 (1983) 365 (1954) 1730 377 413 493 522 948 2080 3050 3870 4300
2020-12-05 14:15 2.97 1350 17700 (1983) 365 (1954) 1730 377 413 493 522 948 2080 3050 3870 4300
2020-12-05 13:15 3.01 1370 17700 (1983) 365 (1954) 1730 377 413 493 522 948 2080 3050 3870 4300
2020-12-05 12:15 3.04 1380 17700 (1983) 365 (1954) 1730 377 413 493 522 948 2080 3050 3870 4300
2020-12-05 11:15 3.07 1390 17700 (1983) 365 (1954) 1730 377 413 493 522 948 2080 3050 3870 4300
2020-12-05 10:15 3.10 1400 17700 (1983) 365 (1954) 1730 377 413 493 522 948 2080 3050 3870 4300
2020-12-05 09:15 3.14 1410 17700 (1983) 365 (1954) 1730 377 413 493 522 948 2080 3050 3870 4300
2020-12-05 08:15 3.18 1420 17700 (1983) 365 (1954) 1730 377 413 493 522 948 2080 3050 3870 4300
2020-12-05 07:15 3.20 1430 17700 (1983) 365 (1954) 1730 377 413 493 522 948 2080 3050 3870 4300
2020-12-05 06:15 3.26 1450 17700 (1983) 365 (1954) 1730 377 413 493 522 948 2080 3050 3870 4300
2020-12-05 05:15 3.29 1460 17700 (1983) 365 (1954) 1730 377 413 493 522 948 2080 3050 3870 4300
2020-12-05 04:15 3.31 1470 17700 (1983) 365 (1954) 1730 377 413 493 522 948 2080 3050 3870 4300
2020-12-05 03:15 3.33 1480 17700 (1983) 365 (1954) 1730 377 413 493 522 948 2080 3050 3870 4300
2020-12-05 02:15 3.35 1480 17700 (1983) 365 (1954) 1730 377 413 493 522 948 2080 3050 3870 4300
2020-12-05 01:15 3.38 1490 17700 (1983) 365 (1954) 1730 377 413 493 522 948 2080 3050 3870 4300
2020-12-05 00:15 3.38 1490 17700 (1983) 365 (1954) 1730 377 413 493 522 948 2080 3050 3870 4300
2020-12-04 23:15 3.39 1500 26700 (1983) 324 (1955) 1800 385 411 495 548 928 2130 2910 3720 4040
2020-12-04 22:15 3.41 1500 26700 (1983) 324 (1955) 1800 385 411 495 548 928 2130 2910 3720 4040
2020-12-04 21:15 3.42 1510 26700 (1983) 324 (1955) 1800 385 411 495 548 928 2130 2910 3720 4040
2020-12-04 20:15 3.42 1510 26700 (1983) 324 (1955) 1800 385 411 495 548 928 2130 2910 3720 4040
2020-12-04 19:15 3.43 1510 26700 (1983) 324 (1955) 1800 385 411 495 548 928 2130 2910 3720 4040
2020-12-04 18:15 3.44 1520 26700 (1983) 324 (1955) 1800 385 411 495 548 928 2130 2910 3720 4040
2020-12-04 17:15 3.46 1520 26700 (1983) 324 (1955) 1800 385 411 495 548 928 2130 2910 3720 4040
2020-12-04 16:15 3.47 1530 26700 (1983) 324 (1955) 1800 385 411 495 548 928 2130 2910 3720 4040
2020-12-04 15:15 3.47 1530 26700 (1983) 324 (1955) 1800 385 411 495 548 928 2130 2910 3720 4040
2020-12-04 14:15 3.49 1530 26700 (1983) 324 (1955) 1800 385 411 495 548 928 2130 2910 3720 4040
2020-12-04 13:15 3.49 1530 26700 (1983) 324 (1955) 1800 385 411 495 548 928 2130 2910 3720 4040
2020-12-04 12:15 3.51 1540 26700 (1983) 324 (1955) 1800 385 411 495 548 928 2130 2910 3720 4040
2020-12-04 11:15 3.52 1540 26700 (1983) 324 (1955) 1800 385 411 495 548 928 2130 2910 3720 4040
2020-12-04 10:15 3.54 1550 26700 (1983) 324 (1955) 1800 385 411 495 548 928 2130 2910 3720 4040
2020-12-04 09:15 3.56 1560 26700 (1983) 324 (1955) 1800 385 411 495 548 928 2130 2910 3720 4040
2020-12-04 08:15 3.56 1560 26700 (1983) 324 (1955) 1800 385 411 495 548 928 2130 2910 3720 4040
2020-12-04 07:15 3.59 1570 26700 (1983) 324 (1955) 1800 385 411 495 548 928 2130 2910 3720 4040
2020-12-04 06:15 3.60 1570 26700 (1983) 324 (1955) 1800 385 411 495 548 928 2130 2910 3720 4040
2020-12-04 05:15 3.62 1580 26700 (1983) 324 (1955) 1800 385 411 495 548 928 2130 2910 3720 4040
2020-12-04 04:15 3.64 1590 26700 (1983) 324 (1955) 1800 385 411 495 548 928 2130 2910 3720 4040
2020-12-04 03:15 3.66 1590 26700 (1983) 324 (1955) 1800 385 411 495 548 928 2130 2910 3720 4040
2020-12-04 02:15 3.68 1600 26700 (1983) 324 (1955) 1800 385 411 495 548 928 2130 2910 3720 4040
2020-12-04 01:15 3.70 1610 26700 (1983) 324 (1955) 1800 385 411 495 548 928 2130 2910 3720 4040
2020-12-04 00:15 3.73 1620 26700 (1983) 324 (1955) 1800 385 411 495 548 928 2130 2910 3720 4040
2020-12-03 23:15 3.76 1630 5840 (1983) 314 (1955) 1480 375 418 518 539 914 2080 2550 3640 3980
2020-12-03 22:15 3.78 1630 5840 (1983) 314 (1955) 1480 375 418 518 539 914 2080 2550 3640 3980
2020-12-03 21:15 3.82 1650 5840 (1983) 314 (1955) 1480 375 418 518 539 914 2080 2550 3640 3980
2020-12-03 20:15 3.86 1660 5840 (1983) 314 (1955) 1480 375 418 518 539 914 2080 2550 3640 3980
2020-12-03 19:15 3.89 1670 5840 (1983) 314 (1955) 1480 375 418 518 539 914 2080 2550 3640 3980
2020-12-03 18:15 3.93 1690 5840 (1983) 314 (1955) 1480 375 418 518 539 914 2080 2550 3640 3980
2020-12-03 17:15 3.97 1700 5840 (1983) 314 (1955) 1480 375 418 518 539 914 2080 2550 3640 3980
2020-12-03 16:15 4.03 1720 5840 (1983) 314 (1955) 1480 375 418 518 539 914 2080 2550 3640 3980
2020-12-03 15:15 4.08 1740 5840 (1983) 314 (1955) 1480 375 418 518 539 914 2080 2550 3640 3980
2020-12-03 14:15 4.14 1760 5840 (1983) 314 (1955) 1480 375 418 518 539 914 2080 2550 3640 3980
2020-12-03 13:15 4.21 1790 5840 (1983) 314 (1955) 1480 375 418 518 539 914 2080 2550 3640 3980
2020-12-03 12:15 4.27 1810 5840 (1983) 314 (1955) 1480 375 418 518 539 914 2080 2550 3640 3980
2020-12-03 11:15 4.34 1830 5840 (1983) 314 (1955) 1480 375 418 518 539 914 2080 2550 3640 3980
2020-12-03 10:15 4.43 1860 5840 (1983) 314 (1955) 1480 375 418 518 539 914 2080 2550 3640 3980
2020-12-03 09:15 4.51 1890 5840 (1983) 314 (1955) 1480 375 418 518 539 914 2080 2550 3640 3980
2020-12-03 08:15 4.60 1920 5840 (1983) 314 (1955) 1480 375 418 518 539 914 2080 2550 3640 3980
2020-12-03 07:15 4.70 1960 5840 (1983) 314 (1955) 1480 375 418 518 539 914 2080 2550 3640 3980
2020-12-03 06:15 4.77 1980 5840 (1983) 314 (1955) 1480 375 418 518 539 914 2080 2550 3640 3980
2020-12-03 05:15 4.89 2030 5840 (1983) 314 (1955) 1480 375 418 518 539 914 2080 2550 3640 3980
2020-12-03 04:15 4.96 2050 5840 (1983) 314 (1955) 1480 375 418 518 539 914 2080 2550 3640 3980
2020-12-03 03:15 5.05 2080 5840 (1983) 314 (1955) 1480 375 418 518 539 914 2080 2550 3640 3980
2020-12-03 02:15 5.12 2110 5840 (1983) 314 (1955) 1480 375 418 518 539 914 2080 2550 3640 3980
2020-12-03 01:15 5.19 2130 5840 (1983) 314 (1955) 1480 375 418 518 539 914 2080 2550 3640 3980
2020-12-03 00:15 5.26 2160 5840 (1983) 314 (1955) 1480 375 418 518 539 914 2080 2550 3640 3980
2020-12-02 23:15 5.32 2180 4330 (2007) 311 (1955) 1380 368 424 488 536 947 2020 2380 3280 3930
2020-12-02 22:15 5.37 2200 4330 (2007) 311 (1955) 1380 368 424 488 536 947 2020 2380 3280 3930
2020-12-02 21:15 5.42 2220 4330 (2007) 311 (1955) 1380 368 424 488 536 947 2020 2380 3280 3930
2020-12-02 20:15 5.46 2230 4330 (2007) 311 (1955) 1380 368 424 488 536 947 2020 2380 3280 3930
2020-12-02 19:15 5.53 2260 4330 (2007) 311 (1955) 1380 368 424 488 536 947 2020 2380 3280 3930
2020-12-02 18:15 5.58 2270 4330 (2007) 311 (1955) 1380 368 424 488 536 947 2020 2380 3280 3930
2020-12-02 17:15 5.66 2300 4330 (2007) 311 (1955) 1380 368 424 488 536 947 2020 2380 3280 3930
2020-12-02 16:15 5.72 2320 4330 (2007) 311 (1955) 1380 368 424 488 536 947 2020 2380 3280 3930
2020-12-02 15:15 5.81 2360 4330 (2007) 311 (1955) 1380 368 424 488 536 947 2020 2380 3280 3930
2020-12-02 14:15 5.89 2380 4330 (2007) 311 (1955) 1380 368 424 488 536 947 2020 2380 3280 3930
2020-12-02 13:15 5.97 2410 4330 (2007) 311 (1955) 1380 368 424 488 536 947 2020 2380 3280 3930
2020-12-02 12:15 6.09 2460 4330 (2007) 311 (1955) 1380 368 424 488 536 947 2020 2380 3280 3930
2020-12-02 11:15 6.18 2490 4330 (2007) 311 (1955) 1380 368 424 488 536 947 2020 2380 3280 3930
2020-12-02 10:15 6.30 2540 4330 (2007) 311 (1955) 1380 368 424 488 536 947 2020 2380 3280 3930
2020-12-02 09:15 6.42 2580 4330 (2007) 311 (1955) 1380 368 424 488 536 947 2020 2380 3280 3930
2020-12-02 08:15 6.55 2630 4330 (2007) 311 (1955) 1380 368 424 488 536 947 2020 2380 3280 3930
2020-12-02 07:15 6.67 2670 4330 (2007) 311 (1955) 1380 368 424 488 536 947 2020 2380 3280 3930
2020-12-02 06:15 6.79 2720 4330 (2007) 311 (1955) 1380 368 424 488 536 947 2020 2380 3280 3930
2020-12-02 05:15 6.93 2770 4330 (2007) 311 (1955) 1380 368 424 488 536 947 2020 2380 3280 3930
2020-12-02 04:15 7.04 2810 4330 (2007) 311 (1955) 1380 368 424 488 536 947 2020 2380 3280 3930
2020-12-02 03:15 7.15 2850 4330 (2007) 311 (1955) 1380 368 424 488 536 947 2020 2380 3280 3930
2020-12-02 02:15 7.25 2890 4330 (2007) 311 (1955) 1380 368 424 488 536 947 2020 2380 3280 3930
2020-12-02 01:15 7.33 2920 4330 (2007) 311 (1955) 1380 368 424 488 536 947 2020 2380 3280 3930
2020-12-02 00:15 7.40 2940 4330 (2007) 311 (1955) 1380 368 424 488 536 947 2020 2380 3280 3930
2020-12-01 23:15 7.45 2960 3990 (2010) 292 (1955) 1360 373 419 476 526 963 1950 2210 3150 3730
2020-12-01 22:15 7.51 2980 3990 (2010) 292 (1955) 1360 373 419 476 526 963 1950 2210 3150 3730
2020-12-01 21:15 7.55 3000 3990 (2010) 292 (1955) 1360 373 419 476 526 963 1950 2210 3150 3730
2020-12-01 20:15 7.58 3010 3990 (2010) 292 (1955) 1360 373 419 476 526 963 1950 2210 3150 3730
2020-12-01 19:15 7.61 3020 3990 (2010) 292 (1955) 1360 373 419 476 526 963 1950 2210 3150 3730
2020-12-01 18:15 7.65 3040 3990 (2010) 292 (1955) 1360 373 419 476 526 963 1950 2210 3150 3730
2020-12-01 17:15 7.70 3060 3990 (2010) 292 (1955) 1360 373 419 476 526 963 1950 2210 3150 3730
2020-12-01 16:15 7.73 3070 3990 (2010) 292 (1955) 1360 373 419 476 526 963 1950 2210 3150 3730
2020-12-01 15:15 7.78 3090 3990 (2010) 292 (1955) 1360 373 419 476 526 963 1950 2210 3150 3730
2020-12-01 14:15 7.84 3110 3990 (2010) 292 (1955) 1360 373 419 476 526 963 1950 2210 3150 3730
2020-12-01 13:15 7.89 3130 3990 (2010) 292 (1955) 1360 373 419 476 526 963 1950 2210 3150 3730
2020-12-01 12:15 7.95 3150 3990 (2010) 292 (1955) 1360 373 419 476 526 963 1950 2210 3150 3730
2020-12-01 11:15 8.01 3170 3990 (2010) 292 (1955) 1360 373 419 476 526 963 1950 2210 3150 3730
2020-12-01 10:15 8.07 3190 3990 (2010) 292 (1955) 1360 373 419 476 526 963 1950 2210 3150 3730
2020-12-01 09:15 8.15 3220 3990 (2010) 292 (1955) 1360 373 419 476 526 963 1950 2210 3150 3730
2020-12-01 08:15 8.22 3250 3990 (2010) 292 (1955) 1360 373 419 476 526 963 1950 2210 3150 3730
2020-12-01 07:15 8.29 3280 3990 (2010) 292 (1955) 1360 373 419 476 526 963 1950 2210 3150 3730
2020-12-01 06:15 8.36 3300 3990 (2010) 292 (1955) 1360 373 419 476 526 963 1950 2210 3150 3730
2020-12-01 05:15 8.43 3330 3990 (2010) 292 (1955) 1360 373 419 476 526 963 1950 2210 3150 3730
2020-12-01 04:15 8.48 3350 3990 (2010) 292 (1955) 1360 373 419 476 526 963 1950 2210 3150 3730
2020-12-01 03:15 8.54 3370 3990 (2010) 292 (1955) 1360 373 419 476 526 963 1950 2210 3150 3730
2020-12-01 02:15 8.59 3390 3990 (2010) 292 (1955) 1360 373 419 476 526 963 1950 2210 3150 3730
2020-12-01 01:15 8.63 3410 3990 (2010) 292 (1955) 1360 373 419 476 526 963 1950 2210 3150 3730
2020-12-01 00:15 8.67 3420 3990 (2010) 292 (1955) 1360 373 419 476 526 963 1950 2210 3150 3730
2020-11-30 23:15 8.69 3430 4020 (2004) 295 (1955) 1330 382 421 499 521 992 1770 2150 2970 3740
2020-11-30 22:15 8.71 3440 4020 (2004) 295 (1955) 1330 382 421 499 521 992 1770 2150 2970 3740
2020-11-30 21:15 8.72 3440 4020 (2004) 295 (1955) 1330 382 421 499 521 992 1770 2150 2970 3740
2020-11-30 20:15 8.74 3450 4020 (2004) 295 (1955) 1330 382 421 499 521 992 1770 2150 2970 3740
2020-11-30 19:15 8.75 3450 4020 (2004) 295 (1955) 1330 382 421 499 521 992 1770 2150 2970 3740
2020-11-30 18:15 8.76 3450 4020 (2004) 295 (1955) 1330 382 421 499 521 992 1770 2150 2970 3740
2020-11-30 17:15 8.78 3460 4020 (2004) 295 (1955) 1330 382 421 499 521 992 1770 2150 2970 3740
2020-11-30 16:15 8.79 3470 4020 (2004) 295 (1955) 1330 382 421 499 521 992 1770 2150 2970 3740
2020-11-30 15:15 8.82 3480 4020 (2004) 295 (1955) 1330 382 421 499 521 992 1770 2150 2970 3740
2020-11-30 14:15 8.80 3470 4020 (2004) 295 (1955) 1330 382 421 499 521 992 1770 2150 2970 3740
2020-11-30 13:15 8.82 3480 4020 (2004) 295 (1955) 1330 382 421 499 521 992 1770 2150 2970 3740
2020-11-30 12:15 8.83 3480 4020 (2004) 295 (1955) 1330 382 421 499 521 992 1770 2150 2970 3740
2020-11-30 11:15 8.84 3480 4020 (2004) 295 (1955) 1330 382 421 499 521 992 1770 2150 2970 3740
2020-11-30 10:15 8.85 3490 4020 (2004) 295 (1955) 1330 382 421 499 521 992 1770 2150 2970 3740
2020-11-30 09:15 8.87 3500 4020 (2004) 295 (1955) 1330 382 421 499 521 992 1770 2150 2970 3740
2020-11-30 08:15 8.88 3500 4020 (2004) 295 (1955) 1330 382 421 499 521 992 1770 2150 2970 3740
2020-11-30 07:15 8.88 3500 4020 (2004) 295 (1955) 1330 382 421 499 521 992 1770 2150 2970 3740
2020-11-30 06:15 8.90 3510 4020 (2004) 295 (1955) 1330 382 421 499 521 992 1770 2150 2970 3740
2020-11-30 05:15 8.91 3510 4020 (2004) 295 (1955) 1330 382 421 499 521 992 1770 2150 2970 3740
2020-11-30 04:15 8.92 3520 4020 (2004) 295 (1955) 1330 382 421 499 521 992 1770 2150 2970 3740
2020-11-30 03:15 8.91 3510 4020 (2004) 295 (1955) 1330 382 421 499 521 992 1770 2150 2970 3740
2020-11-30 02:15 8.94 3520 4020 (2004) 295 (1955) 1330 382 421 499 521 992 1770 2150 2970 3740
2020-11-30 01:15 8.94 3520 4020 (2004) 295 (1955) 1330 382 421 499 521 992 1770 2150 2970 3740
2020-11-30 00:15 8.96 3530 4020 (2004) 295 (1955) 1330 382 421 499 521 992 1770 2150 2970 3740
2020-11-29 23:15 8.97 3530 5980 (2016) 300 (1955) 1370 385 420 504 542 944 1960 2140 3270 4060
2020-11-29 22:15 8.98 3540 5980 (2016) 300 (1955) 1370 385 420 504 542 944 1960 2140 3270 4060
2020-11-29 21:15 8.98 3540 5980 (2016) 300 (1955) 1370 385 420 504 542 944 1960 2140 3270 4060
2020-11-29 20:15 8.99 3540 5980 (2016) 300 (1955) 1370 385 420 504 542 944 1960 2140 3270 4060
2020-11-29 19:15 9.00 3550 5980 (2016) 300 (1955) 1370 385 420 504 542 944 1960 2140 3270 4060
2020-11-29 18:15 9.00 3550 5980 (2016) 300 (1955) 1370 385 420 504 542 944 1960 2140 3270 4060
2020-11-29 17:15 9.00 3550 5980 (2016) 300 (1955) 1370 385 420 504 542 944 1960 2140 3270 4060
2020-11-29 16:15 9.02 3550 5980 (2016) 300 (1955) 1370 385 420 504 542 944 1960 2140 3270 4060
2020-11-29 15:15 9.03 3560 5980 (2016) 300 (1955) 1370 385 420 504 542 944 1960 2140 3270 4060
2020-11-29 14:15 9.04 3560 5980 (2016) 300 (1955) 1370 385 420 504 542 944 1960 2140 3270 4060
2020-11-29 13:15 9.05 3560 5980 (2016) 300 (1955) 1370 385 420 504 542 944 1960 2140 3270 4060
2020-11-29 12:15 9.06 3570 5980 (2016) 300 (1955) 1370 385 420 504 542 944 1960 2140 3270 4060
2020-11-29 11:15 9.06 3570 5980 (2016) 300 (1955) 1370 385 420 504 542 944 1960 2140 3270 4060
2020-11-29 10:15 9.09 3580 5980 (2016) 300 (1955) 1370 385 420 504 542 944 1960 2140 3270 4060
2020-11-29 09:15 9.10 3580 5980 (2016) 300 (1955) 1370 385 420 504 542 944 1960 2140 3270 4060
2020-11-29 08:15 9.10 3580 5980 (2016) 300 (1955) 1370 385 420 504 542 944 1960 2140 3270 4060
2020-11-29 07:15 9.12 3590 5980 (2016) 300 (1955) 1370 385 420 504 542 944 1960 2140 3270 4060
2020-11-29 06:15 9.12 3590 5980 (2016) 300 (1955) 1370 385 420 504 542 944 1960 2140 3270 4060
2020-11-29 05:15 9.14 3600 5980 (2016) 300 (1955) 1370 385 420 504 542 944 1960 2140 3270 4060
2020-11-29 04:15 9.15 3600 5980 (2016) 300 (1955) 1370 385 420 504 542 944 1960 2140 3270 4060
2020-11-29 03:15 9.16 3610 5980 (2016) 300 (1955) 1370 385 420 504 542 944 1960 2140 3270 4060
2020-11-29 02:15 9.17 3610 5980 (2016) 300 (1955) 1370 385 420 504 542 944 1960 2140 3270 4060
2020-11-29 01:15 9.18 3610 5980 (2016) 300 (1955) 1370 385 420 504 542 944 1960 2140 3270 4060
2020-11-29 00:15 9.19 3620 5980 (2016) 300 (1955) 1370 385 420 504 542 944 1960 2140 3270 4060
2020-11-28 23:15 9.20 3620 7580 (1985) 322 (1955) 1430 392 422 524 558 779 1970 2250 3480 4220
2020-11-28 22:15 9.21 3630 7580 (1985) 322 (1955) 1430 392 422 524 558 779 1970 2250 3480 4220
2020-11-28 21:15 9.22 3630 7580 (1985) 322 (1955) 1430 392 422 524 558 779 1970 2250 3480 4220
2020-11-28 20:15 9.23 3630 7580 (1985) 322 (1955) 1430 392 422 524 558 779 1970 2250 3480 4220
2020-11-28 19:15 9.23 3630 7580 (1985) 322 (1955) 1430 392 422 524 558 779 1970 2250 3480 4220
2020-11-28 18:15 9.25 3640 7580 (1985) 322 (1955) 1430 392 422 524 558 779 1970 2250 3480 4220
2020-11-28 17:15 9.25 3640 7580 (1985) 322 (1955) 1430 392 422 524 558 779 1970 2250 3480 4220
2020-11-28 16:15 9.25 3640 7580 (1985) 322 (1955) 1430 392 422 524 558 779 1970 2250 3480 4220
2020-11-28 15:15 9.24 3640 7580 (1985) 322 (1955) 1430 392 422 524 558 779 1970 2250 3480 4220
2020-11-28 14:15 9.24 3640 7580 (1985) 322 (1955) 1430 392 422 524 558 779 1970 2250 3480 4220
2020-11-28 13:15 9.24 3640 7580 (1985) 322 (1955) 1430 392 422 524 558 779 1970 2250 3480 4220
2020-11-28 12:15 9.24 3640 7580 (1985) 322 (1955) 1430 392 422 524 558 779 1970 2250 3480 4220
2020-11-28 11:15 9.26 3640 7580 (1985) 322 (1955) 1430 392 422 524 558 779 1970 2250 3480 4220
2020-11-28 10:15 9.26 3640 7580 (1985) 322 (1955) 1430 392 422 524 558 779 1970 2250 3480 4220
2020-11-28 09:15 9.29 3660 7580 (1985) 322 (1955) 1430 392 422 524 558 779 1970 2250 3480 4220
2020-11-28 08:15 9.28 3650 7580 (1985) 322 (1955) 1430 392 422 524 558 779 1970 2250 3480 4220
2020-11-28 07:15 9.30 3660 7580 (1985) 322 (1955) 1430 392 422 524 558 779 1970 2250 3480 4220
2020-11-28 06:15 9.31 3660 7580 (1985) 322 (1955) 1430 392 422 524 558 779 1970 2250 3480 4220
2020-11-28 05:15 9.32 3670 7580 (1985) 322 (1955) 1430 392 422 524 558 779 1970 2250 3480 4220
2020-11-28 04:15 9.33 3670 7580 (1985) 322 (1955) 1430 392 422 524 558 779 1970 2250 3480 4220
2020-11-28 03:15 9.32 3670 7580 (1985) 322 (1955) 1430 392 422 524 558 779 1970 2250 3480 4220
2020-11-28 02:15 9.32 3670 7580 (1985) 322 (1955) 1430 392 422 524 558 779 1970 2250 3480 4220
2020-11-28 01:15 9.32 3670 7580 (1985) 322 (1955) 1430 392 422 524 558 779 1970 2250 3480 4220
2020-11-28 00:15 9.32 3670 7580 (1985) 322 (1955) 1430 392 422 524 558 779 1970 2250 3480 4220
2020-11-27 23:15 9.33 3670 7580 (1974) 343 (1955) 1410 386 414 492 553 747 2020 2350 3840 4060
2020-11-27 22:15 9.34 3670 7580 (1974) 343 (1955) 1410 386 414 492 553 747 2020 2350 3840 4060
2020-11-27 21:15 9.34 3670 7580 (1974) 343 (1955) 1410 386 414 492 553 747 2020 2350 3840 4060
2020-11-27 20:15 9.35 3680 7580 (1974) 343 (1955) 1410 386 414 492 553 747 2020 2350 3840 4060
2020-11-27 19:15 9.35 3680 7580 (1974) 343 (1955) 1410 386 414 492 553 747 2020 2350 3840 4060
2020-11-27 18:15 9.35 3680 7580 (1974) 343 (1955) 1410 386 414 492 553 747 2020 2350 3840 4060
2020-11-27 17:15 9.34 3670 7580 (1974) 343 (1955) 1410 386 414 492 553 747 2020 2350 3840 4060
2020-11-27 16:15 9.34 3670 7580 (1974) 343 (1955) 1410 386 414 492 553 747 2020 2350 3840 4060
2020-11-27 15:15 9.34 3670 7580 (1974) 343 (1955) 1410 386 414 492 553 747 2020 2350 3840 4060
2020-11-27 14:15 9.34 3670 7580 (1974) 343 (1955) 1410 386 414 492 553 747 2020 2350 3840 4060
2020-11-27 13:15 9.35 3680 7580 (1974) 343 (1955) 1410 386 414 492 553 747 2020 2350 3840 4060
2020-11-27 12:15 9.33 3670 7580 (1974) 343 (1955) 1410 386 414 492 553 747 2020 2350 3840 4060
2020-11-27 11:15 9.33 3670 7580 (1974) 343 (1955) 1410 386 414 492 553 747 2020 2350 3840 4060
2020-11-27 10:15 9.32 3670 7580 (1974) 343 (1955) 1410 386 414 492 553 747 2020 2350 3840 4060
2020-11-27 09:15 9.31 3660 7580 (1974) 343 (1955) 1410 386 414 492 553 747 2020 2350 3840 4060
2020-11-27 08:15 9.30 3660 7580 (1974) 343 (1955) 1410 386 414 492 553 747 2020 2350 3840 4060
2020-11-27 07:15 9.31 3660 7580 (1974) 343 (1955) 1410 386 414 492 553 747 2020 2350 3840 4060
2020-11-27 06:15 9.29 3660 7580 (1974) 343 (1955) 1410 386 414 492 553 747 2020 2350 3840 4060
2020-11-27 05:15 9.27 3650 7580 (1974) 343 (1955) 1410 386 414 492 553 747 2020 2350 3840 4060
2020-11-27 04:15 9.25 3640 7580 (1974) 343 (1955) 1410 386 414 492 553 747 2020 2350 3840 4060
2020-11-27 03:15 9.24 3640 7580 (1974) 343 (1955) 1410 386 414 492 553 747 2020 2350 3840 4060
2020-11-27 02:15 9.22 3630 7580 (1974) 343 (1955) 1410 386 414 492 553 747 2020 2350 3840 4060
2020-11-27 01:15 9.18 3610 7580 (1974) 343 (1955) 1410 386 414 492 553 747 2020 2350 3840 4060
2020-11-27 00:15 9.17 3610 7580 (1974) 343 (1955) 1410 386 414 492 553 747 2020 2350 3840 4060
2020-11-26 23:15 9.13 3590 11800 (1974) 326 (1965) 1420 389 425 473 526 734 1510 1990 3550 4580
2020-11-26 22:15 9.11 3590 11800 (1974) 326 (1965) 1420 389 425 473 526 734 1510 1990 3550 4580
2020-11-26 21:15 9.06 3570 11800 (1974) 326 (1965) 1420 389 425 473 526 734 1510 1990 3550 4580
2020-11-26 20:15 9.02 3550 11800 (1974) 326 (1965) 1420 389 425 473 526 734 1510 1990 3550 4580
2020-11-26 19:15 8.98 3540 11800 (1974) 326 (1965) 1420 389 425 473 526 734 1510 1990 3550 4580
2020-11-26 18:15 8.93 3520 11800 (1974) 326 (1965) 1420 389 425 473 526 734 1510 1990 3550 4580
2020-11-26 17:15 8.86 3490 11800 (1974) 326 (1965) 1420 389 425 473 526 734 1510 1990 3550 4580
2020-11-26 16:15 8.82 3480 11800 (1974) 326 (1965) 1420 389 425 473 526 734 1510 1990 3550 4580
2020-11-26 15:15 8.76 3450 11800 (1974) 326 (1965) 1420 389 425 473 526 734 1510 1990 3550 4580
2020-11-26 14:15 8.68 3420 11800 (1974) 326 (1965) 1420 389 425 473 526 734 1510 1990 3550 4580
2020-11-26 13:15 8.62 3400 11800 (1974) 326 (1965) 1420 389 425 473 526 734 1510 1990 3550 4580
2020-11-26 12:15 8.56 3380 11800 (1974) 326 (1965) 1420 389 425 473 526 734 1510 1990 3550 4580
2020-11-26 11:15 8.50 3360 11800 (1974) 326 (1965) 1420 389 425 473 526 734 1510 1990 3550 4580
2020-11-26 10:15 8.44 3330 11800 (1974) 326 (1965) 1420 389 425 473 526 734 1510 1990 3550 4580
2020-11-26 09:15 8.39 3320 11800 (1974) 326 (1965) 1420 389 425 473 526 734 1510 1990 3550 4580
2020-11-26 08:15 8.36 3300 11800 (1974) 326 (1965) 1420 389 425 473 526 734 1510 1990 3550 4580
2020-11-26 07:15 8.33 3290 11800 (1974) 326 (1965) 1420 389 425 473 526 734 1510 1990 3550 4580
2020-11-26 06:15 8.33 3290 11800 (1974) 326 (1965) 1420 389 425 473 526 734 1510 1990 3550 4580
2020-11-26 05:15 8.33 3290 11800 (1974) 326 (1965) 1420 389 425 473 526 734 1510 1990 3550 4580
2020-11-26 04:15 8.37 3310 11800 (1974) 326 (1965) 1420 389 425 473 526 734 1510 1990 3550 4580
2020-11-26 03:15 8.43 3330 11800 (1974) 326 (1965) 1420 389 425 473 526 734 1510 1990 3550 4580
2020-11-26 02:15 8.49 3350 11800 (1974) 326 (1965) 1420 389 425 473 526 734 1510 1990 3550 4580
2020-11-26 01:15 8.57 3380 11800 (1974) 326 (1965) 1420 389 425 473 526 734 1510 1990 3550 4580
2020-11-26 00:15 8.64 3410 11800 (1974) 326 (1965) 1420 389 425 473 526 734 1510 1990 3550 4580
2020-11-25 23:15 8.72 3440 11000 (1974) 328 (1965) 1370 383 415 482 534 716 1590 1790 3500 4150
2020-11-25 22:15 8.76 3450 11000 (1974) 328 (1965) 1370 383 415 482 534 716 1590 1790 3500 4150
2020-11-25 21:15 8.80 3470 11000 (1974) 328 (1965) 1370 383 415 482 534 716 1590 1790 3500 4150
2020-11-25 20:15 8.82 3480 11000 (1974) 328 (1965) 1370 383 415 482 534 716 1590 1790 3500 4150
2020-11-25 19:15 8.82 3480 11000 (1974) 328 (1965) 1370 383 415 482 534 716 1590 1790 3500 4150
2020-11-25 18:15 8.79 3470 11000 (1974) 328 (1965) 1370 383 415 482 534 716 1590 1790 3500 4150
2020-11-25 17:15 8.76 3450 11000 (1974) 328 (1965) 1370 383 415 482 534 716 1590 1790 3500 4150
2020-11-25 16:15 8.70 3430 11000 (1974) 328 (1965) 1370 383 415 482 534 716 1590 1790 3500 4150
2020-11-25 15:15 8.64 3410 11000 (1974) 328 (1965) 1370 383 415 482 534 716 1590 1790 3500 4150
2020-11-25 14:15 8.57 3380 11000 (1974) 328 (1965) 1370 383 415 482 534 716 1590 1790 3500 4150
2020-11-25 13:15 8.48 3350 11000 (1974) 328 (1965) 1370 383 415 482 534 716 1590 1790 3500 4150
2020-11-25 12:15 8.37 3310 11000 (1974) 328 (1965) 1370 383 415 482 534 716 1590 1790 3500 4150
2020-11-25 11:15 8.24 3260 11000 (1974) 328 (1965) 1370 383 415 482 534 716 1590 1790 3500 4150
2020-11-25 10:15 8.11 3210 11000 (1974) 328 (1965) 1370 383 415 482 534 716 1590 1790 3500 4150
2020-11-25 09:15 7.95 3150 11000 (1974) 328 (1965) 1370 383 415 482 534 716 1590 1790 3500 4150
2020-11-25 08:15 7.80 3090 11000 (1974) 328 (1965) 1370 383 415 482 534 716 1590 1790 3500 4150
2020-11-25 07:15 7.63 3030 11000 (1974) 328 (1965) 1370 383 415 482 534 716 1590 1790 3500 4150
2020-11-25 06:15 7.47 2970 11000 (1974) 328 (1965) 1370 383 415 482 534 716 1590 1790 3500 4150
2020-11-25 05:15 7.35 2930 11000 (1974) 328 (1965) 1370 383 415 482 534 716 1590 1790 3500 4150
2020-11-25 04:15 7.24 2880 11000 (1974) 328 (1965) 1370 383 415 482 534 716 1590 1790 3500 4150
2020-11-25 03:15 7.07 2820 11000 (1974) 328 (1965) 1370 383 415 482 534 716 1590 1790 3500 4150
2020-11-25 02:15 6.96 2780 11000 (1974) 328 (1965) 1370 383 415 482 534 716 1590 1790 3500 4150
2020-11-25 01:15 6.84 2740 11000 (1974) 328 (1965) 1370 383 415 482 534 716 1590 1790 3500 4150
2020-11-25 00:15 6.74 2700 11000 (1974) 328 (1965) 1370 383 415 482 534 716 1590 1790 3500 4150
2020-11-24 23:15 6.60 2650 5620 (1952) 323 (1965) 1260 355 415 483 507 623 1770 1920 3430 4020
2020-11-24 22:15 6.48 2600 5620 (1952) 323 (1965) 1260 355 415 483 507 623 1770 1920 3430 4020
2020-11-24 21:15 6.36 2560 5620 (1952) 323 (1965) 1260 355 415 483 507 623 1770 1920 3430 4020
2020-11-24 20:15 6.23 2510 5620 (1952) 323 (1965) 1260 355 415 483 507 623 1770 1920 3430 4020
2020-11-24 19:15 6.09 2460 5620 (1952) 323 (1965) 1260 355 415 483 507 623 1770 1920 3430 4020
2020-11-24 18:15 5.95 2410 5620 (1952) 323 (1965) 1260 355 415 483 507 623 1770 1920 3430 4020
2020-11-24 17:15 5.79 2350 5620 (1952) 323 (1965) 1260 355 415 483 507 623 1770 1920 3430 4020
2020-11-24 16:15 5.60 2280 5620 (1952) 323 (1965) 1260 355 415 483 507 623 1770 1920 3430 4020
2020-11-24 15:15 5.42 2220 5620 (1952) 323 (1965) 1260 355 415 483 507 623 1770 1920 3430 4020
2020-11-24 14:15 5.23 2150 5620 (1952) 323 (1965) 1260 355 415 483 507 623 1770 1920 3430 4020
2020-11-24 13:15 5.00 2070 5620 (1952) 323 (1965) 1260 355 415 483 507 623 1770 1920 3430 4020
2020-11-24 12:15 4.78 1990 5620 (1952) 323 (1965) 1260 355 415 483 507 623 1770 1920 3430 4020
2020-11-24 11:15 4.56 1910 5620 (1952) 323 (1965) 1260 355 415 483 507 623 1770 1920 3430 4020
2020-11-24 10:15 4.33 1830 5620 (1952) 323 (1965) 1260 355 415 483 507 623 1770 1920 3430 4020
2020-11-24 09:15 4.11 1750 5620 (1952) 323 (1965) 1260 355 415 483 507 623 1770 1920 3430 4020
2020-11-24 08:15 3.89 1670 5620 (1952) 323 (1965) 1260 355 415 483 507 623 1770 1920 3430 4020
2020-11-24 07:15 3.69 1600 5620 (1952) 323 (1965) 1260 355 415 483 507 623 1770 1920 3430 4020
2020-11-24 06:15 3.51 1540 5620 (1952) 323 (1965) 1260 355 415 483 507 623 1770 1920 3430 4020
2020-11-24 05:15 3.35 1480 5620 (1952) 323 (1965) 1260 355 415 483 507 623 1770 1920 3430 4020
2020-11-24 04:15 3.21 1440 5620 (1952) 323 (1965) 1260 355 415 483 507 623 1770 1920 3430 4020
2020-11-24 03:15 3.09 1390 5620 (1952) 323 (1965) 1260 355 415 483 507 623 1770 1920 3430 4020
2020-11-24 02:15 3.01 1370 5620 (1952) 323 (1965) 1260 355 415 483 507 623 1770 1920 3430 4020
2020-11-24 01:15 2.96 1350 5620 (1952) 323 (1965) 1260 355 415 483 507 623 1770 1920 3430 4020
2020-11-24 00:15 2.93 1340 5620 (1952) 323 (1965) 1260 355 415 483 507 623 1770 1920 3430 4020
2020-11-23 23:15 2.92 1330 4080 (2010) 322 (1955) 1220 333 390 493 510 674 1750 2050 3160 3800
2020-11-23 22:15 2.92 1330 4080 (2010) 322 (1955) 1220 333 390 493 510 674 1750 2050 3160 3800
2020-11-23 21:15 2.91 1330 4080 (2010) 322 (1955) 1220 333 390 493 510 674 1750 2050 3160 3800
2020-11-23 20:15 2.91 1330 4080 (2010) 322 (1955) 1220 333 390 493 510 674 1750 2050 3160 3800
2020-11-23 19:15 2.91 1330 4080 (2010) 322 (1955) 1220 333 390 493 510 674 1750 2050 3160 3800
2020-11-23 18:15 2.92 1330 4080 (2010) 322 (1955) 1220 333 390 493 510 674 1750 2050 3160 3800
2020-11-23 17:15 2.91 1330 4080 (2010) 322 (1955) 1220 333 390 493 510 674 1750 2050 3160 3800
2020-11-23 16:15 2.93 1340 4080 (2010) 322 (1955) 1220 333 390 493 510 674 1750 2050 3160 3800
2020-11-23 15:15 2.91 1330 4080 (2010) 322 (1955) 1220 333 390 493 510 674 1750 2050 3160 3800
2020-11-23 14:15 2.93 1340 4080 (2010) 322 (1955) 1220 333 390 493 510 674 1750 2050 3160 3800
2020-11-23 13:15 2.94 1340 4080 (2010) 322 (1955) 1220 333 390 493 510 674 1750 2050 3160 3800
2020-11-23 12:15 2.93 1340 4080 (2010) 322 (1955) 1220 333 390 493 510 674 1750 2050 3160 3800
2020-11-23 11:15 2.94 1340 4080 (2010) 322 (1955) 1220 333 390 493 510 674 1750 2050 3160 3800
2020-11-23 10:15 2.93 1340 4080 (2010) 322 (1955) 1220 333 390 493 510 674 1750 2050 3160 3800
2020-11-23 09:15 2.95 1350 4080 (2010) 322 (1955) 1220 333 390 493 510 674 1750 2050 3160 3800
2020-11-23 08:15 2.95 1350 4080 (2010) 322 (1955) 1220 333 390 493 510 674 1750 2050 3160 3800
2020-11-23 07:15 2.95 1350 4080 (2010) 322 (1955) 1220 333 390 493 510 674 1750 2050 3160 3800
2020-11-23 06:15 2.96 1350 4080 (2010) 322 (1955) 1220 333 390 493 510 674 1750 2050 3160 3800
2020-11-23 05:15 2.95 1350 4080 (2010) 322 (1955) 1220 333 390 493 510 674 1750 2050 3160 3800
2020-11-23 04:15 2.96 1350 4080 (2010) 322 (1955) 1220 333 390 493 510 674 1750 2050 3160 3800
2020-11-23 03:15 2.96 1350 4080 (2010) 322 (1955) 1220 333 390 493 510 674 1750 2050 3160 3800
2020-11-23 02:15 2.95 1350 4080 (2010) 322 (1955) 1220 333 390 493 510 674 1750 2050 3160 3800
2020-11-23 01:15 2.97 1350 4080 (2010) 322 (1955) 1220 333 390 493 510 674 1750 2050 3160 3800
2020-11-23 00:15 2.98 1360 4080 (2010) 322 (1955) 1220 333 390 493 510 674 1750 2050 3160 3800
2020-11-22 23:15 2.97 1350 4140 (2010) 323 (1965) 1160 350 389 466 502 690 1330 1790 3130 3680
2020-11-22 22:15 2.97 1350 4140 (2010) 323 (1965) 1160 350 389 466 502 690 1330 1790 3130 3680
2020-11-22 21:15 2.98 1360 4140 (2010) 323 (1965) 1160 350 389 466 502 690 1330 1790 3130 3680
2020-11-22 20:15 2.97 1350 4140 (2010) 323 (1965) 1160 350 389 466 502 690 1330 1790 3130 3680
2020-11-22 19:15 2.99 1360 4140 (2010) 323 (1965) 1160 350 389 466 502 690 1330 1790 3130 3680
2020-11-22 18:15 2.97 1350 4140 (2010) 323 (1965) 1160 350 389 466 502 690 1330 1790 3130 3680
2020-11-22 17:15 2.97 1350 4140 (2010) 323 (1965) 1160 350 389 466 502 690 1330 1790 3130 3680
2020-11-22 16:15 2.98 1360 4140 (2010) 323 (1965) 1160 350 389 466 502 690 1330 1790 3130 3680
2020-11-22 15:15 2.99 1360 4140 (2010) 323 (1965) 1160 350 389 466 502 690 1330 1790 3130 3680
2020-11-22 14:15 2.97 1350 4140 (2010) 323 (1965) 1160 350 389 466 502 690 1330 1790 3130 3680
2020-11-22 13:15 2.99 1360 4140 (2010) 323 (1965) 1160 350 389 466 502 690 1330 1790 3130 3680
2020-11-22 12:15 2.98 1360 4140 (2010) 323 (1965) 1160 350 389 466 502 690 1330 1790 3130 3680
2020-11-22 11:15 2.99 1360 4140 (2010) 323 (1965) 1160 350 389 466 502 690 1330 1790 3130 3680
2020-11-22 10:15 2.98 1360 4140 (2010) 323 (1965) 1160 350 389 466 502 690 1330 1790 3130 3680
2020-11-22 09:15 2.98 1360 4140 (2010) 323 (1965) 1160 350 389 466 502 690 1330 1790 3130 3680
2020-11-22 08:15 2.98 1360 4140 (2010) 323 (1965) 1160 350 389 466 502 690 1330 1790 3130 3680
2020-11-22 07:15 2.99 1360 4140 (2010) 323 (1965) 1160 350 389 466 502 690 1330 1790 3130 3680
2020-11-22 06:15 2.99 1360 4140 (2010) 323 (1965) 1160 350 389 466 502 690 1330 1790 3130 3680
2020-11-22 05:15 3.01 1370 4140 (2010) 323 (1965) 1160 350 389 466 502 690 1330 1790 3130 3680
2020-11-22 04:15 3.03 1370 4140 (2010) 323 (1965) 1160 350 389 466 502 690 1330 1790 3130 3680
2020-11-22 03:15 3.03 1370 4140 (2010) 323 (1965) 1160 350 389 466 502 690 1330 1790 3130 3680
2020-11-22 02:15 3.03 1370 4140 (2010) 323 (1965) 1160 350 389 466 502 690 1330 1790 3130 3680
2020-11-22 01:15 3.01 1370 4140 (2010) 323 (1965) 1160 350 389 466 502 690 1330 1790 3130 3680
2020-11-22 00:15 3.04 1380 4140 (2010) 323 (1965) 1160 350 389 466 502 690 1330 1790 3130 3680
2020-11-21 23:15 3.06 1380 5680 (1992) 281 (1964) 1180 341 377 462 505 712 1230 1890 3040 3820
2020-11-21 22:15 3.09 1390 5680 (1992) 281 (1964) 1180 341 377 462 505 712 1230 1890 3040 3820
2020-11-21 21:15 3.11 1400 5680 (1992) 281 (1964) 1180 341 377 462 505 712 1230 1890 3040 3820
2020-11-21 20:15 3.14 1410 5680 (1992) 281 (1964) 1180 341 377 462 505 712 1230 1890 3040 3820
2020-11-21 19:15 3.19 1430 5680 (1992) 281 (1964) 1180 341 377 462 505 712 1230 1890 3040 3820
2020-11-21 18:15 3.22 1440 5680 (1992) 281 (1964) 1180 341 377 462 505 712 1230 1890 3040 3820
2020-11-21 17:15 3.26 1450 5680 (1992) 281 (1964) 1180 341 377 462 505 712 1230 1890 3040 3820
2020-11-21 16:15 3.31 1470 5680 (1992) 281 (1964) 1180 341 377 462 505 712 1230 1890 3040 3820
2020-11-21 15:15 3.37 1490 5680 (1992) 281 (1964) 1180 341 377 462 505 712 1230 1890 3040 3820
2020-11-21 14:15 3.42 1510 5680 (1992) 281 (1964) 1180 341 377 462 505 712 1230 1890 3040 3820
2020-11-21 13:15 3.49 1530 5680 (1992) 281 (1964) 1180 341 377 462 505 712 1230 1890 3040 3820
2020-11-21 12:15 3.55 1550 5680 (1992) 281 (1964) 1180 341 377 462 505 712 1230 1890 3040 3820
2020-11-21 11:15 3.62 1580 5680 (1992) 281 (1964) 1180 341 377 462 505 712 1230 1890 3040 3820
2020-11-21 10:15 3.71 1610 5680 (1992) 281 (1964) 1180 341 377 462 505 712 1230 1890 3040 3820
2020-11-21 09:15 3.77 1630 5680 (1992) 281 (1964) 1180 341 377 462 505 712 1230 1890 3040 3820
2020-11-21 08:15 3.86 1660 5680 (1992) 281 (1964) 1180 341 377 462 505 712 1230 1890 3040 3820
2020-11-21 07:15 3.93 1690 5680 (1992) 281 (1964) 1180 341 377 462 505 712 1230 1890 3040 3820
2020-11-21 06:15 4.01 1710 5680 (1992) 281 (1964) 1180 341 377 462 505 712 1230 1890 3040 3820
2020-11-21 05:15 4.08 1740 5680 (1992) 281 (1964) 1180 341 377 462 505 712 1230 1890 3040 3820
2020-11-21 04:15 4.15 1760 5680 (1992) 281 (1964) 1180 341 377 462 505 712 1230 1890 3040 3820
2020-11-21 03:15 4.20 1780 5680 (1992) 281 (1964) 1180 341 377 462 505 712 1230 1890 3040 3820
2020-11-21 02:15 4.25 1800 5680 (1992) 281 (1964) 1180 341 377 462 505 712 1230 1890 3040 3820
2020-11-21 01:15 4.28 1810 5680 (1992) 281 (1964) 1180 341 377 462 505 712 1230 1890 3040 3820
2020-11-21 00:15 4.29 1810 5680 (1992) 281 (1964) 1180 341 377 462 505 712 1230 1890 3040 3820
2020-11-20 23:15 4.31 1820 6520 (1992) 279 (1964) 1240 347 386 456 501 716 1580 1960 2920 4240
2020-11-20 22:15 4.31 1820 6520 (1992) 279 (1964) 1240 347 386 456 501 716 1580 1960 2920 4240
2020-11-20 21:15 4.31 1820 6520 (1992) 279 (1964) 1240 347 386 456 501 716 1580 1960 2920 4240
2020-11-20 20:15 4.31 1820 6520 (1992) 279 (1964) 1240 347 386 456 501 716 1580 1960 2920 4240
2020-11-20 19:15 4.31 1820 6520 (1992) 279 (1964) 1240 347 386 456 501 716 1580 1960 2920 4240
2020-11-20 18:15 4.31 1820 6520 (1992) 279 (1964) 1240 347 386 456 501 716 1580 1960 2920 4240
2020-11-20 17:15 4.32 1820 6520 (1992) 279 (1964) 1240 347 386 456 501 716 1580 1960 2920 4240
2020-11-20 16:15 4.33 1830 6520 (1992) 279 (1964) 1240 347 386 456 501 716 1580 1960 2920 4240
2020-11-20 15:15 4.32 1820 6520 (1992) 279 (1964) 1240 347 386 456 501 716 1580 1960 2920 4240
2020-11-20 14:15 4.33 1830 6520 (1992) 279 (1964) 1240 347 386 456 501 716 1580 1960 2920 4240
2020-11-20 13:15 4.32 1820 6520 (1992) 279 (1964) 1240 347 386 456 501 716 1580 1960 2920 4240
2020-11-20 12:15 4.32 1820 6520 (1992) 279 (1964) 1240 347 386 456 501 716 1580 1960 2920 4240
2020-11-20 11:15 4.31 1820 6520 (1992) 279 (1964) 1240 347 386 456 501 716 1580 1960 2920 4240
2020-11-20 10:15 4.32 1820 6520 (1992) 279 (1964) 1240 347 386 456 501 716 1580 1960 2920 4240
2020-11-20 09:15 4.32 1820 6520 (1992) 279 (1964) 1240 347 386 456 501 716 1580 1960 2920 4240
2020-11-20 08:15 4.32 1820 6520 (1992) 279 (1964) 1240 347 386 456 501 716 1580 1960 2920 4240
2020-11-20 07:15 4.31 1820 6520 (1992) 279 (1964) 1240 347 386 456 501 716 1580 1960 2920 4240
2020-11-20 06:15 4.33 1830 6520 (1992) 279 (1964) 1240 347 386 456 501 716 1580 1960 2920 4240
2020-11-20 05:15 4.32 1820 6520 (1992) 279 (1964) 1240 347 386 456 501 716 1580 1960 2920 4240
2020-11-20 04:15 4.32 1820 6520 (1992) 279 (1964) 1240 347 386 456 501 716 1580 1960 2920 4240
2020-11-20 03:15 4.32 1820 6520 (1992) 279 (1964) 1240 347 386 456 501 716 1580 1960 2920 4240
2020-11-20 02:15 4.32 1820 6520 (1992) 279 (1964) 1240 347 386 456 501 716 1580 1960 2920 4240
2020-11-20 01:15 4.32 1820 6520 (1992) 279 (1964) 1240 347 386 456 501 716 1580 1960 2920 4240
2020-11-20 00:15 4.32 1820 6520 (1992) 279 (1964) 1240 347 386 456 501 716 1580 1960 2920 4240
2020-11-19 23:15 4.31 1820 6140 (2016) 261 (1957) 1240 340 388 454 503 661 1390 2010 3190 4540
2020-11-19 22:15 4.32 1820 6140 (2016) 261 (1957) 1240 340 388 454 503 661 1390 2010 3190 4540
2020-11-19 21:15 4.31 1820 6140 (2016) 261 (1957) 1240 340 388 454 503 661 1390 2010 3190 4540
2020-11-19 20:15 4.32 1820 6140 (2016) 261 (1957) 1240 340 388 454 503 661 1390 2010 3190 4540
2020-11-19 19:15 4.32 1820 6140 (2016) 261 (1957) 1240 340 388 454 503 661 1390 2010 3190 4540
2020-11-19 18:15 4.32 1820 6140 (2016) 261 (1957) 1240 340 388 454 503 661 1390 2010 3190 4540
2020-11-19 17:15 4.31 1820 6140 (2016) 261 (1957) 1240 340 388 454 503 661 1390 2010 3190 4540
2020-11-19 16:15 4.31 1820 6140 (2016) 261 (1957) 1240 340 388 454 503 661 1390 2010 3190 4540
2020-11-19 15:15 4.30 1820 6140 (2016) 261 (1957) 1240 340 388 454 503 661 1390 2010 3190 4540
2020-11-19 14:15 4.30 1820 6140 (2016) 261 (1957) 1240 340 388 454 503 661 1390 2010 3190 4540
2020-11-19 13:15 4.29 1810 6140 (2016) 261 (1957) 1240 340 388 454 503 661 1390 2010 3190 4540
2020-11-19 12:15 4.28 1810 6140 (2016) 261 (1957) 1240 340 388 454 503 661 1390 2010 3190 4540
2020-11-19 11:15 4.29 1810 6140 (2016) 261 (1957) 1240 340 388 454 503 661 1390 2010 3190 4540
2020-11-19 10:15 4.29 1810 6140 (2016) 261 (1957) 1240 340 388 454 503 661 1390 2010 3190 4540
2020-11-19 09:15 4.29 1810 6140 (2016) 261 (1957) 1240 340 388 454 503 661 1390 2010 3190 4540
2020-11-19 08:15 4.29 1810 6140 (2016) 261 (1957) 1240 340 388 454 503 661 1390 2010 3190 4540
2020-11-19 07:15 4.31 1820 6140 (2016) 261 (1957) 1240 340 388 454 503 661 1390 2010 3190 4540
2020-11-19 06:15 4.29 1810 6140 (2016) 261 (1957) 1240 340 388 454 503 661 1390 2010 3190 4540
2020-11-19 05:15 4.29 1810 6140 (2016) 261 (1957) 1240 340 388 454 503 661 1390 2010 3190 4540
2020-11-19 04:15 4.27 1810 6140 (2016) 261 (1957) 1240 340 388 454 503 661 1390 2010 3190 4540
2020-11-19 03:15 4.27 1810 6140 (2016) 261 (1957) 1240 340 388 454 503 661 1390 2010 3190 4540
2020-11-19 02:15 4.27 1810 6140 (2016) 261 (1957) 1240 340 388 454 503 661 1390 2010 3190 4540
2020-11-19 01:15 4.26 1800 6140 (2016) 261 (1957) 1240 340 388 454 503 661 1390 2010 3190 4540
2020-11-19 00:15 4.27 1810 6140 (2016) 261 (1957) 1240 340 388 454 503 661 1390 2010 3190 4540
2020-11-18 23:15 4.26 1800 6580 (1959) 263 (1957) 1200 314 391 447 479 686 1300 1880 2700 4160
2020-11-18 22:15 4.24 1800 6580 (1959) 263 (1957) 1200 314 391 447 479 686 1300 1880 2700 4160
2020-11-18 21:15 4.24 1800 6580 (1959) 263 (1957) 1200 314 391 447 479 686 1300 1880 2700 4160
2020-11-18 20:15 4.24 1800 6580 (1959) 263 (1957) 1200 314 391 447 479 686 1300 1880 2700 4160
2020-11-18 19:15 4.24 1800 6580 (1959) 263 (1957) 1200 314 391 447 479 686 1300 1880 2700 4160
2020-11-18 18:15 4.22 1790 6580 (1959) 263 (1957) 1200 314 391 447 479 686 1300 1880 2700 4160
2020-11-18 17:15 4.21 1790 6580 (1959) 263 (1957) 1200 314 391 447 479 686 1300 1880 2700 4160
2020-11-18 16:15 4.20 1780 6580 (1959) 263 (1957) 1200 314 391 447 479 686 1300 1880 2700 4160
2020-11-18 15:15 4.20 1780 6580 (1959) 263 (1957) 1200 314 391 447 479 686 1300 1880 2700 4160
2020-11-18 14:15 4.21 1790 6580 (1959) 263 (1957) 1200 314 391 447 479 686 1300 1880 2700 4160
2020-11-18 13:15 4.18 1770 6580 (1959) 263 (1957) 1200 314 391 447 479 686 1300 1880 2700 4160
2020-11-18 12:15 4.17 1770 6580 (1959) 263 (1957) 1200 314 391 447 479 686 1300 1880 2700 4160
2020-11-18 11:15 4.15 1760 6580 (1959) 263 (1957) 1200 314 391 447 479 686 1300 1880 2700 4160
2020-11-18 10:15 4.15 1760 6580 (1959) 263 (1957) 1200 314 391 447 479 686 1300 1880 2700 4160
2020-11-18 09:15 4.13 1760 6580 (1959) 263 (1957) 1200 314 391 447 479 686 1300 1880 2700 4160
2020-11-18 08:15 4.12 1750 6580 (1959) 263 (1957) 1200 314 391 447 479 686 1300 1880 2700 4160
2020-11-18 07:15 4.09 1740 6580 (1959) 263 (1957) 1200 314 391 447 479 686 1300 1880 2700 4160
2020-11-18 06:15 4.08 1740 6580 (1959) 263 (1957) 1200 314 391 447 479 686 1300 1880 2700 4160
2020-11-18 05:15 4.06 1730 6580 (1959) 263 (1957) 1200 314 391 447 479 686 1300 1880 2700 4160
2020-11-18 04:15 4.03 1720 6580 (1959) 263 (1957) 1200 314 391 447 479 686 1300 1880 2700 4160
2020-11-18 03:15 4.03 1720 6580 (1959) 263 (1957) 1200 314 391 447 479 686 1300 1880 2700 4160
2020-11-18 02:15 3.98 1700 6580 (1959) 263 (1957) 1200 314 391 447 479 686 1300 1880 2700 4160
2020-11-18 01:15 3.96 1700 6580 (1959) 263 (1957) 1200 314 391 447 479 686 1300 1880 2700 4160
2020-11-18 00:15 3.92 1680 6580 (1959) 263 (1957) 1200 314 391 447 479 686 1300 1880 2700 4160
2020-11-17 23:15 3.88 1670 4300 (2010) 273 (1957) 1040 303 383 432 491 724 1270 1690 2220 3140
2020-11-17 22:15 3.84 1660 4300 (2010) 273 (1957) 1040 303 383 432 491 724 1270 1690 2220 3140
2020-11-17 21:15 3.79 1640 4300 (2010) 273 (1957) 1040 303 383 432 491 724 1270 1690 2220 3140
2020-11-17 20:15 3.75 1620 4300 (2010) 273 (1957) 1040 303 383 432 491 724 1270 1690 2220 3140
2020-11-17 19:15 3.68 1600 4300 (2010) 273 (1957) 1040 303 383 432 491 724 1270 1690 2220 3140
2020-11-17 18:15 3.63 1580 4300 (2010) 273 (1957) 1040 303 383 432 491 724 1270 1690 2220 3140
2020-11-17 17:15 3.55 1550 4300 (2010) 273 (1957) 1040 303 383 432 491 724 1270 1690 2220 3140
2020-11-17 16:15 3.48 1530 4300 (2010) 273 (1957) 1040 303 383 432 491 724 1270 1690 2220 3140
2020-11-17 15:15 3.39 1500 4300 (2010) 273 (1957) 1040 303 383 432 491 724 1270 1690 2220 3140
2020-11-17 14:15 3.28 1460 4300 (2010) 273 (1957) 1040 303 383 432 491 724 1270 1690 2220 3140
2020-11-17 13:15 3.17 1420 4300 (2010) 273 (1957) 1040 303 383 432 491 724 1270 1690 2220 3140
2020-11-17 12:15 3.06 1380 4300 (2010) 273 (1957) 1040 303 383 432 491 724 1270 1690 2220 3140
2020-11-17 11:15 2.91 1330 4300 (2010) 273 (1957) 1040 303 383 432 491 724 1270 1690 2220 3140
2020-11-17 10:15 2.77 1280 4300 (2010) 273 (1957) 1040 303 383 432 491 724 1270 1690 2220 3140
2020-11-17 09:15 2.61 1230 4300 (2010) 273 (1957) 1040 303 383 432 491 724 1270 1690 2220 3140
2020-11-17 08:15 2.46 1180 4300 (2010) 273 (1957) 1040 303 383 432 491 724 1270 1690 2220 3140
2020-11-17 07:15 2.32 1130 4300 (2010) 273 (1957) 1040 303 383 432 491 724 1270 1690 2220 3140
2020-11-17 06:15 2.20 1090 4300 (2010) 273 (1957) 1040 303 383 432 491 724 1270 1690 2220 3140
2020-11-17 05:15 2.10 1050 4300 (2010) 273 (1957) 1040 303 383 432 491 724 1270 1690 2220 3140
2020-11-17 04:15 2.02 1030 4300 (2010) 273 (1957) 1040 303 383 432 491 724 1270 1690 2220 3140
2020-11-17 03:15 1.97 1010 4300 (2010) 273 (1957) 1040 303 383 432 491 724 1270 1690 2220 3140
2020-11-17 02:15 1.94 999 4300 (2010) 273 (1957) 1040 303 383 432 491 724 1270 1690 2220 3140
2020-11-17 01:15 1.94 999 4300 (2010) 273 (1957) 1040 303 383 432 491 724 1270 1690 2220 3140
2020-11-17 00:15 1.95 1000 4300 (2010) 273 (1957) 1040 303 383 432 491 724 1270 1690 2220 3140
2020-11-16 23:15 1.94 999 4120 (2010) 272 (1964) 1000 309 361 443 472 702 1200 1610 1990 2800
2020-11-16 22:15 1.95 1000 4120 (2010) 272 (1964) 1000 309 361 443 472 702 1200 1610 1990 2800
2020-11-16 21:15 1.95 1000 4120 (2010) 272 (1964) 1000 309 361 443 472 702 1200 1610 1990 2800
2020-11-16 20:15 1.95 1000 4120 (2010) 272 (1964) 1000 309 361 443 472 702 1200 1610 1990 2800
2020-11-16 19:15 1.96 1010 4120 (2010) 272 (1964) 1000 309 361 443 472 702 1200 1610 1990 2800
2020-11-16 18:15 1.98 1010 4120 (2010) 272 (1964) 1000 309 361 443 472 702 1200 1610 1990 2800
2020-11-16 17:15 1.97 1010 4120 (2010) 272 (1964) 1000 309 361 443 472 702 1200 1610 1990 2800
2020-11-16 16:15 1.99 1020 4120 (2010) 272 (1964) 1000 309 361 443 472 702 1200 1610 1990 2800
2020-11-16 15:15 2.01 1020 4120 (2010) 272 (1964) 1000 309 361 443 472 702 1200 1610 1990 2800
2020-11-16 14:15 2.00 1020 4120 (2010) 272 (1964) 1000 309 361 443 472 702 1200 1610 1990 2800
2020-11-16 13:15 2.02 1030 4120 (2010) 272 (1964) 1000 309 361 443 472 702 1200 1610 1990 2800
2020-11-16 12:15 2.03 1030 4120 (2010) 272 (1964) 1000 309 361 443 472 702 1200 1610 1990 2800
2020-11-16 11:15 2.04 1030 4120 (2010) 272 (1964) 1000 309 361 443 472 702 1200 1610 1990 2800
2020-11-16 10:15 2.05 1040 4120 (2010) 272 (1964) 1000 309 361 443 472 702 1200 1610 1990 2800
2020-11-16 09:15 2.05 1040 4120 (2010) 272 (1964) 1000 309 361 443 472 702 1200 1610 1990 2800
2020-11-16 08:15 2.07 1040 4120 (2010) 272 (1964) 1000 309 361 443 472 702 1200 1610 1990 2800
2020-11-16 07:15 2.08 1050 4120 (2010) 272 (1964) 1000 309 361 443 472 702 1200 1610 1990 2800
2020-11-16 06:15 2.08 1050 4120 (2010) 272 (1964) 1000 309 361 443 472 702 1200 1610 1990 2800
2020-11-16 05:15 2.08 1050 4120 (2010) 272 (1964) 1000 309 361 443 472 702 1200 1610 1990 2800
2020-11-16 04:15 2.09 1050 4120 (2010) 272 (1964) 1000 309 361 443 472 702 1200 1610 1990 2800
2020-11-16 03:15 2.09 1050 4120 (2010) 272 (1964) 1000 309 361 443 472 702 1200 1610 1990 2800
2020-11-16 02:15 2.08 1050 4120 (2010) 272 (1964) 1000 309 361 443 472 702 1200 1610 1990 2800
2020-11-16 01:15 2.09 1050 4120 (2010) 272 (1964) 1000 309 361 443 472 702 1200 1610 1990 2800
2020-11-16 00:15 2.06 1040 4120 (2010) 272 (1964) 1000 309 361 443 472 702 1200 1610 1990 2800
2020-11-15 23:15 2.05 1040 4080 (2010) 272 (1964) 971 311 355 440 476 718 1130 1370 1890 2850
2020-11-15 22:15 2.03 1030 4080 (2010) 272 (1964) 971 311 355 440 476 718 1130 1370 1890 2850
2020-11-15 21:15 2.02 1030 4080 (2010) 272 (1964) 971 311 355 440 476 718 1130 1370 1890 2850
2020-11-15 20:15 1.99 1020 4080 (2010) 272 (1964) 971 311 355 440 476 718 1130 1370 1890 2850
2020-11-15 19:15 2.00 1020 4080 (2010) 272 (1964) 971 311 355 440 476 718 1130 1370 1890 2850
2020-11-15 18:15 1.97 1010 4080 (2010) 272 (1964) 971 311 355 440 476 718 1130 1370 1890 2850
2020-11-15 17:15 1.96 1010 4080 (2010) 272 (1964) 971 311 355 440 476 718 1130 1370 1890 2850
2020-11-15 16:15 1.95 1000 4080 (2010) 272 (1964) 971 311 355 440 476 718 1130 1370 1890 2850
2020-11-15 15:15 1.95 1000 4080 (2010) 272 (1964) 971 311 355 440 476 718 1130 1370 1890 2850
2020-11-15 14:15 1.96 1010 4080 (2010) 272 (1964) 971 311 355 440 476 718 1130 1370 1890 2850
2020-11-15 13:15 1.95 1000 4080 (2010) 272 (1964) 971 311 355 440 476 718 1130 1370 1890 2850
2020-11-15 12:15 1.95 1000 4080 (2010) 272 (1964) 971 311 355 440 476 718 1130 1370 1890 2850
2020-11-15 11:15 1.93 996 4080 (2010) 272 (1964) 971 311 355 440 476 718 1130 1370 1890 2850
2020-11-15 10:15 1.94 999 4080 (2010) 272 (1964) 971 311 355 440 476 718 1130 1370 1890 2850
2020-11-15 09:15 1.92 992 4080 (2010) 272 (1964) 971 311 355 440 476 718 1130 1370 1890 2850
2020-11-15 08:15 1.93 996 4080 (2010) 272 (1964) 971 311 355 440 476 718 1130 1370 1890 2850
2020-11-15 07:15 1.92 992 4080 (2010) 272 (1964) 971 311 355 440 476 718 1130 1370 1890 2850
2020-11-15 06:15 1.94 999 4080 (2010) 272 (1964) 971 311 355 440 476 718 1130 1370 1890 2850
2020-11-15 05:15 1.93 996 4080 (2010) 272 (1964) 971 311 355 440 476 718 1130 1370 1890 2850
2020-11-15 04:15 1.95 1000 4080 (2010) 272 (1964) 971 311 355 440 476 718 1130 1370 1890 2850
2020-11-15 03:15 1.96 1010 4080 (2010) 272 (1964) 971 311 355 440 476 718 1130 1370 1890 2850
2020-11-15 02:15 1.98 1010 4080 (2010) 272 (1964) 971 311 355 440 476 718 1130 1370 1890 2850
2020-11-15 01:15 1.97 1010 4080 (2010) 272 (1964) 971 311 355 440 476 718 1130 1370 1890 2850
2020-11-15 00:15 1.90 985 4080 (2010) 272 (1964) 971 311 355 440 476 718 1130 1370 1890 2850
2020-11-14 23:15 1.90 985 4380 (1958) 258 (1957) 948 311 355 426 457 630 1080 1300 1750 3540
2020-11-14 22:15 1.90 985 4380 (1958) 258 (1957) 948 311 355 426 457 630 1080 1300 1750 3540
2020-11-14 21:15 1.91 989 4380 (1958) 258 (1957) 948 311 355 426 457 630 1080 1300 1750 3540
2020-11-14 20:15 1.91 989 4380 (1958) 258 (1957) 948 311 355 426 457 630 1080 1300 1750 3540
2020-11-14 19:15 1.91 989 4380 (1958) 258 (1957) 948 311 355 426 457 630 1080 1300 1750 3540
2020-11-14 18:15 1.91 989 4380 (1958) 258 (1957) 948 311 355 426 457 630 1080 1300 1750 3540
2020-11-14 17:15 1.91 989 4380 (1958) 258 (1957) 948 311 355 426 457 630 1080 1300 1750 3540
2020-11-14 16:15 1.93 996 4380 (1958) 258 (1957) 948 311 355 426 457 630 1080 1300 1750 3540
2020-11-14 15:15 1.93 996 4380 (1958) 258 (1957) 948 311 355 426 457 630 1080 1300 1750 3540
2020-11-14 14:15 1.92 992 4380 (1958) 258 (1957) 948 311 355 426 457 630 1080 1300 1750 3540
2020-11-14 13:15 1.94 999 4380 (1958) 258 (1957) 948 311 355 426 457 630 1080 1300 1750 3540
2020-11-14 12:15 1.93 996 4380 (1958) 258 (1957) 948 311 355 426 457 630 1080 1300 1750 3540
2020-11-14 11:15 1.94 999 4380 (1958) 258 (1957) 948 311 355 426 457 630 1080 1300 1750 3540
2020-11-14 10:15 1.94 999 4380 (1958) 258 (1957) 948 311 355 426 457 630 1080 1300 1750 3540
2020-11-14 09:15 1.96 1010 4380 (1958) 258 (1957) 948 311 355 426 457 630 1080 1300 1750 3540
2020-11-14 08:15 1.95 1000 4380 (1958) 258 (1957) 948 311 355 426 457 630 1080 1300 1750 3540
2020-11-14 07:15 1.96 1010 4380 (1958) 258 (1957) 948 311 355 426 457 630 1080 1300 1750 3540
2020-11-14 06:15 1.98 1010 4380 (1958) 258 (1957) 948 311 355 426 457 630 1080 1300 1750 3540
2020-11-14 05:15 1.98 1010 4380 (1958) 258 (1957) 948 311 355 426 457 630 1080 1300 1750 3540
2020-11-14 04:15 1.98 1010 4380 (1958) 258 (1957) 948 311 355 426 457 630 1080 1300 1750 3540
2020-11-14 03:15 1.98 1010 4380 (1958) 258 (1957) 948 311 355 426 457 630 1080 1300 1750 3540
2020-11-14 02:15 1.98 1010 4380 (1958) 258 (1957) 948 311 355 426 457 630 1080 1300 1750 3540
2020-11-14 01:15 1.98 1010 4380 (1958) 258 (1957) 948 311 355 426 457 630 1080 1300 1750 3540
2020-11-14 00:15 1.98 1010 4380 (1958) 258 (1957) 948 311 355 426 457 630 1080 1300 1750 3540
2020-11-13 23:15 1.99 1020 4070 (2010) 258 (1957) 877 311 356 426 459 605 1090 1180 1840 2200
2020-11-13 22:15 1.99 1020 4070 (2010) 258 (1957) 877 311 356 426 459 605 1090 1180 1840 2200
2020-11-13 21:15 1.99 1020 4070 (2010) 258 (1957) 877 311 356 426 459 605 1090 1180 1840 2200
2020-11-13 20:15 1.99 1020 4070 (2010) 258 (1957) 877 311 356 426 459 605 1090 1180 1840 2200
2020-11-13 19:15 1.99 1020 4070 (2010) 258 (1957) 877 311 356 426 459 605 1090 1180 1840 2200
2020-11-13 18:15 2.00 1020 4070 (2010) 258 (1957) 877 311 356 426 459 605 1090 1180 1840 2200
2020-11-13 17:15 2.01 1020 4070 (2010) 258 (1957) 877 311 356 426 459 605 1090 1180 1840 2200
2020-11-13 16:15 2.01 1020 4070 (2010) 258 (1957) 877 311 356 426 459 605 1090 1180 1840 2200
2020-11-13 15:15 2.02 1030 4070 (2010) 258 (1957) 877 311 356 426 459 605 1090 1180 1840 2200
2020-11-13 14:15 2.03 1030 4070 (2010) 258 (1957) 877 311 356 426 459 605 1090 1180 1840 2200
2020-11-13 13:15 2.02 1030 4070 (2010) 258 (1957) 877 311 356 426 459 605 1090 1180 1840 2200
2020-11-13 12:15 2.02 1030 4070 (2010) 258 (1957) 877 311 356 426 459 605 1090 1180 1840 2200
2020-11-13 11:15 2.04 1030 4070 (2010) 258 (1957) 877 311 356 426 459 605 1090 1180 1840 2200
2020-11-13 10:15 2.03 1030 4070 (2010) 258 (1957) 877 311 356 426 459 605 1090 1180 1840 2200
2020-11-13 09:15 2.04 1030 4070 (2010) 258 (1957) 877 311 356 426 459 605 1090 1180 1840 2200
2020-11-13 08:15 2.03 1030 4070 (2010) 258 (1957) 877 311 356 426 459 605 1090 1180 1840 2200
2020-11-13 07:15 2.05 1040 4070 (2010) 258 (1957) 877 311 356 426 459 605 1090 1180 1840 2200
2020-11-13 06:15 2.04 1030 4070 (2010) 258 (1957) 877 311 356 426 459 605 1090 1180 1840 2200
2020-11-13 05:15 2.04 1030 4070 (2010) 258 (1957) 877 311 356 426 459 605 1090 1180 1840 2200
2020-11-13 04:15 2.05 1040 4070 (2010) 258 (1957) 877 311 356 426 459 605 1090 1180 1840 2200
2020-11-13 03:15 2.07 1040 4070 (2010) 258 (1957) 877 311 356 426 459 605 1090 1180 1840 2200
2020-11-13 02:15 2.06 1040 4070 (2010) 258 (1957) 877 311 356 426 459 605 1090 1180 1840 2200
2020-11-13 01:15 2.05 1040 4070 (2010) 258 (1957) 877 311 356 426 459 605 1090 1180 1840 2200
2020-11-13 00:15 2.07 1040 4070 (2010) 258 (1957) 877 311 356 426 459 605 1090 1180 1840 2200
2020-11-12 23:15 2.06 1040 4020 (2010) 261 (1957) 844 316 360 427 452 594 1030 1140 1700 2250
2020-11-12 22:15 2.08 1050 4020 (2010) 261 (1957) 844 316 360 427 452 594 1030 1140 1700 2250
2020-11-12 21:15 2.07 1040 4020 (2010) 261 (1957) 844 316 360 427 452 594 1030 1140 1700 2250
2020-11-12 20:15 2.08 1050 4020 (2010) 261 (1957) 844 316 360 427 452 594 1030 1140 1700 2250
2020-11-12 19:15 2.09 1050 4020 (2010) 261 (1957) 844 316 360 427 452 594 1030 1140 1700 2250
2020-11-12 18:15 2.08 1050 4020 (2010) 261 (1957) 844 316 360 427 452 594 1030 1140 1700 2250
2020-11-12 17:15 2.10 1050 4020 (2010) 261 (1957) 844 316 360 427 452 594 1030 1140 1700 2250
2020-11-12 16:15 2.10 1050 4020 (2010) 261 (1957) 844 316 360 427 452 594 1030 1140 1700 2250
2020-11-12 15:15 2.10 1050 4020 (2010) 261 (1957) 844 316 360 427 452 594 1030 1140 1700 2250
2020-11-12 14:15 2.10 1050 4020 (2010) 261 (1957) 844 316 360 427 452 594 1030 1140 1700 2250
2020-11-12 13:15 2.12 1060 4020 (2010) 261 (1957) 844 316 360 427 452 594 1030 1140 1700 2250
2020-11-12 12:15 2.13 1060 4020 (2010) 261 (1957) 844 316 360 427 452 594 1030 1140 1700 2250
2020-11-12 11:15 2.13 1060 4020 (2010) 261 (1957) 844 316 360 427 452 594 1030 1140 1700 2250
2020-11-12 10:15 2.14 1070 4020 (2010) 261 (1957) 844 316 360 427 452 594 1030 1140 1700 2250
2020-11-12 09:15 2.15 1070 4020 (2010) 261 (1957) 844 316 360 427 452 594 1030 1140 1700 2250
2020-11-12 08:15 2.16 1070 4020 (2010) 261 (1957) 844 316 360 427 452 594 1030 1140 1700 2250
2020-11-12 07:15 2.16 1070 4020 (2010) 261 (1957) 844 316 360 427 452 594 1030 1140 1700 2250
2020-11-12 06:15 2.17 1080 4020 (2010) 261 (1957) 844 316 360 427 452 594 1030 1140 1700 2250
2020-11-12 05:15 2.18 1080 4020 (2010) 261 (1957) 844 316 360 427 452 594 1030 1140 1700 2250
2020-11-12 04:15 2.19 1080 4020 (2010) 261 (1957) 844 316 360 427 452 594 1030 1140 1700 2250
2020-11-12 03:15 2.21 1090 4020 (2010) 261 (1957) 844 316 360 427 452 594 1030 1140 1700 2250
2020-11-12 02:15 2.21 1090 4020 (2010) 261 (1957) 844 316 360 427 452 594 1030 1140 1700 2250
2020-11-12 01:15 2.22 1090 4020 (2010) 261 (1957) 844 316 360 427 452 594 1030 1140 1700 2250
2020-11-12 00:15 2.24 1100 4020 (2010) 261 (1957) 844 316 360 427 452 594 1030 1140 1700 2250
2020-11-11 23:15 2.24 1100 3650 (2010) 258 (1957) 824 319 373 430 453 589 1020 1180 1630 2240
2020-11-11 22:15 2.26 1110 3650 (2010) 258 (1957) 824 319 373 430 453 589 1020 1180 1630 2240
2020-11-11 21:15 2.27 1110 3650 (2010) 258 (1957) 824 319 373 430 453 589 1020 1180 1630 2240
2020-11-11 20:15 2.29 1120 3650 (2010) 258 (1957) 824 319 373 430 453 589 1020 1180 1630 2240
2020-11-11 19:15 2.30 1120 3650 (2010) 258 (1957) 824 319 373 430 453 589 1020 1180 1630 2240
2020-11-11 18:15 2.30 1120 3650 (2010) 258 (1957) 824 319 373 430 453 589 1020 1180 1630 2240
2020-11-11 17:15 2.33 1130 3650 (2010) 258 (1957) 824 319 373 430 453 589 1020 1180 1630 2240
2020-11-11 16:15 2.36 1140 3650 (2010) 258 (1957) 824 319 373 430 453 589 1020 1180 1630 2240
2020-11-11 15:15 2.37 1150 3650 (2010) 258 (1957) 824 319 373 430 453 589 1020 1180 1630 2240
2020-11-11 14:15 2.40 1160 3650 (2010) 258 (1957) 824 319 373 430 453 589 1020 1180 1630 2240
2020-11-11 13:15 2.42 1160 3650 (2010) 258 (1957) 824 319 373 430 453 589 1020 1180 1630 2240
2020-11-11 12:15 2.43 1170 3650 (2010) 258 (1957) 824 319 373 430 453 589 1020 1180 1630 2240
2020-11-11 11:15 2.45 1170 3650 (2010) 258 (1957) 824 319 373 430 453 589 1020 1180 1630 2240
2020-11-11 10:15 2.49 1190 3650 (2010) 258 (1957) 824 319 373 430 453 589 1020 1180 1630 2240
2020-11-11 09:15 2.49 1190 3650 (2010) 258 (1957) 824 319 373 430 453 589 1020 1180 1630 2240
2020-11-11 08:15 2.53 1200 3650 (2010) 258 (1957) 824 319 373 430 453 589 1020 1180 1630 2240
2020-11-11 07:15 2.53 1200 3650 (2010) 258 (1957) 824 319 373 430 453 589 1020 1180 1630 2240
2020-11-11 06:15 2.56 1210 3650 (2010) 258 (1957) 824 319 373 430 453 589 1020 1180 1630 2240
2020-11-11 05:15 2.58 1220 3650 (2010) 258 (1957) 824 319 373 430 453 589 1020 1180 1630 2240
2020-11-11 04:15 2.59 1220 3650 (2010) 258 (1957) 824 319 373 430 453 589 1020 1180 1630 2240
2020-11-11 03:15 2.60 1220 3650 (2010) 258 (1957) 824 319 373 430 453 589 1020 1180 1630 2240
2020-11-11 02:15 2.60 1220 3650 (2010) 258 (1957) 824 319 373 430 453 589 1020 1180 1630 2240
2020-11-11 01:15 2.61 1230 3650 (2010) 258 (1957) 824 319 373 430 453 589 1020 1180 1630 2240
2020-11-11 00:15 2.61 1230 3650 (2010) 258 (1957) 824 319 373 430 453 589 1020 1180 1630 2240
2020-11-10 23:15 2.63 1230 2630 (2010) 258 (1957) 820 320 355 434 449 579 1080 1240 1670 2050
2020-11-10 22:15 2.63 1230 2630 (2010) 258 (1957) 820 320 355 434 449 579 1080 1240 1670 2050
2020-11-10 21:15 2.64 1240 2630 (2010) 258 (1957) 820 320 355 434 449 579 1080 1240 1670 2050
2020-11-10 20:15 2.64 1240 2630 (2010) 258 (1957) 820 320 355 434 449 579 1080 1240 1670 2050
2020-11-10 19:15 2.63 1230 2630 (2010) 258 (1957) 820 320 355 434 449 579 1080 1240 1670 2050
2020-11-10 18:15 2.64 1240 2630 (2010) 258 (1957) 820 320 355 434 449 579 1080 1240 1670 2050
2020-11-10 17:15 2.65 1240 2630 (2010) 258 (1957) 820 320 355 434 449 579 1080 1240 1670 2050
2020-11-10 16:15 2.64 1240 2630 (2010) 258 (1957) 820 320 355 434 449 579 1080 1240 1670 2050
2020-11-10 15:15 2.64 1240 2630 (2010) 258 (1957) 820 320 355 434 449 579 1080 1240 1670 2050
2020-11-10 14:15 2.64 1240 2630 (2010) 258 (1957) 820 320 355 434 449 579 1080 1240 1670 2050
2020-11-10 13:15 2.64 1240 2630 (2010) 258 (1957) 820 320 355 434 449 579 1080 1240 1670 2050
2020-11-10 12:15 2.65 1240 2630 (2010) 258 (1957) 820 320 355 434 449 579 1080 1240 1670 2050
2020-11-10 11:15 2.66 1250 2630 (2010) 258 (1957) 820 320 355 434 449 579 1080 1240 1670 2050
2020-11-10 10:15 2.65 1240 2630 (2010) 258 (1957) 820 320 355 434 449 579 1080 1240 1670 2050
2020-11-10 09:15 2.65 1240 2630 (2010) 258 (1957) 820 320 355 434 449 579 1080 1240 1670 2050
2020-11-10 08:15 2.68 1250 2630 (2010) 258 (1957) 820 320 355 434 449 579 1080 1240 1670 2050
2020-11-10 07:15 2.67 1250 2630 (2010) 258 (1957) 820 320 355 434 449 579 1080 1240 1670 2050
2020-11-10 06:15 2.67 1250 2630 (2010) 258 (1957) 820 320 355 434 449 579 1080 1240 1670 2050
2020-11-10 05:15 2.68 1250 2630 (2010) 258 (1957) 820 320 355 434 449 579 1080 1240 1670 2050
2020-11-10 04:15 2.67 1250 2630 (2010) 258 (1957) 820 320 355 434 449 579 1080 1240 1670 2050
2020-11-10 03:15 2.68 1250 2630 (2010) 258 (1957) 820 320 355 434 449 579 1080 1240 1670 2050
2020-11-10 02:15 2.68 1250 2630 (2010) 258 (1957) 820 320 355 434 449 579 1080 1240 1670 2050
2020-11-10 01:15 2.69 1260 2630 (2010) 258 (1957) 820 320 355 434 449 579 1080 1240 1670 2050
2020-11-10 00:15 2.69 1260 2630 (2010) 258 (1957) 820 320 355 434 449 579 1080 1240 1670 2050
2020-11-09 23:15 2.70 1260 2560 (2010) 258 (1957) 841 321 350 416 446 619 1150 1260 1660 1970
2020-11-09 22:15 2.70 1260 2560 (2010) 258 (1957) 841 321 350 416 446 619 1150 1260 1660 1970
2020-11-09 21:15 2.70 1260 2560 (2010) 258 (1957) 841 321 350 416 446 619 1150 1260 1660 1970
2020-11-09 20:15 2.71 1260 2560 (2010) 258 (1957) 841 321 350 416 446 619 1150 1260 1660 1970
2020-11-09 19:15 2.72 1270 2560 (2010) 258 (1957) 841 321 350 416 446 619 1150 1260 1660 1970
2020-11-09 18:15 2.72 1270 2560 (2010) 258 (1957) 841 321 350 416 446 619 1150 1260 1660 1970
2020-11-09 17:15 2.72 1270 2560 (2010) 258 (1957) 841 321 350 416 446 619 1150 1260 1660 1970
2020-11-09 16:15 2.74 1270 2560 (2010) 258 (1957) 841 321 350 416 446 619 1150 1260 1660 1970
2020-11-09 15:15 2.73 1270 2560 (2010) 258 (1957) 841 321 350 416 446 619 1150 1260 1660 1970
2020-11-09 14:15 2.74 1270 2560 (2010) 258 (1957) 841 321 350 416 446 619 1150 1260 1660 1970
2020-11-09 13:15 2.75 1280 2560 (2010) 258 (1957) 841 321 350 416 446 619 1150 1260 1660 1970
2020-11-09 12:15 2.74 1270 2560 (2010) 258 (1957) 841 321 350 416 446 619 1150 1260 1660 1970
2020-11-09 11:15 2.76 1280 2560 (2010) 258 (1957) 841 321 350 416 446 619 1150 1260 1660 1970
2020-11-09 10:15 2.76 1280 2560 (2010) 258 (1957) 841 321 350 416 446 619 1150 1260 1660 1970
2020-11-09 09:15 2.76 1280 2560 (2010) 258 (1957) 841 321 350 416 446 619 1150 1260 1660 1970
2020-11-09 08:15 2.78 1290 2560 (2010) 258 (1957) 841 321 350 416 446 619 1150 1260 1660 1970
2020-11-09 07:15 2.78 1290 2560 (2010) 258 (1957) 841 321 350 416 446 619 1150 1260 1660 1970
2020-11-09 06:15 2.78 1290 2560 (2010) 258 (1957) 841 321 350 416 446 619 1150 1260 1660 1970
2020-11-09 05:15 2.78 1290 2560 (2010) 258 (1957) 841 321 350 416 446 619 1150 1260 1660 1970
2020-11-09 04:15 2.80 1290 2560 (2010) 258 (1957) 841 321 350 416 446 619 1150 1260 1660 1970
2020-11-09 03:15 2.80 1290 2560 (2010) 258 (1957) 841 321 350 416 446 619 1150 1260 1660 1970
2020-11-09 02:15 2.83 1300 2560 (2010) 258 (1957) 841 321 350 416 446 619 1150 1260 1660 1970
2020-11-09 01:15 2.82 1300 2560 (2010) 258 (1957) 841 321 350 416 446 619 1150 1260 1660 1970
2020-11-09 00:15 2.84 1310 2560 (2010) 258 (1957) 841 321 350 416 446 619 1150 1260 1660 1970
2020-11-08 23:15 2.84 1310 3030 (2010) 261 (1957) 865 315 337 430 449 597 1050 1350 1790 2440
2020-11-08 22:15 2.85 1310 3030 (2010) 261 (1957) 865 315 337 430 449 597 1050 1350 1790 2440
2020-11-08 21:15 2.86 1310 3030 (2010) 261 (1957) 865 315 337 430 449 597 1050 1350 1790 2440
2020-11-08 20:15 2.87 1320 3030 (2010) 261 (1957) 865 315 337 430 449 597 1050 1350 1790 2440
2020-11-08 19:15 2.88 1320 3030 (2010) 261 (1957) 865 315 337 430 449 597 1050 1350 1790 2440
2020-11-08 18:15 2.88 1320 3030 (2010) 261 (1957) 865 315 337 430 449 597 1050 1350 1790 2440
2020-11-08 17:15 2.90 1330 3030 (2010) 261 (1957) 865 315 337 430 449 597 1050 1350 1790 2440
2020-11-08 16:15 2.90 1330 3030 (2010) 261 (1957) 865 315 337 430 449 597 1050 1350 1790 2440
2020-11-08 15:15 2.91 1330 3030 (2010) 261 (1957) 865 315 337 430 449 597 1050 1350 1790 2440
2020-11-08 14:15 2.92 1330 3030 (2010) 261 (1957) 865 315 337 430 449 597 1050 1350 1790 2440
2020-11-08 13:15 2.93 1340 3030 (2010) 261 (1957) 865 315 337 430 449 597 1050 1350 1790 2440
2020-11-08 12:15 2.94 1340 3030 (2010) 261 (1957) 865 315 337 430 449 597 1050 1350 1790 2440
2020-11-08 11:15 2.96 1350 3030 (2010) 261 (1957) 865 315 337 430 449 597 1050 1350 1790 2440
2020-11-08 10:15 2.98 1360 3030 (2010) 261 (1957) 865 315 337 430 449 597 1050 1350 1790 2440
2020-11-08 09:15 2.99 1360 3030 (2010) 261 (1957) 865 315 337 430 449 597 1050 1350 1790 2440
2020-11-08 08:15 3.01 1370 3030 (2010) 261 (1957) 865 315 337 430 449 597 1050 1350 1790 2440
2020-11-08 07:15 3.03 1370 3030 (2010) 261 (1957) 865 315 337 430 449 597 1050 1350 1790 2440
2020-11-08 06:15 3.05 1380 3030 (2010) 261 (1957) 865 315 337 430 449 597 1050 1350 1790 2440
2020-11-08 05:15 3.07 1390 3030 (2010) 261 (1957) 865 315 337 430 449 597 1050 1350 1790 2440
2020-11-08 04:15 3.09 1390 3030 (2010) 261 (1957) 865 315 337 430 449 597 1050 1350 1790 2440
2020-11-08 03:15 3.10 1400 3030 (2010) 261 (1957) 865 315 337 430 449 597 1050 1350 1790 2440
2020-11-08 02:15 3.12 1400 3030 (2010) 261 (1957) 865 315 337 430 449 597 1050 1350 1790 2440
2020-11-08 01:15 3.16 1420 3030 (2010) 261 (1957) 865 315 337 430 449 597 1050 1350 1790 2440
2020-11-08 00:15 3.18 1420 3030 (2010) 261 (1957) 865 315 337 430 449 597 1050 1350 1790 2440
2020-11-07 23:15 3.21 1440 4080 (2010) 270 (1957) 840 303 334 429 446 574 997 1320 1860 2220
2020-11-07 22:15 3.25 1450 4080 (2010) 270 (1957) 840 303 334 429 446 574 997 1320 1860 2220
2020-11-07 21:15 3.29 1460 4080 (2010) 270 (1957) 840 303 334 429 446 574 997 1320 1860 2220
2020-11-07 20:15 3.32 1470 4080 (2010) 270 (1957) 840 303 334 429 446 574 997 1320 1860 2220
2020-11-07 19:15 3.38 1490 4080 (2010) 270 (1957) 840 303 334 429 446 574 997 1320 1860 2220
2020-11-07 18:15 3.43 1510 4080 (2010) 270 (1957) 840 303 334 429 446 574 997 1320 1860 2220
2020-11-07 17:15 3.48 1530 4080 (2010) 270 (1957) 840 303 334 429 446 574 997 1320 1860 2220
2020-11-07 16:15 3.54 1550 4080 (2010) 270 (1957) 840 303 334 429 446 574 997 1320 1860 2220
2020-11-07 15:15 3.61 1570 4080 (2010) 270 (1957) 840 303 334 429 446 574 997 1320 1860 2220
2020-11-07 14:15 3.68 1600 4080 (2010) 270 (1957) 840 303 334 429 446 574 997 1320 1860 2220
2020-11-07 13:15 3.77 1630 4080 (2010) 270 (1957) 840 303 334 429 446 574 997 1320 1860 2220
2020-11-07 12:15 3.85 1660 4080 (2010) 270 (1957) 840 303 334 429 446 574 997 1320 1860 2220
2020-11-07 11:15 3.93 1690 4080 (2010) 270 (1957) 840 303 334 429 446 574 997 1320 1860 2220
2020-11-07 10:15 4.02 1720 4080 (2010) 270 (1957) 840 303 334 429 446 574 997 1320 1860 2220
2020-11-07 09:15 4.10 1750 4080 (2010) 270 (1957) 840 303 334 429 446 574 997 1320 1860 2220
2020-11-07 08:15 4.20 1780 4080 (2010) 270 (1957) 840 303 334 429 446 574 997 1320 1860 2220
2020-11-07 07:15 4.30 1820 4080 (2010) 270 (1957) 840 303 334 429 446 574 997 1320 1860 2220
2020-11-07 06:15 4.40 1850 4080 (2010) 270 (1957) 840 303 334 429 446 574 997 1320 1860 2220
2020-11-07 05:15 4.49 1880 4080 (2010) 270 (1957) 840 303 334 429 446 574 997 1320 1860 2220
2020-11-07 04:15 4.56 1910 4080 (2010) 270 (1957) 840 303 334 429 446 574 997 1320 1860 2220
2020-11-07 03:15 4.63 1930 4080 (2010) 270 (1957) 840 303 334 429 446 574 997 1320 1860 2220
2020-11-07 02:15 4.68 1950 4080 (2010) 270 (1957) 840 303 334 429 446 574 997 1320 1860 2220
2020-11-07 01:15 4.73 1970 4080 (2010) 270 (1957) 840 303 334 429 446 574 997 1320 1860 2220
2020-11-07 00:15 4.76 1980 4080 (2010) 270 (1957) 840 303 334 429 446 574 997 1320 1860 2220
2020-11-06 23:15 4.78 1990 4130 (2010) 242 (1954) 799 307 360 432 452 588 861 1180 1470 1940
2020-11-06 22:15 4.80 1990 4130 (2010) 242 (1954) 799 307 360 432 452 588 861 1180 1470 1940
2020-11-06 21:15 4.82 2000 4130 (2010) 242 (1954) 799 307 360 432 452 588 861 1180 1470 1940
2020-11-06 20:15 4.82 2000 4130 (2010) 242 (1954) 799 307 360 432 452 588 861 1180 1470 1940
2020-11-06 19:15 4.83 2010 4130 (2010) 242 (1954) 799 307 360 432 452 588 861 1180 1470 1940
2020-11-06 18:15 4.83 2010 4130 (2010) 242 (1954) 799 307 360 432 452 588 861 1180 1470 1940
2020-11-06 17:15 4.84 2010 4130 (2010) 242 (1954) 799 307 360 432 452 588 861 1180 1470 1940
2020-11-06 16:15 4.84 2010 4130 (2010) 242 (1954) 799 307 360 432 452 588 861 1180 1470 1940
2020-11-06 15:15 4.85 2010 4130 (2010) 242 (1954) 799 307 360 432 452 588 861 1180 1470 1940
2020-11-06 14:15 4.86 2020 4130 (2010) 242 (1954) 799 307 360 432 452 588 861 1180 1470 1940
2020-11-06 13:15 4.86 2020 4130 (2010) 242 (1954) 799 307 360 432 452 588 861 1180 1470 1940
2020-11-06 12:15 4.87 2020 4130 (2010) 242 (1954) 799 307 360 432 452 588 861 1180 1470 1940
2020-11-06 11:15 4.87 2020 4130 (2010) 242 (1954) 799 307 360 432 452 588 861 1180 1470 1940
2020-11-06 10:15 4.88 2020 4130 (2010) 242 (1954) 799 307 360 432 452 588 861 1180 1470 1940
2020-11-06 09:15 4.89 2030 4130 (2010) 242 (1954) 799 307 360 432 452 588 861 1180 1470 1940
2020-11-06 08:15 4.89 2030 4130 (2010) 242 (1954) 799 307 360 432 452 588 861 1180 1470 1940
2020-11-06 07:15 4.90 2030 4130 (2010) 242 (1954) 799 307 360 432 452 588 861 1180 1470 1940
2020-11-06 06:15 4.91 2030 4130 (2010) 242 (1954) 799 307 360 432 452 588 861 1180 1470 1940
2020-11-06 05:15 4.91 2030 4130 (2010) 242 (1954) 799 307 360 432 452 588 861 1180 1470 1940
2020-11-06 04:15 4.92 2040 4130 (2010) 242 (1954) 799 307 360 432 452 588 861 1180 1470 1940
2020-11-06 03:15 4.94 2040 4130 (2010) 242 (1954) 799 307 360 432 452 588 861 1180 1470 1940
2020-11-06 02:15 4.94 2040 4130 (2010) 242 (1954) 799 307 360 432 452 588 861 1180 1470 1940
2020-11-06 01:15 4.93 2040 4130 (2010) 242 (1954) 799 307 360 432 452 588 861 1180 1470 1940
2020-11-06 00:15 4.95 2050 4130 (2010) 242 (1954) 799 307 360 432 452 588 861 1180 1470 1940
2020-11-05 23:15 4.96 2050 6000 (1995) 242 (1954) 827 306 345 433 460 567 827 989 1660 1900
2020-11-05 22:15 4.96 2050 6000 (1995) 242 (1954) 827 306 345 433 460 567 827 989 1660 1900
2020-11-05 21:15 4.97 2050 6000 (1995) 242 (1954) 827 306 345 433 460 567 827 989 1660 1900
2020-11-05 20:15 4.98 2060 6000 (1995) 242 (1954) 827 306 345 433 460 567 827 989 1660 1900
2020-11-05 19:15 4.98 2060 6000 (1995) 242 (1954) 827 306 345 433 460 567 827 989 1660 1900
2020-11-05 18:15 5.00 2070 6000 (1995) 242 (1954) 827 306 345 433 460 567 827 989 1660 1900
2020-11-05 17:15 5.01 2070 6000 (1995) 242 (1954) 827 306 345 433 460 567 827 989 1660 1900
2020-11-05 16:15 5.00 2070 6000 (1995) 242 (1954) 827 306 345 433 460 567 827 989 1660 1900
2020-11-05 15:15 5.01 2070 6000 (1995) 242 (1954) 827 306 345 433 460 567 827 989 1660 1900
2020-11-05 14:15 5.01 2070 6000 (1995) 242 (1954) 827 306 345 433 460 567 827 989 1660 1900
2020-11-05 13:15 5.04 2080 6000 (1995) 242 (1954) 827 306 345 433 460 567 827 989 1660 1900
2020-11-05 12:15 5.04 2080 6000 (1995) 242 (1954) 827 306 345 433 460 567 827 989 1660 1900
2020-11-05 11:15 5.05 2080 6000 (1995) 242 (1954) 827 306 345 433 460 567 827 989 1660 1900
2020-11-05 10:15 5.06 2090 6000 (1995) 242 (1954) 827 306 345 433 460 567 827 989 1660 1900
2020-11-05 09:15 5.05 2080 6000 (1995) 242 (1954) 827 306 345 433 460 567 827 989 1660 1900
2020-11-05 08:15 5.06 2090 6000 (1995) 242 (1954) 827 306 345 433 460 567 827 989 1660 1900
2020-11-05 07:15 5.06 2090 6000 (1995) 242 (1954) 827 306 345 433 460 567 827 989 1660 1900
2020-11-05 06:15 5.07 2090 6000 (1995) 242 (1954) 827 306 345 433 460 567 827 989 1660 1900
2020-11-05 05:15 5.08 2090 6000 (1995) 242 (1954) 827 306 345 433 460 567 827 989 1660 1900
2020-11-05 04:15 5.09 2100 6000 (1995) 242 (1954) 827 306 345 433 460 567 827 989 1660 1900
2020-11-05 03:15 5.10 2100 6000 (1995) 242 (1954) 827 306 345 433 460 567 827 989 1660 1900
2020-11-05 02:15 5.10 2100 6000 (1995) 242 (1954) 827 306 345 433 460 567 827 989 1660 1900
2020-11-05 01:15 5.11 2100 6000 (1995) 242 (1954) 827 306 345 433 460 567 827 989 1660 1900
2020-11-05 00:15 5.11 2100 6000 (1995) 242 (1954) 827 306 345 433 460 567 827 989 1660 1900
2020-11-04 23:15 5.12 2110 3990 (2010) 244 (1954) 752 303 350 421 460 556 821 913 1370 2020
2020-11-04 22:15 5.12 2110 3990 (2010) 244 (1954) 752 303 350 421 460 556 821 913 1370 2020
2020-11-04 21:15 5.14 2120 3990 (2010) 244 (1954) 752 303 350 421 460 556 821 913 1370 2020
2020-11-04 20:15 5.14 2120 3990 (2010) 244 (1954) 752 303 350 421 460 556 821 913 1370 2020
2020-11-04 19:15 5.15 2120 3990 (2010) 244 (1954) 752 303 350 421 460 556 821 913 1370 2020
2020-11-04 18:15 5.15 2120 3990 (2010) 244 (1954) 752 303 350 421 460 556 821 913 1370 2020
2020-11-04 17:15 5.15 2120 3990 (2010) 244 (1954) 752 303 350 421 460 556 821 913 1370 2020
2020-11-04 16:15 5.17 2130 3990 (2010) 244 (1954) 752 303 350 421 460 556 821 913 1370 2020
2020-11-04 15:15 5.16 2120 3990 (2010) 244 (1954) 752 303 350 421 460 556 821 913 1370 2020
2020-11-04 14:15 5.17 2130 3990 (2010) 244 (1954) 752 303 350 421 460 556 821 913 1370 2020
2020-11-04 13:15 5.18 2130 3990 (2010) 244 (1954) 752 303 350 421 460 556 821 913 1370 2020
2020-11-04 12:15 5.19 2130 3990 (2010) 244 (1954) 752 303 350 421 460 556 821 913 1370 2020
2020-11-04 11:15 5.18 2130 3990 (2010) 244 (1954) 752 303 350 421 460 556 821 913 1370 2020
2020-11-04 10:15 5.19 2130 3990 (2010) 244 (1954) 752 303 350 421 460 556 821 913 1370 2020
2020-11-04 09:15 5.19 2130 3990 (2010) 244 (1954) 752 303 350 421 460 556 821 913 1370 2020
2020-11-04 08:15 5.19 2130 3990 (2010) 244 (1954) 752 303 350 421 460 556 821 913 1370 2020
2020-11-04 07:15 5.19 2130 3990 (2010) 244 (1954) 752 303 350 421 460 556 821 913 1370 2020
2020-11-04 06:15 5.20 2140 3990 (2010) 244 (1954) 752 303 350 421 460 556 821 913 1370 2020
2020-11-04 05:15 5.21 2140 3990 (2010) 244 (1954) 752 303 350 421 460 556 821 913 1370 2020
2020-11-04 04:15 5.21 2140 3990 (2010) 244 (1954) 752 303 350 421 460 556 821 913 1370 2020
2020-11-04 03:15 5.21 2140 3990 (2010) 244 (1954) 752 303 350 421 460 556 821 913 1370 2020
2020-11-04 02:15 5.22 2140 3990 (2010) 244 (1954) 752 303 350 421 460 556 821 913 1370 2020
2020-11-04 01:15 5.21 2140 3990 (2010) 244 (1954) 752 303 350 421 460 556 821 913 1370 2020
2020-11-04 00:15 5.20 2140 3990 (2010) 244 (1954) 752 303 350 421 460 556 821 913 1370 2020
2020-11-03 23:15 5.20 2140 3990 (1973) 244 (1954) 762 304 356 426 447 527 787 978 1350 2000
2020-11-03 22:15 5.19 2130 3990 (1973) 244 (1954) 762 304 356 426 447 527 787 978 1350 2000
2020-11-03 21:15 5.19 2130 3990 (1973) 244 (1954) 762 304 356 426 447 527 787 978 1350 2000
2020-11-03 20:15 5.19 2130 3990 (1973) 244 (1954) 762 304 356 426 447 527 787 978 1350 2000
2020-11-03 19:15 5.16 2120 3990 (1973) 244 (1954) 762 304 356 426 447 527 787 978 1350 2000
2020-11-03 18:15 5.15 2120 3990 (1973) 244 (1954) 762 304 356 426 447 527 787 978 1350 2000
2020-11-03 17:15 5.14 2120 3990 (1973) 244 (1954) 762 304 356 426 447 527 787 978 1350 2000
2020-11-03 16:15 5.12 2110 3990 (1973) 244 (1954) 762 304 356 426 447 527 787 978 1350 2000
2020-11-03 15:15 5.09 2100 3990 (1973) 244 (1954) 762 304 356 426 447 527 787 978 1350 2000
2020-11-03 14:15 5.07 2090 3990 (1973) 244 (1954) 762 304 356 426 447 527 787 978 1350 2000
2020-11-03 13:15 5.04 2080 3990 (1973) 244 (1954) 762 304 356 426 447 527 787 978 1350 2000
2020-11-03 12:15 5.01 2070 3990 (1973) 244 (1954) 762 304 356 426 447 527 787 978 1350 2000
2020-11-03 11:15 4.98 2060 3990 (1973) 244 (1954) 762 304 356 426 447 527 787 978 1350 2000
2020-11-03 10:15 4.94 2040 3990 (1973) 244 (1954) 762 304 356 426 447 527 787 978 1350 2000
2020-11-03 09:15 4.90 2030 3990 (1973) 244 (1954) 762 304 356 426 447 527 787 978 1350 2000
2020-11-03 08:15 4.86 2020 3990 (1973) 244 (1954) 762 304 356 426 447 527 787 978 1350 2000
2020-11-03 07:15 4.82 2000 3990 (1973) 244 (1954) 762 304 356 426 447 527 787 978 1350 2000
2020-11-03 06:15 4.77 1980 3990 (1973) 244 (1954) 762 304 356 426 447 527 787 978 1350 2000
2020-11-03 05:15 4.75 1980 3990 (1973) 244 (1954) 762 304 356 426 447 527 787 978 1350 2000
2020-11-03 04:15 4.71 1960 3990 (1973) 244 (1954) 762 304 356 426 447 527 787 978 1350 2000
2020-11-03 03:15 4.70 1960 3990 (1973) 244 (1954) 762 304 356 426 447 527 787 978 1350 2000
2020-11-03 02:15 4.69 1960 3990 (1973) 244 (1954) 762 304 356 426 447 527 787 978 1350 2000
2020-11-03 01:15 4.69 1960 3990 (1973) 244 (1954) 762 304 356 426 447 527 787 978 1350 2000
2020-11-03 00:15 4.69 1960 3990 (1973) 244 (1954) 762 304 356 426 447 527 787 978 1350 2000
2020-11-02 23:15 4.69 1960 5640 (1973) 247 (1954) 799 304 350 410 428 519 804 1060 1320 2160
2020-11-02 22:15 4.71 1960 5640 (1973) 247 (1954) 799 304 350 410 428 519 804 1060 1320 2160
2020-11-02 21:15 4.73 1970 5640 (1973) 247 (1954) 799 304 350 410 428 519 804 1060 1320 2160
2020-11-02 20:15 4.74 1970 5640 (1973) 247 (1954) 799 304 350 410 428 519 804 1060 1320 2160
2020-11-02 19:15 4.76 1980 5640 (1973) 247 (1954) 799 304 350 410 428 519 804 1060 1320 2160
2020-11-02 18:15 4.76 1980 5640 (1973) 247 (1954) 799 304 350 410 428 519 804 1060 1320 2160
2020-11-02 17:15 4.79 1990 5640 (1973) 247 (1954) 799 304 350 410 428 519 804 1060 1320 2160
2020-11-02 16:15 4.80 1990 5640 (1973) 247 (1954) 799 304 350 410 428 519 804 1060 1320 2160
2020-11-02 15:15 4.82 2000 5640 (1973) 247 (1954) 799 304 350 410 428 519 804 1060 1320 2160
2020-11-02 14:15 4.84 2010 5640 (1973) 247 (1954) 799 304 350 410 428 519 804 1060 1320 2160
2020-11-02 13:15 4.86 2020 5640 (1973) 247 (1954) 799 304 350 410 428 519 804 1060 1320 2160
2020-11-02 12:15 4.89 2030 5640 (1973) 247 (1954) 799 304 350 410 428 519 804 1060 1320 2160
2020-11-02 11:15 4.91 2030 5640 (1973) 247 (1954) 799 304 350 410 428 519 804 1060 1320 2160
2020-11-02 10:15 4.94 2040 5640 (1973) 247 (1954) 799 304 350 410 428 519 804 1060 1320 2160
2020-11-02 09:15 4.95 2050 5640 (1973) 247 (1954) 799 304 350 410 428 519 804 1060 1320 2160
2020-11-02 08:15 4.98 2060 5640 (1973) 247 (1954) 799 304 350 410 428 519 804 1060 1320 2160
2020-11-02 07:15 5.00 2070 5640 (1973) 247 (1954) 799 304 350 410 428 519 804 1060 1320 2160
2020-11-02 06:15 5.02 2070 5640 (1973) 247 (1954) 799 304 350 410 428 519 804 1060 1320 2160
2020-11-02 05:15 5.06 2090 5640 (1973) 247 (1954) 799 304 350 410 428 519 804 1060 1320 2160
2020-11-02 04:15 5.08 2090 5640 (1973) 247 (1954) 799 304 350 410 428 519 804 1060 1320 2160
2020-11-02 03:15 5.10 2100 5640 (1973) 247 (1954) 799 304 350 410 428 519 804 1060 1320 2160
2020-11-02 02:15 5.13 2110 5640 (1973) 247 (1954) 799 304 350 410 428 519 804 1060 1320 2160
2020-11-02 01:15 5.16 2120 5640 (1973) 247 (1954) 799 304 350 410 428 519 804 1060 1320 2160
2020-11-02 00:15 5.19 2130 5640 (1973) 247 (1954) 799 304 350 410 428 519 804 1060 1320 2160
2020-11-01 23:15 5.22 2140 9550 (2010) 247 (1954) 864 298 343 404 423 520 838 962 1570 2040
2020-11-01 22:15 5.25 2150 9550 (2010) 247 (1954) 864 298 343 404 423 520 838 962 1570 2040
2020-11-01 21:15 5.28 2170 9550 (2010) 247 (1954) 864 298 343 404 423 520 838 962 1570 2040
2020-11-01 20:15 5.32 2180 9550 (2010) 247 (1954) 864 298 343 404 423 520 838 962 1570 2040
2020-11-01 19:15 5.36 2190 9550 (2010) 247 (1954) 864 298 343 404 423 520 838 962 1570 2040
2020-11-01 18:15 5.40 2210 9550 (2010) 247 (1954) 864 298 343 404 423 520 838 962 1570 2040
2020-11-01 17:15 5.43 2220 9550 (2010) 247 (1954) 864 298 343 404 423 520 838 962 1570 2040
2020-11-01 16:15 5.48 2240 9550 (2010) 247 (1954) 864 298 343 404 423 520 838 962 1570 2040
2020-11-01 15:15 5.52 2250 9550 (2010) 247 (1954) 864 298 343 404 423 520 838 962 1570 2040
2020-11-01 14:15 5.57 2270 9550 (2010) 247 (1954) 864 298 343 404 423 520 838 962 1570 2040
2020-11-01 13:15 5.61 2280 9550 (2010) 247 (1954) 864 298 343 404 423 520 838 962 1570 2040
2020-11-01 12:15 2300 9550 (2010) 247 (1954) 864 298 343 404 423 520 838 962 1570 2040
2020-11-01 07:15 5.90 2390 9550 (2010) 247 (1954) 864 298 343 404 423 520 838 962 1570 2040
2020-11-01 06:15 5.98 2420 9550 (2010) 247 (1954) 864 298 343 404 423 520 838 962 1570 2040
2020-11-01 05:15 6.04 2440 9550 (2010) 247 (1954) 864 298 343 404 423 520 838 962 1570 2040
2020-11-01 03:15 6.18 2490 9550 (2010) 247 (1954) 864 298 343 404 423 520 838 962 1570 2040
2020-11-01 02:15 6.25 2520 9550 (2010) 247 (1954) 864 298 343 404 423 520 838 962 1570 2040
2020-11-01 00:15 6.51 2610 9550 (2010) 247 (1954) 864 298 343 404 423 520 838 962 1570 2040
2020-10-31 23:15 6.61 2650 12400 (2010) 250 (1954) 809 284 351 402 413 517 765 892 1290 1530
2020-10-31 22:15 6.71 2690 12400 (2010) 250 (1954) 809 284 351 402 413 517 765 892 1290 1530
2020-10-31 21:15 6.82 2730 12400 (2010) 250 (1954) 809 284 351 402 413 517 765 892 1290 1530
2020-10-31 20:15 6.92 2760 12400 (2010) 250 (1954) 809 284 351 402 413 517 765 892 1290 1530
2020-10-31 19:15 7.03 2810 12400 (2010) 250 (1954) 809 284 351 402 413 517 765 892 1290 1530
2020-10-31 18:15 7.17 2860 12400 (2010) 250 (1954) 809 284 351 402 413 517 765 892 1290 1530
2020-10-31 17:15 7.29 2900 12400 (2010) 250 (1954) 809 284 351 402 413 517 765 892 1290 1530
2020-10-31 16:15 7.44 2960 12400 (2010) 250 (1954) 809 284 351 402 413 517 765 892 1290 1530
2020-10-31 15:15 7.57 3010 12400 (2010) 250 (1954) 809 284 351 402 413 517 765 892 1290 1530
2020-10-31 14:15 7.74 3070 12400 (2010) 250 (1954) 809 284 351 402 413 517 765 892 1290 1530
2020-10-31 13:15 7.90 3130 12400 (2010) 250 (1954) 809 284 351 402 413 517 765 892 1290 1530
2020-10-31 12:15 8.07 3190 12400 (2010) 250 (1954) 809 284 351 402 413 517 765 892 1290 1530
2020-10-31 11:15 8.24 3260 12400 (2010) 250 (1954) 809 284 351 402 413 517 765 892 1290 1530
2020-10-31 10:15 8.42 3330 12400 (2010) 250 (1954) 809 284 351 402 413 517 765 892 1290 1530
2020-10-31 09:15 8.63 3410 12400 (2010) 250 (1954) 809 284 351 402 413 517 765 892 1290 1530
2020-10-31 08:15 8.81 3470 12400 (2010) 250 (1954) 809 284 351 402 413 517 765 892 1290 1530
2020-10-31 07:15 9.02 3550 12400 (2010) 250 (1954) 809 284 351 402 413 517 765 892 1290 1530
2020-10-31 06:15 9.23 3630 12400 (2010) 250 (1954) 809 284 351 402 413 517 765 892 1290 1530
2020-10-31 05:15 9.44 3710 12400 (2010) 250 (1954) 809 284 351 402 413 517 765 892 1290 1530
2020-10-31 04:15 9.67 3800 12400 (2010) 250 (1954) 809 284 351 402 413 517 765 892 1290 1530
2020-10-31 03:15 9.89 3890 12400 (2010) 250 (1954) 809 284 351 402 413 517 765 892 1290 1530
2020-10-31 02:15 10.14 4000 12400 (2010) 250 (1954) 809 284 351 402 413 517 765 892 1290 1530
2020-10-31 01:15 10.35 4090 12400 (2010) 250 (1954) 809 284 351 402 413 517 765 892 1290 1530
2020-10-31 00:15 10.60 4200 12400 (2010) 250 (1954) 809 284 351 402 413 517 765 892 1290 1530
2020-10-30 23:15 10.84 4300 6380 (2010) 257 (1954) 708 279 335 402 407 529 717 841 1280 1510
2020-10-30 22:15 11.08 4410 6380 (2010) 257 (1954) 708 279 335 402 407 529 717 841 1280 1510
2020-10-30 21:15 11.34 4520 6380 (2010) 257 (1954) 708 279 335 402 407 529 717 841 1280 1510
2020-10-30 20:15 11.57 4620 6380 (2010) 257 (1954) 708 279 335 402 407 529 717 841 1280 1510
2020-10-30 19:15 11.80 4720 6380 (2010) 257 (1954) 708 279 335 402 407 529 717 841 1280 1510
2020-10-30 18:15 12.04 4830 6380 (2010) 257 (1954) 708 279 335 402 407 529 717 841 1280 1510
2020-10-30 17:15 12.26 4920 6380 (2010) 257 (1954) 708 279 335 402 407 529 717 841 1280 1510
2020-10-30 16:15 12.49 5030 6380 (2010) 257 (1954) 708 279 335 402 407 529 717 841 1280 1510
2020-10-30 15:15 12.71 5120 6380 (2010) 257 (1954) 708 279 335 402 407 529 717 841 1280 1510
2020-10-30 14:15 12.90 5210 6380 (2010) 257 (1954) 708 279 335 402 407 529 717 841 1280 1510
2020-10-30 13:15 13.08 5290 6380 (2010) 257 (1954) 708 279 335 402 407 529 717 841 1280 1510
2020-10-30 12:15 13.25 5360 6380 (2010) 257 (1954) 708 279 335 402 407 529 717 841 1280 1510
2020-10-30 11:15 13.40 5440 6380 (2010) 257 (1954) 708 279 335 402 407 529 717 841 1280 1510
2020-10-30 10:15 13.55 5520 6380 (2010) 257 (1954) 708 279 335 402 407 529 717 841 1280 1510
2020-10-30 09:15 13.67 5590 6380 (2010) 257 (1954) 708 279 335 402 407 529 717 841 1280 1510
2020-10-30 08:15 13.78 5650 6380 (2010) 257 (1954) 708 279 335 402 407 529 717 841 1280 1510
2020-10-30 07:15 13.88 5710 6380 (2010) 257 (1954) 708 279 335 402 407 529 717 841 1280 1510
2020-10-30 06:15 13.94 5740 6380 (2010) 257 (1954) 708 279 335 402 407 529 717 841 1280 1510
2020-10-30 05:15 14.01 5780 6380 (2010) 257 (1954) 708 279 335 402 407 529 717 841 1280 1510
2020-10-30 04:15 14.04 5800 6380 (2010) 257 (1954) 708 279 335 402 407 529 717 841 1280 1510
2020-10-30 03:15 14.05 5810 6380 (2010) 257 (1954) 708 279 335 402 407 529 717 841 1280 1510
2020-10-30 02:15 14.05 5810 6380 (2010) 257 (1954) 708 279 335 402 407 529 717 841 1280 1510
2020-10-30 01:15 13.99 5770 6380 (2010) 257 (1954) 708 279 335 402 407 529 717 841 1280 1510
2020-10-30 00:15 13.92 5730 6380 (2010) 257 (1954) 708 279 335 402 407 529 717 841 1280 1510
2020-10-29 23:15 13.82 5670 4120 (2010) 260 (1964) 676 288 336 405 408 518 699 728 1130 1660
2020-10-29 22:15 13.67 5590 4120 (2010) 260 (1964) 676 288 336 405 408 518 699 728 1130 1660
2020-10-29 21:15 13.51 5500 4120 (2010) 260 (1964) 676 288 336 405 408 518 699 728 1130 1660
2020-10-29 20:15 13.25 5360 4120 (2010) 260 (1964) 676 288 336 405 408 518 699 728 1130 1660
2020-10-29 19:15 12.97 5240 4120 (2010) 260 (1964) 676 288 336 405 408 518 699 728 1130 1660
2020-10-29 18:15 12.64 5090 4120 (2010) 260 (1964) 676 288 336 405 408 518 699 728 1130 1660
2020-10-29 17:15 12.27 4930 4120 (2010) 260 (1964) 676 288 336 405 408 518 699 728 1130 1660
2020-10-29 16:15 11.87 4750 4120 (2010) 260 (1964) 676 288 336 405 408 518 699 728 1130 1660
2020-10-29 15:15 11.43 4560 4120 (2010) 260 (1964) 676 288 336 405 408 518 699 728 1130 1660
2020-10-29 14:15 10.92 4340 4120 (2010) 260 (1964) 676 288 336 405 408 518 699 728 1130 1660
2020-10-29 13:15 10.40 4110 4120 (2010) 260 (1964) 676 288 336 405 408 518 699 728 1130 1660
2020-10-29 12:15 9.84 3870 4120 (2010) 260 (1964) 676 288 336 405 408 518 699 728 1130 1660
2020-10-29 11:15 9.26 3640 4120 (2010) 260 (1964) 676 288 336 405 408 518 699 728 1130 1660
2020-10-29 10:15 8.64 3410 4120 (2010) 260 (1964) 676 288 336 405 408 518 699 728 1130 1660
2020-10-29 09:15 7.97 3160 4120 (2010) 260 (1964) 676 288 336 405 408 518 699 728 1130 1660
2020-10-29 08:15 7.28 2900 4120 (2010) 260 (1964) 676 288 336 405 408 518 699 728 1130 1660
2020-10-29 07:15 6.55 2630 4120 (2010) 260 (1964) 676 288 336 405 408 518 699 728 1130 1660
2020-10-29 06:15 5.79 2350 4120 (2010) 260 (1964) 676 288 336 405 408 518 699 728 1130 1660
2020-10-29 05:15 5.04 2080 4120 (2010) 260 (1964) 676 288 336 405 408 518 699 728 1130 1660
2020-10-29 04:15 4.33 1830 4120 (2010) 260 (1964) 676 288 336 405 408 518 699 728 1130 1660
2020-10-29 03:15 3.71 1610 4120 (2010) 260 (1964) 676 288 336 405 408 518 699 728 1130 1660
2020-10-29 02:15 3.21 1440 4120 (2010) 260 (1964) 676 288 336 405 408 518 699 728 1130 1660
2020-10-29 01:15 2.85 1310 4120 (2010) 260 (1964) 676 288 336 405 408 518 699 728 1130 1660
2020-10-29 00:15 2.61 1230 4120 (2010) 260 (1964) 676 288 336 405 408 518 699 728 1130 1660
2020-10-28 23:15 2.39 1150 4390 (2010) 263 (1964) 697 283 344 408 418 536 671 714 1180 2020
2020-10-28 22:15 2.15 1070 4390 (2010) 263 (1964) 697 283 344 408 418 536 671 714 1180 2020
2020-10-28 21:15 2.09 1050 4390 (2010) 263 (1964) 697 283 344 408 418 536 671 714 1180 2020
2020-10-28 20:15 2.06 1040 4390 (2010) 263 (1964) 697 283 344 408 418 536 671 714 1180 2020
2020-10-28 19:15 2.04 1030 4390 (2010) 263 (1964) 697 283 344 408 418 536 671 714 1180 2020
2020-10-28 18:15 2.03 1030 4390 (2010) 263 (1964) 697 283 344 408 418 536 671 714 1180 2020
2020-10-28 17:15 2.03 1030 4390 (2010) 263 (1964) 697 283 344 408 418 536 671 714 1180 2020
2020-10-28 16:15 2.05 1040 4390 (2010) 263 (1964) 697 283 344 408 418 536 671 714 1180 2020
2020-10-28 15:15 2.07 1040 4390 (2010) 263 (1964) 697 283 344 408 418 536 671 714 1180 2020
2020-10-28 14:15 2.11 1060 4390 (2010) 263 (1964) 697 283 344 408 418 536 671 714 1180 2020
2020-10-28 13:15 2.13 1060 4390 (2010) 263 (1964) 697 283 344 408 418 536 671 714 1180 2020
2020-10-28 12:15 2.15 1070 4390 (2010) 263 (1964) 697 283 344 408 418 536 671 714 1180 2020
2020-10-28 11:15 2.17 1080 4390 (2010) 263 (1964) 697 283 344 408 418 536 671 714 1180 2020
2020-10-28 10:15 2.21 1090 4390 (2010) 263 (1964) 697 283 344 408 418 536 671 714 1180 2020
2020-10-28 09:15 2.22 1090 4390 (2010) 263 (1964) 697 283 344 408 418 536 671 714 1180 2020
2020-10-28 08:15 2.24 1100 4390 (2010) 263 (1964) 697 283 344 408 418 536 671 714 1180 2020
2020-10-28 07:15 2.26 1110 4390 (2010) 263 (1964) 697 283 344 408 418 536 671 714 1180 2020
2020-10-28 06:15 2.28 1110 4390 (2010) 263 (1964) 697 283 344 408 418 536 671 714 1180 2020
2020-10-28 05:15 2.28 1110 4390 (2010) 263 (1964) 697 283 344 408 418 536 671 714 1180 2020
2020-10-28 04:15 2.29 1120 4390 (2010) 263 (1964) 697 283 344 408 418 536 671 714 1180 2020
2020-10-28 03:15 2.30 1120 4390 (2010) 263 (1964) 697 283 344 408 418 536 671 714 1180 2020
2020-10-28 02:15 2.30 1120 4390 (2010) 263 (1964) 697 283 344 408 418 536 671 714 1180 2020
2020-10-28 01:15 2.31 1130 4390 (2010) 263 (1964) 697 283 344 408 418 536 671 714 1180 2020
2020-10-28 00:15 2.32 1130 4390 (2010) 263 (1964) 697 283 344 408 418 536 671 714 1180 2020
2020-10-27 23:15 2.33 1130 3650 (2010) 265 (1956) 693 285 347 409 420 557 672 719 1150 2150
2020-10-27 22:15 2.35 1140 3650 (2010) 265 (1956) 693 285 347 409 420 557 672 719 1150 2150
2020-10-27 21:15 2.34 1140 3650 (2010) 265 (1956) 693 285 347 409 420 557 672 719 1150 2150
2020-10-27 20:15 2.35 1140 3650 (2010) 265 (1956) 693 285 347 409 420 557 672 719 1150 2150
2020-10-27 19:15 2.32 1130 3650 (2010) 265 (1956) 693 285 347 409 420 557 672 719 1150 2150
2020-10-27 18:15 2.28 1110 3650 (2010) 265 (1956) 693 285 347 409 420 557 672 719 1150 2150
2020-10-27 17:15 2.21 1090 3650 (2010) 265 (1956) 693 285 347 409 420 557 672 719 1150 2150
2020-10-27 16:15 2.14 1070 3650 (2010) 265 (1956) 693 285 347 409 420 557 672 719 1150 2150
2020-10-27 15:15 2.05 1040 3650 (2010) 265 (1956) 693 285 347 409 420 557 672 719 1150 2150
2020-10-27 14:15 1.96 1010 3650 (2010) 265 (1956) 693 285 347 409 420 557 672 719 1150 2150
2020-10-27 13:15 1.87 975 3650 (2010) 265 (1956) 693 285 347 409 420 557 672 719 1150 2150
2020-10-27 12:15 1.81 954 3650 (2010) 265 (1956) 693 285 347 409 420 557 672 719 1150 2150
2020-10-27 11:15 1.78 944 3650 (2010) 265 (1956) 693 285 347 409 420 557 672 719 1150 2150
2020-10-27 10:15 1.74 930 3650 (2010) 265 (1956) 693 285 347 409 420 557 672 719 1150 2150
2020-10-27 09:15 1.69 913 3650 (2010) 265 (1956) 693 285 347 409 420 557 672 719 1150 2150
2020-10-27 08:15 1.63 892 3650 (2010) 265 (1956) 693 285 347 409 420 557 672 719 1150 2150
2020-10-27 07:15 1.58 875 3650 (2010) 265 (1956) 693 285 347 409 420 557 672 719 1150 2150
2020-10-27 06:15 1.57 872 3650 (2010) 265 (1956) 693 285 347 409 420 557 672 719 1150 2150
2020-10-27 05:15 1.54 862 3650 (2010) 265 (1956) 693 285 347 409 420 557 672 719 1150 2150
2020-10-27 04:15 1.51 851 3650 (2010) 265 (1956) 693 285 347 409 420 557 672 719 1150 2150
2020-10-27 03:15 1.48 841 3650 (2010) 265 (1956) 693 285 347 409 420 557 672 719 1150 2150
2020-10-27 02:15 1.45 831 3650 (2010) 265 (1956) 693 285 347 409 420 557 672 719 1150 2150
2020-10-27 01:15 1.43 824 3650 (2010) 265 (1956) 693 285 347 409 420 557 672 719 1150 2150
2020-10-27 00:15 1.42 821 3650 (2010) 265 (1956) 693 285 347 409 420 557 672 719 1150 2150
2020-10-26 23:15 1.42 821 3290 (2010) 265 (1956) 696 278 345 404 418 548 679 736 1120 2150
2020-10-26 22:15 1.41 817 3290 (2010) 265 (1956) 696 278 345 404 418 548 679 736 1120 2150
2020-10-26 21:15 1.41 817 3290 (2010) 265 (1956) 696 278 345 404 418 548 679 736 1120 2150
2020-10-26 20:15 1.40 814 3290 (2010) 265 (1956) 696 278 345 404 418 548 679 736 1120 2150
2020-10-26 19:15 1.40 814 3290 (2010) 265 (1956) 696 278 345 404 418 548 679 736 1120 2150
2020-10-26 18:15 1.40 814 3290 (2010) 265 (1956) 696 278 345 404 418 548 679 736 1120 2150
2020-10-26 17:15 1.40 814 3290 (2010) 265 (1956) 696 278 345 404 418 548 679 736 1120 2150
2020-10-26 16:15 1.39 810 3290 (2010) 265 (1956) 696 278 345 404 418 548 679 736 1120 2150
2020-10-26 15:15 1.38 807 3290 (2010) 265 (1956) 696 278 345 404 418 548 679 736 1120 2150
2020-10-26 14:15 1.38 807 3290 (2010) 265 (1956) 696 278 345 404 418 548 679 736 1120 2150
2020-10-26 13:15 1.36 800 3290 (2010) 265 (1956) 696 278 345 404 418 548 679 736 1120 2150
2020-10-26 12:15 1.37 804 3290 (2010) 265 (1956) 696 278 345 404 418 548 679 736 1120 2150
2020-10-26 11:15 1.38 807 3290 (2010) 265 (1956) 696 278 345 404 418 548 679 736 1120 2150
2020-10-26 10:15 1.37 804 3290 (2010) 265 (1956) 696 278 345 404 418 548 679 736 1120 2150
2020-10-26 09:15 1.38 807 3290 (2010) 265 (1956) 696 278 345 404 418 548 679 736 1120 2150
2020-10-26 08:15 1.38 807 3290 (2010) 265 (1956) 696 278 345 404 418 548 679 736 1120 2150
2020-10-26 07:15 1.37 804 3290 (2010) 265 (1956) 696 278 345 404 418 548 679 736 1120 2150
2020-10-26 06:15 1.37 804 3290 (2010) 265 (1956) 696 278 345 404 418 548 679 736 1120 2150
2020-10-26 05:15 1.39 810 3290 (2010) 265 (1956) 696 278 345 404 418 548 679 736 1120 2150
2020-10-26 04:15 1.37 804 3290 (2010) 265 (1956) 696 278 345 404 418 548 679 736 1120 2150
2020-10-26 03:15 1.38 807 3290 (2010) 265 (1956) 696 278 345 404 418 548 679 736 1120 2150
2020-10-26 02:15 1.38 807 3290 (2010) 265 (1956) 696 278 345 404 418 548 679 736 1120 2150
2020-10-26 01:15 1.38 807 3290 (2010) 265 (1956) 696 278 345 404 418 548 679 736 1120 2150
2020-10-26 00:15 1.38 807 3290 (2010) 265 (1956) 696 278 345 404 418 548 679 736 1120 2150
2020-10-25 23:15 1.38 807 2930 (2010) 251 (1957) 652 268 337 407 421 541 668 729 1050 1570
2020-10-25 22:15 1.38 807 2930 (2010) 251 (1957) 652 268 337 407 421 541 668 729 1050 1570
2020-10-25 21:15 1.38 807 2930 (2010) 251 (1957) 652 268 337 407 421 541 668 729 1050 1570
2020-10-25 20:15 1.39 810 2930 (2010) 251 (1957) 652 268 337 407 421 541 668 729 1050 1570
2020-10-25 19:15 1.38 807 2930 (2010) 251 (1957) 652 268 337 407 421 541 668 729 1050 1570
2020-10-25 18:15 1.39 810 2930 (2010) 251 (1957) 652 268 337 407 421 541 668 729 1050 1570
2020-10-25 17:15 1.39 810 2930 (2010) 251 (1957) 652 268 337 407 421 541 668 729 1050 1570
2020-10-25 16:15 1.40 814 2930 (2010) 251 (1957) 652 268 337 407 421 541 668 729 1050 1570
2020-10-25 15:15 1.40 814 2930 (2010) 251 (1957) 652 268 337 407 421 541 668 729 1050 1570
2020-10-25 14:15 1.40 814 2930 (2010) 251 (1957) 652 268 337 407 421 541 668 729 1050 1570
2020-10-25 13:15 1.39 810 2930 (2010) 251 (1957) 652 268 337 407 421 541 668 729 1050 1570
2020-10-25 12:15 1.39 810 2930 (2010) 251 (1957) 652 268 337 407 421 541 668 729 1050 1570
2020-10-25 11:15 1.40 814 2930 (2010) 251 (1957) 652 268 337 407 421 541 668 729 1050 1570
2020-10-25 10:15 1.41 817 2930 (2010) 251 (1957) 652 268 337 407 421 541 668 729 1050 1570
2020-10-25 09:15 1.40 814 2930 (2010) 251 (1957) 652 268 337 407 421 541 668 729 1050 1570
2020-10-25 08:15 1.42 821 2930 (2010) 251 (1957) 652 268 337 407 421 541 668 729 1050 1570
2020-10-25 07:15 1.42 821 2930 (2010) 251 (1957) 652 268 337 407 421 541 668 729 1050 1570
2020-10-25 06:15 1.42 821 2930 (2010) 251 (1957) 652 268 337 407 421 541 668 729 1050 1570
2020-10-25 05:15 1.43 824 2930 (2010) 251 (1957) 652 268 337 407 421 541 668 729 1050 1570
2020-10-25 04:15 1.42 821 2930 (2010) 251 (1957) 652 268 337 407 421 541 668 729 1050 1570
2020-10-25 03:15 1.44 827 2930 (2010) 251 (1957) 652 268 337 407 421 541 668 729 1050 1570
2020-10-25 02:15 1.43 824 2930 (2010) 251 (1957) 652 268 337 407 421 541 668 729 1050 1570
2020-10-25 01:15 1.43 824 2930 (2010) 251 (1957) 652 268 337 407 421 541 668 729 1050 1570
2020-10-25 00:15 1.45 831 2930 (2010) 251 (1957) 652 268 337 407 421 541 668 729 1050 1570
2020-10-24 23:15 1.43 824 3470 (2010) 251 (1957) 645 265 335 415 422 535 661 761 920 1540
2020-10-24 22:15 1.45 831 3470 (2010) 251 (1957) 645 265 335 415 422 535 661 761 920 1540
2020-10-24 21:15 1.45 831 3470 (2010) 251 (1957) 645 265 335 415 422 535 661 761 920 1540
2020-10-24 20:15 1.45 831 3470 (2010) 251 (1957) 645 265 335 415 422 535 661 761 920 1540
2020-10-24 19:15 1.47 838 3470 (2010) 251 (1957) 645 265 335 415 422 535 661 761 920 1540
2020-10-24 18:15 1.48 841 3470 (2010) 251 (1957) 645 265 335 415 422 535 661 761 920 1540
2020-10-24 17:15 1.48 841 3470 (2010) 251 (1957) 645 265 335 415 422 535 661 761 920 1540
2020-10-24 16:15 1.48 841 3470 (2010) 251 (1957) 645 265 335 415 422 535 661 761 920 1540
2020-10-24 15:15 1.49 845 3470 (2010) 251 (1957) 645 265 335 415 422 535 661 761 920 1540
2020-10-24 14:15 1.50 848 3470 (2010) 251 (1957) 645 265 335 415 422 535 661 761 920 1540
2020-10-24 13:15 1.50 848 3470 (2010) 251 (1957) 645 265 335 415 422 535 661 761 920 1540
2020-10-24 12:15 1.51 851 3470 (2010) 251 (1957) 645 265 335 415 422 535 661 761 920 1540
2020-10-24 11:15 1.51 851 3470 (2010) 251 (1957) 645 265 335 415 422 535 661 761 920 1540
2020-10-24 10:15 1.51 851 3470 (2010) 251 (1957) 645 265 335 415 422 535 661 761 920 1540
2020-10-24 09:15 1.52 855 3470 (2010) 251 (1957) 645 265 335 415 422 535 661 761 920 1540
2020-10-24 08:15 1.53 858 3470 (2010) 251 (1957) 645 265 335 415 422 535 661 761 920 1540
2020-10-24 07:15 1.53 858 3470 (2010) 251 (1957) 645 265 335 415 422 535 661 761 920 1540
2020-10-24 06:15 1.52 855 3470 (2010) 251 (1957) 645 265 335 415 422 535 661 761 920 1540
2020-10-24 05:15 1.53 858 3470 (2010) 251 (1957) 645 265 335 415 422 535 661 761 920 1540
2020-10-24 04:15 1.53 858 3470 (2010) 251 (1957) 645 265 335 415 422 535 661 761 920 1540
2020-10-24 03:15 1.55 865 3470 (2010) 251 (1957) 645 265 335 415 422 535 661 761 920 1540
2020-10-24 02:15 1.55 865 3470 (2010) 251 (1957) 645 265 335 415 422 535 661 761 920 1540
2020-10-24 01:15 1.54 862 3470 (2010) 251 (1957) 645 265 335 415 422 535 661 761 920 1540
2020-10-24 00:15 1.56 868 3470 (2010) 251 (1957) 645 265 335 415 422 535 661 761 920 1540
2020-10-23 23:15 1.55 865 3520 (2010) 253 (1957) 652 267 338 415 427 527 677 767 1060 1620
2020-10-23 22:15 1.56 868 3520 (2010) 253 (1957) 652 267 338 415 427 527 677 767 1060 1620
2020-10-23 21:15 1.55 865 3520 (2010) 253 (1957) 652 267 338 415 427 527 677 767 1060 1620
2020-10-23 20:15 1.54 862 3520 (2010) 253 (1957) 652 267 338 415 427 527 677 767 1060 1620
2020-10-23 19:15 1.54 862 3520 (2010) 253 (1957) 652 267 338 415 427 527 677 767 1060 1620
2020-10-23 18:15 1.54 862 3520 (2010) 253 (1957) 652 267 338 415 427 527 677 767 1060 1620
2020-10-23 17:15 1.54 862 3520 (2010) 253 (1957) 652 267 338 415 427 527 677 767 1060 1620
2020-10-23 16:15 1.53 858 3520 (2010) 253 (1957) 652 267 338 415 427 527 677 767 1060 1620
2020-10-23 15:15 1.52 855 3520 (2010) 253 (1957) 652 267 338 415 427 527 677 767 1060 1620
2020-10-23 14:15 1.49 845 3520 (2010) 253 (1957) 652 267 338 415 427 527 677 767 1060 1620
2020-10-23 13:15 1.49 845 3520 (2010) 253 (1957) 652 267 338 415 427 527 677 767 1060 1620
2020-10-23 12:15 1.48 841 3520 (2010) 253 (1957) 652 267 338 415 427 527 677 767 1060 1620
2020-10-23 11:15 1.48 841 3520 (2010) 253 (1957) 652 267 338 415 427 527 677 767 1060 1620
2020-10-23 10:15 1.48 841 3520 (2010) 253 (1957) 652 267 338 415 427 527 677 767 1060 1620
2020-10-23 09:15 1.48 841 3520 (2010) 253 (1957) 652 267 338 415 427 527 677 767 1060 1620
2020-10-23 08:15 1.49 845 3520 (2010) 253 (1957) 652 267 338 415 427 527 677 767 1060 1620
2020-10-23 07:15 1.47 838 3520 (2010) 253 (1957) 652 267 338 415 427 527 677 767 1060 1620
2020-10-23 06:15 1.47 838 3520 (2010) 253 (1957) 652 267 338 415 427 527 677 767 1060 1620
2020-10-23 05:15 1.47 838 3520 (2010) 253 (1957) 652 267 338 415 427 527 677 767 1060 1620
2020-10-23 04:15 1.47 838 3520 (2010) 253 (1957) 652 267 338 415 427 527 677 767 1060 1620
2020-10-23 03:15 1.47 838 3520 (2010) 253 (1957) 652 267 338 415 427 527 677 767 1060 1620
2020-10-23 02:15 1.47 838 3520 (2010) 253 (1957) 652 267 338 415 427 527 677 767 1060 1620
2020-10-23 01:15 1.47 838 3520 (2010) 253 (1957) 652 267 338 415 427 527 677 767 1060 1620
2020-10-23 00:15 1.47 838 3520 (2010) 253 (1957) 652 267 338 415 427 527 677 767 1060 1620
2020-10-22 23:15 1.48 841 3650 (1985) 252 (1954) 649 269 340 416 430 525 710 758 1000 1470
2020-10-22 22:15 1.47 838 3650 (1985) 252 (1954) 649 269 340 416 430 525 710 758 1000 1470
2020-10-22 21:15 1.46 834 3650 (1985) 252 (1954) 649 269 340 416 430 525 710 758 1000 1470
2020-10-22 20:15 1.46 834 3650 (1985) 252 (1954) 649 269 340 416 430 525 710 758 1000 1470
2020-10-22 19:15 1.46 834 3650 (1985) 252 (1954) 649 269 340 416 430 525 710 758 1000 1470
2020-10-22 18:15 1.45 831 3650 (1985) 252 (1954) 649 269 340 416 430 525 710 758 1000 1470
2020-10-22 17:15 1.44 827 3650 (1985) 252 (1954) 649 269 340 416 430 525 710 758 1000 1470
2020-10-22 16:15 1.44 827 3650 (1985) 252 (1954) 649 269 340 416 430 525 710 758 1000 1470
2020-10-22 15:15 1.43 824 3650 (1985) 252 (1954) 649 269 340 416 430 525 710 758 1000 1470
2020-10-22 14:15 1.44 827 3650 (1985) 252 (1954) 649 269 340 416 430 525 710 758 1000 1470
2020-10-22 13:15 1.43 824 3650 (1985) 252 (1954) 649 269 340 416 430 525 710 758 1000 1470
2020-10-22 12:15 1.43 824 3650 (1985) 252 (1954) 649 269 340 416 430 525 710 758 1000 1470
2020-10-22 11:15 1.42 821 3650 (1985) 252 (1954) 649 269 340 416 430 525 710 758 1000 1470
2020-10-22 10:15 1.40 814 3650 (1985) 252 (1954) 649 269 340 416 430 525 710 758 1000 1470
2020-10-22 09:15 1.40 814 3650 (1985) 252 (1954) 649 269 340 416 430 525 710 758 1000 1470
2020-10-22 08:15 1.39 810 3650 (1985) 252 (1954) 649 269 340 416 430 525 710 758 1000 1470
2020-10-22 07:15 1.38 807 3650 (1985) 252 (1954) 649 269 340 416 430 525 710 758 1000 1470
2020-10-22 06:15 1.36 800 3650 (1985) 252 (1954) 649 269 340 416 430 525 710 758 1000 1470
2020-10-22 05:15 1.36 800 3650 (1985) 252 (1954) 649 269 340 416 430 525 710 758 1000 1470
2020-10-22 04:15 1.34 793 3650 (1985) 252 (1954) 649 269 340 416 430 525 710 758 1000 1470
2020-10-22 03:15 1.33 790 3650 (1985) 252 (1954) 649 269 340 416 430 525 710 758 1000 1470
2020-10-22 02:15 1.30 780 3650 (1985) 252 (1954) 649 269 340 416 430 525 710 758 1000 1470
2020-10-22 01:15 1.28 773 3650 (1985) 252 (1954) 649 269 340 416 430 525 710 758 1000 1470
2020-10-22 00:15 1.26 766 3650 (1985) 252 (1954) 649 269 340 416 430 525 710 758 1000 1470
2020-10-21 23:15 1.24 760 4630 (1985) 255 (1954) 668 264 341 415 441 520 721 819 1030 1350
2020-10-21 22:15 1.20 746 4630 (1985) 255 (1954) 668 264 341 415 441 520 721 819 1030 1350
2020-10-21 21:15 1.18 739 4630 (1985) 255 (1954) 668 264 341 415 441 520 721 819 1030 1350
2020-10-21 20:15 1.13 722 4630 (1985) 255 (1954) 668 264 341 415 441 520 721 819 1030 1350
2020-10-21 19:15 1.11 716 4630 (1985) 255 (1954) 668 264 341 415 441 520 721 819 1030 1350
2020-10-21 18:15 1.07 702 4630 (1985) 255 (1954) 668 264 341 415 441 520 721 819 1030 1350
2020-10-21 17:15 1.04 692 4630 (1985) 255 (1954) 668 264 341 415 441 520 721 819 1030 1350
2020-10-21 16:15 1.01 682 4630 (1985) 255 (1954) 668 264 341 415 441 520 721 819 1030 1350
2020-10-21 15:15 1.00 679 4630 (1985) 255 (1954) 668 264 341 415 441 520 721 819 1030 1350
2020-10-21 14:15 0.97 669 4630 (1985) 255 (1954) 668 264 341 415 441 520 721 819 1030 1350
2020-10-21 13:15 0.97 669 4630 (1985) 255 (1954) 668 264 341 415 441 520 721 819 1030 1350
2020-10-21 12:15 0.96 665 4630 (1985) 255 (1954) 668 264 341 415 441 520 721 819 1030 1350
2020-10-21 11:15 0.98 672 4630 (1985) 255 (1954) 668 264 341 415 441 520 721 819 1030 1350
2020-10-21 10:15 0.97 669 4630 (1985) 255 (1954) 668 264 341 415 441 520 721 819 1030 1350
2020-10-21 09:15 0.98 672 4630 (1985) 255 (1954) 668 264 341 415 441 520 721 819 1030 1350
2020-10-21 08:15 1.00 679 4630 (1985) 255 (1954) 668 264 341 415 441 520 721 819 1030 1350
2020-10-21 07:15 1.01 682 4630 (1985) 255 (1954) 668 264 341 415 441 520 721 819 1030 1350
2020-10-21 06:15 1.02 685 4630 (1985) 255 (1954) 668 264 341 415 441 520 721 819 1030 1350
2020-10-21 05:15 1.03 689 4630 (1985) 255 (1954) 668 264 341 415 441 520 721 819 1030 1350
2020-10-21 04:15 1.05 695 4630 (1985) 255 (1954) 668 264 341 415 441 520 721 819 1030 1350
2020-10-21 03:15 1.06 699 4630 (1985) 255 (1954) 668 264 341 415 441 520 721 819 1030 1350
2020-10-21 02:15 1.08 706 4630 (1985) 255 (1954) 668 264 341 415 441 520 721 819 1030 1350
2020-10-21 01:15 1.09 709 4630 (1985) 255 (1954) 668 264 341 415 441 520 721 819 1030 1350
2020-10-21 00:15 1.10 712 4630 (1985) 255 (1954) 668 264 341 415 441 520 721 819 1030 1350
2020-10-20 23:15 1.12 719 2150 (1983) 252 (1955) 635 264 348 412 425 531 744 812 1020 1320
2020-10-20 22:15 1.12 719 2150 (1983) 252 (1955) 635 264 348 412 425 531 744 812 1020 1320
2020-10-20 21:15 1.15 729 2150 (1983) 252 (1955) 635 264 348 412 425 531 744 812 1020 1320
2020-10-20 20:15 1.16 733 2150 (1983) 252 (1955) 635 264 348 412 425 531 744 812 1020 1320
2020-10-20 19:15 1.17 736 2150 (1983) 252 (1955) 635 264 348 412 425 531 744 812 1020 1320
2020-10-20 18:15 1.17 736 2150 (1983) 252 (1955) 635 264 348 412 425 531 744 812 1020 1320
2020-10-20 17:15 1.19 743 2150 (1983) 252 (1955) 635 264 348 412 425 531 744 812 1020 1320
2020-10-20 16:15 1.19 743 2150 (1983) 252 (1955) 635 264 348 412 425 531 744 812 1020 1320
2020-10-20 15:15 1.21 749 2150 (1983) 252 (1955) 635 264 348 412 425 531 744 812 1020 1320
2020-10-20 14:15 1.21 749 2150 (1983) 252 (1955) 635 264 348 412 425 531 744 812 1020 1320
2020-10-20 13:15 1.22 753 2150 (1983) 252 (1955) 635 264 348 412 425 531 744 812 1020 1320
2020-10-20 12:15 1.23 756 2150 (1983) 252 (1955) 635 264 348 412 425 531 744 812 1020 1320
2020-10-20 11:15 1.24 760 2150 (1983) 252 (1955) 635 264 348 412 425 531 744 812 1020 1320
2020-10-20 10:15 1.27 770 2150 (1983) 252 (1955) 635 264 348 412 425 531 744 812 1020 1320
2020-10-20 09:15 1.27 770 2150 (1983) 252 (1955) 635 264 348 412 425 531 744 812 1020 1320
2020-10-20 08:15 1.27 770 2150 (1983) 252 (1955) 635 264 348 412 425 531 744 812 1020 1320
2020-10-20 07:15 1.28 773 2150 (1983) 252 (1955) 635 264 348 412 425 531 744 812 1020 1320
2020-10-20 06:15 1.29 777 2150 (1983) 252 (1955) 635 264 348 412 425 531 744 812 1020 1320
2020-10-20 05:15 1.30 780 2150 (1983) 252 (1955) 635 264 348 412 425 531 744 812 1020 1320
2020-10-20 04:15 1.29 777 2150 (1983) 252 (1955) 635 264 348 412 425 531 744 812 1020 1320
2020-10-20 03:15 1.30 780 2150 (1983) 252 (1955) 635 264 348 412 425 531 744 812 1020 1320
2020-10-20 02:15 1.30 780 2150 (1983) 252 (1955) 635 264 348 412 425 531 744 812 1020 1320
2020-10-20 01:15 1.29 777 2150 (1983) 252 (1955) 635 264 348 412 425 531 744 812 1020 1320
2020-10-20 00:15 1.29 777 2150 (1983) 252 (1955) 635 264 348 412 425 531 744 812 1020 1320
2020-10-19 23:15 1.27 770 2280 (1994) 255 (1954) 650 262 342 409 429 522 720 786 1220 1400
2020-10-19 22:15 1.25 763 2280 (1994) 255 (1954) 650